Wetterdaten: Freitag, 24.02.2023
Datum Zeit Temp. 2m Temp +5 cm Feuchte A. Luftdruck Regen Wind Richtung Richtung Sonnenschein UV Solar Taupunkt Windchill Windben
24.02.2023 00:00 4,1 C 3,9 C 91 % 1016,2 hPa 0,0 l/m 4,8 km/h (1 Bft) NW 315 0 min 0,0 UV-I 0 W/m 2,8 C 4,1 C 8,0 km/h (2 Bft)
24.02.2023 00:01 4,1 C 3,9 C 91 % 1016,1 hPa 0,0 l/m 3,2 km/h (1 Bft) NW 315 0 min 0,0 UV-I 0 W/m 2,8 C 4,1 C 6,4 km/h (2 Bft)
24.02.2023 00:02 4,1 C 3,9 C 91 % 1016,1 hPa 0,0 l/m 3,2 km/h (1 Bft) NW 315 0 min 0,0 UV-I 0 W/m 2,8 C 4,1 C 6,4 km/h (2 Bft)
24.02.2023 00:03 4,1 C 3,9 C 91 % 1016,1 hPa 0,0 l/m 4,8 km/h (1 Bft) NW 315 0 min 0,0 UV-I 0 W/m 2,8 C 4,1 C 6,4 km/h (2 Bft)
24.02.2023 00:04 4,1 C 3,9 C 91 % 1016,1 hPa 0,0 l/m 6,4 km/h (2 Bft) NW 315 0 min 0,0 UV-I 0 W/m 2,8 C 4,1 C 12,9 km/h (3 Bft)
24.02.2023 00:05 4,1 C 3,9 C 91 % 1016,0 hPa 0,0 l/m 4,8 km/h (1 Bft) NW 315 0 min 0,0 UV-I 0 W/m 2,8 C 4,1 C 8,0 km/h (2 Bft)
24.02.2023 00:06 4,1 C 3,9 C 91 % 1016,1 hPa 0,0 l/m 4,8 km/h (1 Bft) NW 315 0 min 0,0 UV-I 0 W/m 2,8 C 4,1 C 8,0 km/h (2 Bft)
24.02.2023 00:07 4,1 C 3,9 C 91 % 1016,0 hPa 0,0 l/m 3,2 km/h (1 Bft) N-NW 337 0 min 0,0 UV-I 0 W/m 2,8 C 4,1 C 6,4 km/h (2 Bft)
24.02.2023 00:08 4,1 C 3,9 C 91 % 1016,0 hPa 0,0 l/m 3,2 km/h (1 Bft) NW 315 0 min 0,0 UV-I 0 W/m 2,8 C 4,1 C 4,8 km/h (1 Bft)
24.02.2023 00:09 4,1 C 3,9 C 91 % 1016,0 hPa 0,0 l/m 3,2 km/h (1 Bft) NW 315 0 min 0,0 UV-I 0 W/m 2,8 C 4,1 C 6,4 km/h (2 Bft)
24.02.2023 00:10 4,1 C 3,9 C 91 % 1016,1 hPa 0,0 l/m 4,8 km/h (1 Bft) NW 315 0 min 0,0 UV-I 0 W/m 2,8 C 4,1 C 8,0 km/h (2 Bft)
24.02.2023 00:11 4,1 C 3,9 C 91 % 1016,0 hPa 0,0 l/m 4,8 km/h (1 Bft) NW 315 0 min 0,0 UV-I 0 W/m 2,8 C 4,1 C 8,0 km/h (2 Bft)
24.02.2023 00:12 4,0 C 3,9 C 91 % 1015,9 hPa 0,0 l/m 4,8 km/h (1 Bft) NW 315 0 min 0,0 UV-I 0 W/m 2,7 C 4,0 C 6,4 km/h (2 Bft)
24.02.2023 00:13 4,1 C 3,9 C 91 % 1015,9 hPa 0,0 l/m 6,4 km/h (2 Bft) N-NW 337 0 min 0,0 UV-I 0 W/m 2,8 C 4,1 C 12,9 km/h (3 Bft)
24.02.2023 00:14 4,1 C 3,9 C 91 % 1016,0 hPa 0,0 l/m 3,2 km/h (1 Bft) N-NW 337 0 min 0,0 UV-I 0 W/m 2,8 C 4,1 C 6,4 km/h (2 Bft)
24.02.2023 00:15 4,1 C 3,9 C 91 % 1015,9 hPa 0,0 l/m 3,2 km/h (1 Bft) N-NW 337 0 min 0,0 UV-I 0 W/m 2,8 C 4,1 C 4,8 km/h (1 Bft)
24.02.2023 00:16 4,1 C 3,9 C 91 % 1016,0 hPa 0,0 l/m 3,2 km/h (1 Bft) N-NW 337 0 min 0,0 UV-I 0 W/m 2,8 C 4,1 C 6,4 km/h (2 Bft)
24.02.2023 00:17 4,1 C 3,9 C 91 % 1015,9 hPa 0,0 l/m 4,8 km/h (1 Bft) NW 315 0 min 0,0 UV-I 0 W/m 2,8 C 4,1 C 9,7 km/h (2 Bft)
24.02.2023 00:18 4,1 C 3,9 C 91 % 1015,8 hPa 0,0 l/m 8,0 km/h (2 Bft) NW 315 0 min 0,0 UV-I 0 W/m 2,8 C 2,7 C 11,3 km/h (2 Bft)
24.02.2023 00:19 4,0 C 3,9 C 91 % 1015,9 hPa 0,0 l/m 6,4 km/h (2 Bft) N-NW 337 0 min 0,0 UV-I 0 W/m 2,7 C 4,0 C 9,7 km/h (2 Bft)
24.02.2023 00:20 4,1 C 3,9 C 91 % 1015,9 hPa 0,0 l/m 6,4 km/h (2 Bft) NW 315 0 min 0,0 UV-I 0 W/m 2,8 C 4,1 C 9,7 km/h (2 Bft)
24.02.2023 00:21 4,1 C 3,9 C 91 % 1015,9 hPa 0,0 l/m 6,4 km/h (2 Bft) NW 315 0 min 0,0 UV-I 0 W/m 2,8 C 4,1 C 9,7 km/h (2 Bft)
24.02.2023 00:22 4,1 C 3,9 C 91 % 1016,0 hPa 0,0 l/m 6,4 km/h (2 Bft) NW 315 0 min 0,0 UV-I 0 W/m 2,8 C 4,1 C 8,0 km/h (2 Bft)
24.02.2023 00:23 4,1 C 3,9 C 91 % 1015,9 hPa 0,0 l/m 4,8 km/h (1 Bft) NW 315 0 min 0,0 UV-I 0 W/m 2,8 C 4,1 C 6,4 km/h (2 Bft)
24.02.2023 00:24 4,1 C 3,9 C 91 % 1015,9 hPa 0,0 l/m 6,4 km/h (2 Bft) NW 315 0 min 0,0 UV-I 0 W/m 2,8 C 4,1 C 8,0 km/h (2 Bft)
24.02.2023 00:25 4,0 C 3,9 C 91 % 1015,9 hPa 0,0 l/m 3,2 km/h (1 Bft) NW 315 0 min 0,0 UV-I 0 W/m 2,7 C 4,0 C 6,4 km/h (2 Bft)
24.02.2023 00:26 4,1 C 3,9 C 91 % 1015,9 hPa 0,0 l/m 3,2 km/h (1 Bft) NW 315 0 min 0,0 UV-I 0 W/m 2,8 C 4,1 C 6,4 km/h (2 Bft)
24.02.2023 00:27 4,0 C 3,9 C 91 % 1015,9 hPa 0,0 l/m 4,8 km/h (1 Bft) N-NW 337 0 min 0,0 UV-I 0 W/m 2,7 C 4,0 C 8,0 km/h (2 Bft)
24.02.2023 00:28 4,0 C 3,9 C 91 % 1015,9 hPa 0,0 l/m 4,8 km/h (1 Bft) N-NW 337 0 min 0,0 UV-I 0 W/m 2,7 C 4,0 C 8,0 km/h (2 Bft)
24.02.2023 00:29 4,0 C 3,9 C 91 % 1015,9 hPa 0,0 l/m 4,8 km/h (1 Bft) N-NW 337 0 min 0,0 UV-I 0 W/m 2,7 C 4,0 C 8,0 km/h (2 Bft)
24.02.2023 00:30 4,1 C 3,9 C 91 % 1015,8 hPa 0,0 l/m 6,4 km/h (2 Bft) N-NW 337 0 min 0,0 UV-I 0 W/m 2,8 C 4,1 C 9,7 km/h (2 Bft)
24.02.2023 00:31 4,0 C 3,9 C 91 % 1015,8 hPa 0,0 l/m 6,4 km/h (2 Bft) NW 315 0 min 0,0 UV-I 0 W/m 2,7 C 4,0 C 8,0 km/h (2 Bft)
24.02.2023 00:32 4,0 C 3,9 C 91 % 1015,8 hPa 0,0 l/m 3,2 km/h (1 Bft) NW 315 0 min 0,0 UV-I 0 W/m 2,7 C 4,0 C 4,8 km/h (1 Bft)
24.02.2023 00:33 4,0 C 3,9 C 91 % 1015,8 hPa 0,0 l/m 1,6 km/h (1 Bft) NW 315 0 min 0,0 UV-I 0 W/m 2,7 C 4,0 C 4,8 km/h (1 Bft)
24.02.2023 00:34 4,0 C 3,9 C 91 % 1015,7 hPa 0,0 l/m 1,6 km/h (1 Bft) NW 315 0 min 0,0 UV-I 0 W/m 2,7 C 4,0 C 3,2 km/h (1 Bft)
24.02.2023 00:35 4,0 C 3,9 C 91 % 1015,8 hPa 0,0 l/m 1,6 km/h (1 Bft) NW 315 0 min 0,0 UV-I 0 W/m 2,7 C 4,0 C 3,2 km/h (1 Bft)
24.02.2023 00:36 4,0 C 3,9 C 91 % 1015,7 hPa 0,0 l/m 3,2 km/h (1 Bft) NW 315 0 min 0,0 UV-I 0 W/m 2,7 C 4,0 C 4,8 km/h (1 Bft)
24.02.2023 00:37 4,0 C 3,9 C 91 % 1015,7 hPa 0,0 l/m 1,6 km/h (1 Bft) NW 315 0 min 0,0 UV-I 0 W/m 2,7 C 4,0 C 3,2 km/h (1 Bft)
24.02.2023 00:38 4,0 C 3,9 C 91 % 1015,7 hPa 0,0 l/m 0,0 km/h (0 Bft) NW 315 0 min 0,0 UV-I 0 W/m 2,7 C 4,0 C 3,2 km/h (1 Bft)
24.02.2023 00:39 3,9 C 3,3 C 91 % 1015,7 hPa 0,0 l/m 0,0 km/h (0 Bft) NW 315 0 min 0,0 UV-I 0 W/m 2,6 C 3,9 C 1,6 km/h (1 Bft)
24.02.2023 00:40 4,0 C 3,3 C 91 % 1015,6 hPa 0,0 l/m 1,6 km/h (1 Bft) NW 315 0 min 0,0 UV-I 0 W/m 2,7 C 4,0 C 4,8 km/h (1 Bft)
24.02.2023 00:41 3,9 C 3,3 C 91 % 1015,7 hPa 0,0 l/m 0,0 km/h (0 Bft) N 0 0 min 0,0 UV-I 0 W/m 2,6 C 3,9 C 0,0 km/h (0 Bft)
24.02.2023 00:42 4,0 C 3,3 C 90 % 1015,6 hPa 0,0 l/m 0,0 km/h (0 Bft) NW 315 0 min 0,0 UV-I 0 W/m 2,5 C 4,0 C 1,6 km/h (1 Bft)
24.02.2023 00:43 3,9 C 3,3 C 90 % 1015,7 hPa 0,0 l/m 0,0 km/h (0 Bft) NW 315 0 min 0,0 UV-I 0 W/m 2,4 C 3,9 C 1,6 km/h (1 Bft)
24.02.2023 00:44 3,9 C 3,3 C 90 % 1015,6 hPa 0,0 l/m 0,0 km/h (0 Bft) N 0 0 min 0,0 UV-I 0 W/m 2,4 C 3,9 C 0,0 km/h (0 Bft)
24.02.2023 00:45 3,9 C 3,3 C 90 % 1015,6 hPa 0,0 l/m 0,0 km/h (0 Bft) N 0 0 min 0,0 UV-I 0 W/m 2,4 C 3,9 C 0,0 km/h (0 Bft)
24.02.2023 00:46 3,9 C 3,3 C 90 % 1015,6 hPa 0,0 l/m 0,0 km/h (0 Bft) N 0 0 min 0,0 UV-I 0 W/m 2,4 C 3,9 C 0,0 km/h (0 Bft)
24.02.2023 00:47 3,9 C 3,3 C 90 % 1015,7 hPa 0,0 l/m 0,0 km/h (0 Bft) N 0 0 min 0,0 UV-I 0 W/m 2,4 C 3,9 C 0,0 km/h (0 Bft)
24.02.2023 00:48 3,9 C 3,3 C 90 % 1015,7 hPa 0,0 l/m 0,0 km/h (0 Bft) N 0 0 min 0,0 UV-I 0 W/m 2,4 C 3,9 C 0,0 km/h (0 Bft)
24.02.2023 00:49 3,9 C 3,3 C 90 % 1015,6 hPa 0,0 l/m 0,0 km/h (0 Bft) N 0 0 min 0,0 UV-I 0 W/m 2,4 C 3,9 C 0,0 km/h (0 Bft)
24.02.2023 00:50 3,9 C 3,3 C 90 % 1015,8 hPa 0,0 l/m 0,0 km/h (0 Bft) N 0 0 min 0,0 UV-I 0 W/m 2,4 C 3,9 C 0,0 km/h (0 Bft)
24.02.2023 00:51 3,9 C 3,3 C 90 % 1015,7 hPa 0,0 l/m 0,0 km/h (0 Bft) N 0 0 min 0,0 UV-I 0 W/m 2,4 C 3,9 C 0,0 km/h (0 Bft)
24.02.2023 00:52 3,9 C 3,3 C 90 % 1015,6 hPa 0,0 l/m 0,0 km/h (0 Bft) N 0 0 min 0,0 UV-I 0 W/m 2,4 C 3,9 C 0,0 km/h (0 Bft)
24.02.2023 00:53 3,9 C 3,3 C 90 % 1015,7 hPa 0,0 l/m 0,0 km/h (0 Bft) N 0 0 min 0,0 UV-I 0 W/m 2,4 C 3,9 C 0,0 km/h (0 Bft)
24.02.2023 00:54 3,9 C 3,3 C 90 % 1015,6 hPa 0,0 l/m 0,0 km/h (0 Bft) N 0 0 min 0,0 UV-I 0 W/m 2,4 C 3,9 C 0,0 km/h (0 Bft)
24.02.2023 00:55 3,9 C 3,3 C 90 % 1015,7 hPa 0,0 l/m 0,0 km/h (0 Bft) NW 315 0 min 0,0 UV-I 0 W/m 2,4 C 3,9 C 1,6 km/h (1 Bft)
24.02.2023 00:56 3,9 C 3,3 C 89 % 1015,6 hPa 0,0 l/m 0,0 km/h (0 Bft) N 0 0 min 0,0 UV-I 0 W/m 2,3 C 3,9 C 0,0 km/h (0 Bft)
24.02.2023 00:57 3,9 C 3,3 C 89 % 1015,6 hPa 0,0 l/m 0,0 km/h (0 Bft) N 0 0 min 0,0 UV-I 0 W/m 2,3 C 3,9 C 0,0 km/h (0 Bft)
24.02.2023 00:58 3,9 C 3,3 C 89 % 1015,7 hPa 0,0 l/m 0,0 km/h (0 Bft) N 0 0 min 0,0 UV-I 0 W/m 2,3 C 3,9 C 0,0 km/h (0 Bft)
24.02.2023 00:59 3,9 C 3,3 C 89 % 1015,6 hPa 0,0 l/m 0,0 km/h (0 Bft) N 0 0 min 0,0 UV-I 0 W/m 2,3 C 3,9 C 0,0 km/h (0 Bft)
24.02.2023 01:00 3,9 C 3,3 C 89 % 1015,6 hPa 0,0 l/m 0,0 km/h (0 Bft) N 0 0 min 0,0 UV-I 0 W/m 2,3 C 3,9 C 0,0 km/h (0 Bft)
24.02.2023 01:01 3,9 C 3,3 C 89 % 1015,6 hPa 0,0 l/m 0,0 km/h (0 Bft) N 0 0 min 0,0 UV-I 0 W/m 2,3 C 3,9 C 0,0 km/h (0 Bft)
24.02.2023 01:02 4,0 C 3,3 C 89 % 1015,6 hPa 0,0 l/m 0,0 km/h (0 Bft) N 0 0 min 0,0 UV-I 0 W/m 2,4 C 4,0 C 0,0 km/h (0 Bft)
24.02.2023 01:03 3,9 C 3,3 C 89 % 1015,6 hPa 0,0 l/m 0,0 km/h (0 Bft) N 0 0 min 0,0 UV-I 0 W/m 2,3 C 3,9 C 0,0 km/h (0 Bft)
24.02.2023 01:04 4,0 C 3,3 C 89 % 1015,5 hPa 0,0 l/m 0,0 km/h (0 Bft) N 0 0 min 0,0 UV-I 0 W/m 2,4 C 4,0 C 0,0 km/h (0 Bft)
24.02.2023 01:05 4,0 C 3,3 C 89 % 1015,5 hPa 0,0 l/m 0,0 km/h (0 Bft) N 0 0 min 0,0 UV-I 0 W/m 2,4 C 4,0 C 0,0 km/h (0 Bft)
24.02.2023 01:06 3,9 C 3,3 C 89 % 1015,5 hPa 0,0 l/m 3,2 km/h (1 Bft) NW 315 0 min 0,0 UV-I 0 W/m 2,3 C 3,9 C 6,4 km/h (2 Bft)
24.02.2023 01:07 3,9 C 3,3 C 89 % 1015,6 hPa 0,0 l/m 1,6 km/h (1 Bft) NW 315 0 min 0,0 UV-I 0 W/m 2,3 C 3,9 C 4,8 km/h (1 Bft)
24.02.2023 01:08 3,9 C 3,3 C 88 % 1015,5 hPa 0,0 l/m 1,6 km/h (1 Bft) NW 315 0 min 0,0 UV-I 0 W/m 2,1 C 3,9 C 3,2 km/h (1 Bft)
24.02.2023 01:09 3,9 C 3,3 C 88 % 1015,4 hPa 0,0 l/m 0,0 km/h (0 Bft) NW 315 0 min 0,0 UV-I 0 W/m 2,1 C 3,9 C 1,6 km/h (1 Bft)
24.02.2023 01:10 3,9 C 3,3 C 88 % 1015,5 hPa 0,0 l/m 0,0 km/h (0 Bft) NW 315 0 min 0,0 UV-I 0 W/m 2,1 C 3,9 C 1,6 km/h (1 Bft)
24.02.2023 01:11 3,9 C 3,3 C 88 % 1015,5 hPa 0,0 l/m 1,6 km/h (1 Bft) NW 315 0 min 0,0 UV-I 0 W/m 2,1 C 3,9 C 3,2 km/h (1 Bft)
24.02.2023 01:12 3,9 C 3,3 C 88 % 1015,4 hPa 0,0 l/m 3,2 km/h (1 Bft) NW 315 0 min 0,0 UV-I 0 W/m 2,1 C 3,9 C 4,8 km/h (1 Bft)
24.02.2023 01:13 3,9 C 3,3 C 88 % 1015,5 hPa 0,0 l/m 1,6 km/h (1 Bft) NW 315 0 min 0,0 UV-I 0 W/m 2,1 C 3,9 C 1,6 km/h (1 Bft)
24.02.2023 01:14 3,9 C 3,3 C 88 % 1015,5 hPa 0,0 l/m 3,2 km/h (1 Bft) NW 315 0 min 0,0 UV-I 0 W/m 2,1 C 3,9 C 6,4 km/h (2 Bft)
24.02.2023 01:15 3,9 C 3,3 C 88 % 1015,5 hPa 0,0 l/m 3,2 km/h (1 Bft) NW 315 0 min 0,0 UV-I 0 W/m 2,1 C 3,9 C 3,2 km/h (1 Bft)
24.02.2023 01:16 3,9 C 3,3 C 88 % 1015,4 hPa 0,0 l/m 1,6 km/h (1 Bft) NW 315 0 min 0,0 UV-I 0 W/m 2,1 C 3,9 C 3,2 km/h (1 Bft)
24.02.2023 01:17 4,0 C 3,3 C 87 % 1015,4 hPa 0,0 l/m 0,0 km/h (0 Bft) NW 315 0 min 0,0 UV-I 0 W/m 2,0 C 4,0 C 1,6 km/h (1 Bft)
24.02.2023 01:18 3,9 C 3,3 C 87 % 1015,4 hPa 0,0 l/m 0,0 km/h (0 Bft) NW 315 0 min 0,0 UV-I 0 W/m 1,9 C 3,9 C 3,2 km/h (1 Bft)
24.02.2023 01:19 3,9 C 3,3 C 87 % 1015,3 hPa 0,0 l/m 0,0 km/h (0 Bft) NW 315 0 min 0,0 UV-I 0 W/m 1,9 C 3,9 C 1,6 km/h (1 Bft)
24.02.2023 01:20 3,9 C 3,3 C 87 % 1015,4 hPa 0,0 l/m 0,0 km/h (0 Bft) N 0 0 min 0,0 UV-I 0 W/m 1,9 C 3,9 C 0,0 km/h (0 Bft)
24.02.2023 01:21 3,9 C 3,3 C 87 % 1015,3 hPa 0,0 l/m 0,0 km/h (0 Bft) N 0 0 min 0,0 UV-I 0 W/m 1,9 C 3,9 C 0,0 km/h (0 Bft)
24.02.2023 01:22 3,9 C 3,3 C 87 % 1015,4 hPa 0,0 l/m 0,0 km/h (0 Bft) NW 315 0 min 0,0 UV-I 0 W/m 1,9 C 3,9 C 1,6 km/h (1 Bft)
24.02.2023 01:23 3,9 C 3,3 C 87 % 1015,4 hPa 0,0 l/m 0,0 km/h (0 Bft) NW 315 0 min 0,0 UV-I 0 W/m 1,9 C 3,9 C 3,2 km/h (1 Bft)
24.02.2023 01:24 3,9 C 3,3 C 87 % 1015,4 hPa 0,0 l/m 1,6 km/h (1 Bft) NW 315 0 min 0,0 UV-I 0 W/m 1,9 C 3,9 C 3,2 km/h (1 Bft)
24.02.2023 01:25 3,8 C 3,3 C 87 % 1015,4 hPa 0,0 l/m 1,6 km/h (1 Bft) NW 315 0 min 0,0 UV-I 0 W/m 1,8 C 3,8 C 3,2 km/h (1 Bft)
24.02.2023 01:26 3,8 C 3,3 C 87 % 1015,4 hPa 0,0 l/m 0,0 km/h (0 Bft) NW 315 0 min 0,0 UV-I 0 W/m 1,8 C 3,8 C 1,6 km/h (1 Bft)
24.02.2023 01:27 3,8 C 3,3 C 87 % 1015,3 hPa 0,0 l/m 0,0 km/h (0 Bft) N 0 0 min 0,0 UV-I 0 W/m 1,8 C 3,8 C 0,0 km/h (0 Bft)
24.02.2023 01:28 3,8 C 3,3 C 87 % 1015,3 hPa 0,0 l/m 1,6 km/h (1 Bft) NW 315 0 min 0,0 UV-I 0 W/m 1,8 C 3,8 C 4,8 km/h (1 Bft)
24.02.2023 01:29 3,8 C 3,3 C 87 % 1015,3 hPa 0,0 l/m 1,6 km/h (1 Bft) NW 315 0 min 0,0 UV-I 0 W/m 1,8 C 3,8 C 4,8 km/h (1 Bft)
24.02.2023 01:30 3,8 C 3,3 C 87 % 1015,3 hPa 0,0 l/m 1,6 km/h (1 Bft) NW 315 0 min 0,0 UV-I 0 W/m 1,8 C 3,8 C 3,2 km/h (1 Bft)
24.02.2023 01:31 3,8 C 3,3 C 87 % 1015,3 hPa 0,0 l/m 1,6 km/h (1 Bft) NW 315 0 min 0,0 UV-I 0 W/m 1,8 C 3,8 C 4,8 km/h (1 Bft)
24.02.2023 01:32 3,8 C 3,3 C 87 % 1015,3 hPa 0,0 l/m 3,2 km/h (1 Bft) NW 315 0 min 0,0 UV-I 0 W/m 1,8 C 3,8 C 4,8 km/h (1 Bft)
24.02.2023 01:33 3,8 C 3,3 C 87 % 1015,3 hPa 0,0 l/m 1,6 km/h (1 Bft) NW 315 0 min 0,0 UV-I 0 W/m 1,8 C 3,8 C 3,2 km/h (1 Bft)
24.02.2023 01:34 3,8 C 3,3 C 87 % 1015,3 hPa 0,0 l/m 3,2 km/h (1 Bft) NW 315 0 min 0,0 UV-I 0 W/m 1,8 C 3,8 C 3,2 km/h (1 Bft)
24.02.2023 01:35 3,7 C 2,8 C 88 % 1015,2 hPa 0,0 l/m 1,6 km/h (1 Bft) NW 315 0 min 0,0 UV-I 0 W/m 1,9 C 3,7 C 3,2 km/h (1 Bft)
24.02.2023 01:36 3,7 C 2,8 C 88 % 1015,3 hPa 0,0 l/m 1,6 km/h (1 Bft) NW 315 0 min 0,0 UV-I 0 W/m 1,9 C 3,7 C 3,2 km/h (1 Bft)
24.02.2023 01:37 3,7 C 2,8 C 88 % 1015,2 hPa 0,0 l/m 0,0 km/h (0 Bft) NW 315 0 min 0,0 UV-I 0 W/m 1,9 C 3,7 C 3,2 km/h (1 Bft)
24.02.2023 01:38 3,6 C 2,8 C 88 % 1015,2 hPa 0,0 l/m 3,2 km/h (1 Bft) NW 315 0 min 0,0 UV-I 0 W/m 1,8 C 3,6 C 4,8 km/h (1 Bft)
24.02.2023 01:39 3,6 C 2,8 C 88 % 1015,2 hPa 0,0 l/m 4,8 km/h (1 Bft) NW 315 0 min 0,0 UV-I 0 W/m 1,8 C 3,6 C 6,4 km/h (2 Bft)
24.02.2023 01:40 3,6 C 2,8 C 88 % 1015,0 hPa 0,0 l/m 4,8 km/h (1 Bft) NW 315 0 min 0,0 UV-I 0 W/m 1,8 C 3,6 C 6,4 km/h (2 Bft)
24.02.2023 01:41 3,5 C 2,8 C 88 % 1015,2 hPa 0,0 l/m 3,2 km/h (1 Bft) NW 315 0 min 0,0 UV-I 0 W/m 1,7 C 3,5 C 6,4 km/h (2 Bft)
24.02.2023 01:42 3,4 C 2,8 C 88 % 1015,1 hPa 0,0 l/m 1,6 km/h (1 Bft) NW 315 0 min 0,0 UV-I 0 W/m 1,6 C 3,4 C 4,8 km/h (1 Bft)
24.02.2023 01:43 3,4 C 2,2 C 88 % 1015,2 hPa 0,0 l/m 0,0 km/h (0 Bft) NW 315 0 min 0,0 UV-I 0 W/m 1,6 C 3,4 C 3,2 km/h (1 Bft)
24.02.2023 01:44 3,4 C 2,2 C 88 % 1015,2 hPa 0,0 l/m 1,6 km/h (1 Bft) NW 315 0 min 0,0 UV-I 0 W/m 1,6 C 3,4 C 3,2 km/h (1 Bft)
24.02.2023 01:45 3,4 C 2,2 C 88 % 1015,1 hPa 0,0 l/m 0,0 km/h (0 Bft) NW 315 0 min 0,0 UV-I 0 W/m 1,6 C 3,4 C 3,2 km/h (1 Bft)
24.02.2023 01:46 3,3 C 2,2 C 88 % 1015,2 hPa 0,0 l/m 0,0 km/h (0 Bft) N 0 0 min 0,0 UV-I 0 W/m 1,5 C 3,3 C 0,0 km/h (0 Bft)
24.02.2023 01:47 3,3 C 2,2 C 88 % 1015,2 hPa 0,0 l/m 0,0 km/h (0 Bft) N 0 0 min 0,0 UV-I 0 W/m 1,5 C 3,3 C 0,0 km/h (0 Bft)
24.02.2023 01:48 3,3 C 1,7 C 88 % 1015,2 hPa 0,0 l/m 0,0 km/h (0 Bft) NW 315 0 min 0,0 UV-I 0 W/m 1,5 C 3,3 C 1,6 km/h (1 Bft)
24.02.2023 01:49 3,2 C 1,7 C 88 % 1015,1 hPa 0,0 l/m 0,0 km/h (0 Bft) NW 315 0 min 0,0 UV-I 0 W/m 1,4 C 3,2 C 1,6 km/h (1 Bft)
24.02.2023 01:50 3,2 C 1,7 C 88 % 1015,2 hPa 0,0 l/m 1,6 km/h (1 Bft) NW 315 0 min 0,0 UV-I 0 W/m 1,4 C 3,2 C 1,6 km/h (1 Bft)
24.02.2023 01:51 3,1 C 1,7 C 88 % 1015,1 hPa 0,0 l/m 0,0 km/h (0 Bft) NW 315 0 min 0,0 UV-I 0 W/m 1,3 C 3,1 C 1,6 km/h (1 Bft)
24.02.2023 01:52 3,1 C 1,7 C 88 % 1015,1 hPa 0,0 l/m 1,6 km/h (1 Bft) NW 315 0 min 0,0 UV-I 0 W/m 1,3 C 3,1 C 3,2 km/h (1 Bft)
24.02.2023 01:53 3,1 C 1,7 C 88 % 1015,1 hPa 0,0 l/m 1,6 km/h (1 Bft) NW 315 0 min 0,0 UV-I 0 W/m 1,3 C 3,1 C 4,8 km/h (1 Bft)
24.02.2023 01:54 3,0 C 1,1 C 88 % 1014,9 hPa 0,0 l/m 0,0 km/h (0 Bft) NW 315 0 min 0,0 UV-I 0 W/m 1,2 C 3,0 C 1,6 km/h (1 Bft)
24.02.2023 01:55 2,9 C 1,1 C 88 % 1014,9 hPa 0,0 l/m 0,0 km/h (0 Bft) N 0 0 min 0,0 UV-I 0 W/m 1,1 C 2,9 C 0,0 km/h (0 Bft)
24.02.2023 01:56 2,9 C 1,1 C 89 % 1015,0 hPa 0,0 l/m 0,0 km/h (0 Bft) N 0 0 min 0,0 UV-I 0 W/m 1,3 C 2,9 C 0,0 km/h (0 Bft)
24.02.2023 01:57 2,9 C 1,1 C 89 % 1015,0 hPa 0,0 l/m 0,0 km/h (0 Bft) N 0 0 min 0,0 UV-I 0 W/m 1,3 C 2,9 C 0,0 km/h (0 Bft)
24.02.2023 01:58 2,8 C 1,1 C 89 % 1014,9 hPa 0,0 l/m 0,0 km/h (0 Bft) NW 315 0 min 0,0 UV-I 0 W/m 1,2 C 2,8 C 1,6 km/h (1 Bft)
24.02.2023 01:59 2,8 C 1,1 C 89 % 1014,9 hPa 0,0 l/m 0,0 km/h (0 Bft) N 0 0 min 0,0 UV-I 0 W/m 1,2 C 2,8 C 0,0 km/h (0 Bft)
24.02.2023 02:00 2,7 C 0,6 C 88 % 1014,9 hPa 0,0 l/m 0,0 km/h (0 Bft) N 0 0 min 0,0 UV-I 0 W/m 0,9 C 2,7 C 0,0 km/h (0 Bft)
24.02.2023 02:01 2,6 C 0,6 C 88 % 1014,9 hPa 0,0 l/m 0,0 km/h (0 Bft) N 0 0 min 0,0 UV-I 0 W/m 0,8 C 2,6 C 0,0 km/h (0 Bft)
24.02.2023 02:02 2,5 C 0,6 C 89 % 1014,9 hPa 0,0 l/m 0,0 km/h (0 Bft) N 0 0 min 0,0 UV-I 0 W/m 0,9 C 2,5 C 0,0 km/h (0 Bft)
24.02.2023 02:03 2,4 C 0,6 C 89 % 1014,8 hPa 0,0 l/m 0,0 km/h (0 Bft) N 0 0 min 0,0 UV-I 0 W/m 0,8 C 2,4 C 0,0 km/h (0 Bft)
24.02.2023 02:04 2,4 C 0,6 C 89 % 1014,9 hPa 0,0 l/m 0,0 km/h (0 Bft) N 0 0 min 0,0 UV-I 0 W/m 0,8 C 2,4 C 0,0 km/h (0 Bft)
24.02.2023 02:05 2,4 C 0,6 C 89 % 1014,9 hPa 0,0 l/m 0,0 km/h (0 Bft) N 0 0 min 0,0 UV-I 0 W/m 0,8 C 2,4 C 0,0 km/h (0 Bft)
24.02.2023 02:06 2,4 C 0,6 C 89 % 1014,9 hPa 0,0 l/m 0,0 km/h (0 Bft) N 0 0 min 0,0 UV-I 0 W/m 0,8 C 2,4 C 0,0 km/h (0 Bft)
24.02.2023 02:07 2,3 C 0,6 C 89 % 1014,9 hPa 0,0 l/m 0,0 km/h (0 Bft) N 0 0 min 0,0 UV-I 0 W/m 0,7 C 2,3 C 0,0 km/h (0 Bft)
24.02.2023 02:08 2,3 C 0,6 C 89 % 1014,8 hPa 0,0 l/m 0,0 km/h (0 Bft) N 0 0 min 0,0 UV-I 0 W/m 0,7 C 2,3 C 0,0 km/h (0 Bft)
24.02.2023 02:09 2,3 C 0,6 C 90 % 1014,8 hPa 0,0 l/m 0,0 km/h (0 Bft) N 0 0 min 0,0 UV-I 0 W/m 0,8 C 2,3 C 0,0 km/h (0 Bft)
24.02.2023 02:10 2,3 C 0,6 C 89 % 1014,9 hPa 0,0 l/m 1,6 km/h (1 Bft) NW 315 0 min 0,0 UV-I 0 W/m 0,7 C 2,3 C 3,2 km/h (1 Bft)
24.02.2023 02:11 2,2 C 0,6 C 89 % 1014,9 hPa 0,0 l/m 3,2 km/h (1 Bft) NW 315 0 min 0,0 UV-I 0 W/m 0,6 C 2,2 C 4,8 km/h (1 Bft)
24.02.2023 02:12 2,2 C 0,6 C 90 % 1014,9 hPa 0,0 l/m 3,2 km/h (1 Bft) NW 315 0 min 0,0 UV-I 0 W/m 0,7 C 2,2 C 4,8 km/h (1 Bft)
24.02.2023 02:13 2,2 C 0,6 C 90 % 1014,9 hPa 0,0 l/m 3,2 km/h (1 Bft) NW 315 0 min 0,0 UV-I 0 W/m 0,7 C 2,2 C 4,8 km/h (1 Bft)
24.02.2023 02:14 2,1 C 0,6 C 90 % 1014,9 hPa 0,0 l/m 1,6 km/h (1 Bft) NW 315 0 min 0,0 UV-I 0 W/m 0,6 C 2,1 C 4,8 km/h (1 Bft)
24.02.2023 02:15 2,1 C 0,6 C 90 % 1014,9 hPa 0,0 l/m 3,2 km/h (1 Bft) NW 315 0 min 0,0 UV-I 0 W/m 0,6 C 2,1 C 4,8 km/h (1 Bft)
24.02.2023 02:16 2,1 C 0,6 C 90 % 1014,8 hPa 0,0 l/m 0,0 km/h (0 Bft) NW 315 0 min 0,0 UV-I 0 W/m 0,6 C 2,1 C 1,6 km/h (1 Bft)
24.02.2023 02:17 2,1 C 0,6 C 90 % 1014,8 hPa 0,0 l/m 0,0 km/h (0 Bft) N 0 0 min 0,0 UV-I 0 W/m 0,6 C 2,1 C 0,0 km/h (0 Bft)
24.02.2023 02:18 2,0 C 0,6 C 90 % 1014,7 hPa 0,0 l/m 0,0 km/h (0 Bft) N 0 0 min 0,0 UV-I 0 W/m 0,5 C 2,0 C 0,0 km/h (0 Bft)
24.02.2023 02:19 2,0 C 0,6 C 90 % 1014,7 hPa 0,0 l/m 0,0 km/h (0 Bft) N 0 0 min 0,0 UV-I 0 W/m 0,5 C 2,0 C 0,0 km/h (0 Bft)
24.02.2023 02:20 1,9 C 0,6 C 90 % 1014,8 hPa 0,0 l/m 0,0 km/h (0 Bft) N 0 0 min 0,0 UV-I 0 W/m 0,4 C 1,9 C 0,0 km/h (0 Bft)
24.02.2023 02:21 1,9 C 0,6 C 90 % 1014,7 hPa 0,0 l/m 0,0 km/h (0 Bft) N 0 0 min 0,0 UV-I 0 W/m 0,4 C 1,9 C 0,0 km/h (0 Bft)
24.02.2023 02:22 1,9 C 0,6 C 90 % 1014,7 hPa 0,0 l/m 0,0 km/h (0 Bft) N 0 0 min 0,0 UV-I 0 W/m 0,4 C 1,9 C 0,0 km/h (0 Bft)
24.02.2023 02:23 1,8 C 0,0 C 90 % 1014,7 hPa 0,0 l/m 0,0 km/h (0 Bft) N 0 0 min 0,0 UV-I 0 W/m 0,3 C 1,8 C 0,0 km/h (0 Bft)
24.02.2023 02:24 1,8 C 0,0 C 90 % 1014,6 hPa 0,0 l/m 0,0 km/h (0 Bft) N 0 0 min 0,0 UV-I 0 W/m 0,3 C 1,8 C 0,0 km/h (0 Bft)
24.02.2023 02:25 1,8 C 0,0 C 90 % 1014,6 hPa 0,0 l/m 0,0 km/h (0 Bft) N 0 0 min 0,0 UV-I 0 W/m 0,3 C 1,8 C 0,0 km/h (0 Bft)
24.02.2023 02:26 1,8 C 0,0 C 90 % 1014,6 hPa 0,0 l/m 0,0 km/h (0 Bft) N 0 0 min 0,0 UV-I 0 W/m 0,3 C 1,8 C 0,0 km/h (0 Bft)
24.02.2023 02:27 1,8 C 0,0 C 90 % 1014,6 hPa 0,0 l/m 0,0 km/h (0 Bft) N 0 0 min 0,0 UV-I 0 W/m 0,3 C 1,8 C 0,0 km/h (0 Bft)
24.02.2023 02:28 1,7 C 0,0 C 90 % 1014,6 hPa 0,0 l/m 0,0 km/h (0 Bft) N 0 0 min 0,0 UV-I 0 W/m 0,2 C 1,7 C 0,0 km/h (0 Bft)
24.02.2023 02:29 1,7 C 0,0 C 90 % 1014,6 hPa 0,0 l/m 0,0 km/h (0 Bft) N 0 0 min 0,0 UV-I 0 W/m 0,2 C 1,7 C 0,0 km/h (0 Bft)
24.02.2023 02:30 1,7 C 0,0 C 90 % 1014,5 hPa 0,0 l/m 0,0 km/h (0 Bft) N 0 0 min 0,0 UV-I 0 W/m 0,2 C 1,7 C 0,0 km/h (0 Bft)
24.02.2023 02:31 1,7 C 0,0 C 90 % 1014,5 hPa 0,0 l/m 0,0 km/h (0 Bft) N 0 0 min 0,0 UV-I 0 W/m 0,2 C 1,7 C 0,0 km/h (0 Bft)
24.02.2023 02:32 1,6 C 0,0 C 90 % 1014,5 hPa 0,0 l/m 0,0 km/h (0 Bft) N 0 0 min 0,0 UV-I 0 W/m 0,1 C 1,6 C 0,0 km/h (0 Bft)
24.02.2023 02:33 1,5 C 0,0 C 90 % 1014,5 hPa 0,0 l/m 0,0 km/h (0 Bft) N 0 0 min 0,0 UV-I 0 W/m 0,0 C 1,5 C 0,0 km/h (0 Bft)
24.02.2023 02:34 1,4 C -0,6 C 90 % 1014,4 hPa 0,0 l/m 0,0 km/h (0 Bft) N 0 0 min 0,0 UV-I 0 W/m -0,1 C 1,4 C 0,0 km/h (0 Bft)
24.02.2023 02:35 1,4 C -0,6 C 90 % 1014,4 hPa 0,0 l/m 0,0 km/h (0 Bft) N 0 0 min 0,0 UV-I 0 W/m -0,1 C 1,4 C 0,0 km/h (0 Bft)
24.02.2023 02:36 1,4 C -0,6 C 90 % 1014,5 hPa 0,0 l/m 0,0 km/h (0 Bft) NW 315 0 min 0,0 UV-I 0 W/m -0,1 C 1,4 C 1,6 km/h (1 Bft)
24.02.2023 02:37 1,3 C -0,6 C 90 % 1014,4 hPa 0,0 l/m 0,0 km/h (0 Bft) N 0 0 min 0,0 UV-I 0 W/m -0,2 C 1,3 C 0,0 km/h (0 Bft)
24.02.2023 02:38 1,3 C -0,6 C 90 % 1014,5 hPa 0,0 l/m 0,0 km/h (0 Bft) N 0 0 min 0,0 UV-I 0 W/m -0,2 C 1,3 C 0,0 km/h (0 Bft)
24.02.2023 02:39 1,3 C -0,6 C 91 % 1014,4 hPa 0,0 l/m 0,0 km/h (0 Bft) N 0 0 min 0,0 UV-I 0 W/m -0,0 C 1,3 C 0,0 km/h (0 Bft)
24.02.2023 02:40 1,3 C -0,6 C 91 % 1014,5 hPa 0,0 l/m 0,0 km/h (0 Bft) N 0 0 min 0,0 UV-I 0 W/m -0,0 C 1,3 C 0,0 km/h (0 Bft)
24.02.2023 02:41 1,4 C -0,6 C 91 % 1014,4 hPa 0,0 l/m 0,0 km/h (0 Bft) N 0 0 min 0,0 UV-I 0 W/m 0,1 C 1,4 C 0,0 km/h (0 Bft)
24.02.2023 02:42 1,4 C -0,6 C 91 % 1014,4 hPa 0,0 l/m 0,0 km/h (0 Bft) N 0 0 min 0,0 UV-I 0 W/m 0,1 C 1,4 C 0,0 km/h (0 Bft)
24.02.2023 02:43 1,4 C -0,6 C 91 % 1014,4 hPa 0,0 l/m 0,0 km/h (0 Bft) N 0 0 min 0,0 UV-I 0 W/m 0,1 C 1,4 C 0,0 km/h (0 Bft)
24.02.2023 02:44 1,4 C -0,6 C 91 % 1014,4 hPa 0,0 l/m 0,0 km/h (0 Bft) N 0 0 min 0,0 UV-I 0 W/m 0,1 C 1,4 C 0,0 km/h (0 Bft)
24.02.2023 02:45 1,3 C -0,6 C 91 % 1014,4 hPa 0,0 l/m 0,0 km/h (0 Bft) N 0 0 min 0,0 UV-I 0 W/m -0,0 C 1,3 C 0,0 km/h (0 Bft)
24.02.2023 02:46 1,3 C -0,6 C 91 % 1014,3 hPa 0,0 l/m 0,0 km/h (0 Bft) N 0 0 min 0,0 UV-I 0 W/m -0,0 C 1,3 C 0,0 km/h (0 Bft)
24.02.2023 02:47 1,3 C -0,6 C 91 % 1014,3 hPa 0,0 l/m 0,0 km/h (0 Bft) N 0 0 min 0,0 UV-I 0 W/m -0,0 C 1,3 C 0,0 km/h (0 Bft)
24.02.2023 02:48 1,3 C -0,6 C 91 % 1014,4 hPa 0,0 l/m 0,0 km/h (0 Bft) N 0 0 min 0,0 UV-I 0 W/m -0,0 C 1,3 C 0,0 km/h (0 Bft)
24.02.2023 02:49 1,2 C -0,6 C 91 % 1014,4 hPa 0,0 l/m 0,0 km/h (0 Bft) N 0 0 min 0,0 UV-I 0 W/m -0,1 C 1,2 C 0,0 km/h (0 Bft)
24.02.2023 02:50 1,2 C -0,6 C 91 % 1014,4 hPa 0,0 l/m 0,0 km/h (0 Bft) N 0 0 min 0,0 UV-I 0 W/m -0,1 C 1,2 C 0,0 km/h (0 Bft)
24.02.2023 02:51 1,3 C -0,6 C 91 % 1014,4 hPa 0,0 l/m 0,0 km/h (0 Bft) NW 315 0 min 0,0 UV-I 0 W/m -0,0 C 1,3 C 1,6 km/h (1 Bft)
24.02.2023 02:52 1,3 C 0,0 C 91 % 1014,4 hPa 0,0 l/m 3,2 km/h (1 Bft) NW 315 0 min 0,0 UV-I 0 W/m -0,0 C 1,3 C 6,4 km/h (2 Bft)
24.02.2023 02:53 1,4 C 0,0 C 91 % 1014,4 hPa 0,0 l/m 6,4 km/h (2 Bft) NW 315 0 min 0,0 UV-I 0 W/m 0,1 C 1,4 C 8,0 km/h (2 Bft)
24.02.2023 02:54 1,4 C 0,0 C 91 % 1014,4 hPa 0,0 l/m 4,8 km/h (1 Bft) NW 315 0 min 0,0 UV-I 0 W/m 0,1 C 1,4 C 6,4 km/h (2 Bft)
24.02.2023 02:55 1,5 C 0,0 C 91 % 1014,3 hPa 0,0 l/m 3,2 km/h (1 Bft) NW 315 0 min 0,0 UV-I 0 W/m 0,2 C 1,5 C 6,4 km/h (2 Bft)
24.02.2023 02:56 1,5 C 0,0 C 91 % 1014,4 hPa 0,0 l/m 3,2 km/h (1 Bft) NW 315 0 min 0,0 UV-I 0 W/m 0,2 C 1,5 C 4,8 km/h (1 Bft)
24.02.2023 02:57 1,4 C 0,6 C 91 % 1014,3 hPa 0,0 l/m 1,6 km/h (1 Bft) NW 315 0 min 0,0 UV-I 0 W/m 0,1 C 1,4 C 4,8 km/h (1 Bft)
24.02.2023 02:58 1,4 C 0,6 C 91 % 1014,4 hPa 0,0 l/m 1,6 km/h (1 Bft) NW 315 0 min 0,0 UV-I 0 W/m 0,1 C 1,4 C 3,2 km/h (1 Bft)
24.02.2023 02:59 1,4 C 0,6 C 91 % 1014,3 hPa 0,0 l/m 0,0 km/h (0 Bft) NW 315 0 min 0,0 UV-I 0 W/m 0,1 C 1,4 C 1,6 km/h (1 Bft)
24.02.2023 03:00 1,4 C 0,0 C 91 % 1014,3 hPa 0,0 l/m 0,0 km/h (0 Bft) N 0 0 min 0,0 UV-I 0 W/m 0,1 C 1,4 C 0,0 km/h (0 Bft)
24.02.2023 03:01 1,4 C 0,0 C 91 % 1014,3 hPa 0,0 l/m 0,0 km/h (0 Bft) N 0 0 min 0,0 UV-I 0 W/m 0,1 C 1,4 C 0,0 km/h (0 Bft)
24.02.2023 03:02 1,4 C 0,0 C 91 % 1014,3 hPa 0,0 l/m 0,0 km/h (0 Bft) N 0 0 min 0,0 UV-I 0 W/m 0,1 C 1,4 C 0,0 km/h (0 Bft)
24.02.2023 03:03 1,3 C 0,0 C 91 % 1014,4 hPa 0,0 l/m 0,0 km/h (0 Bft) N 0 0 min 0,0 UV-I 0 W/m -0,0 C 1,3 C 0,0 km/h (0 Bft)
24.02.2023 03:04 1,4 C 0,0 C 91 % 1014,3 hPa 0,0 l/m 0,0 km/h (0 Bft) N 0 0 min 0,0 UV-I 0 W/m 0,1 C 1,4 C 0,0 km/h (0 Bft)
24.02.2023 03:05 1,3 C 0,0 C 91 % 1014,4 hPa 0,0 l/m 0,0 km/h (0 Bft) N 0 0 min 0,0 UV-I 0 W/m -0,0 C 1,3 C 0,0 km/h (0 Bft)
24.02.2023 03:06 1,3 C 0,0 C 91 % 1014,3 hPa 0,0 l/m 0,0 km/h (0 Bft) N 0 0 min 0,0 UV-I 0 W/m -0,0 C 1,3 C 0,0 km/h (0 Bft)
24.02.2023 03:07 1,3 C 0,0 C 91 % 1014,3 hPa 0,0 l/m 0,0 km/h (0 Bft) N 0 0 min 0,0 UV-I 0 W/m -0,0 C 1,3 C 0,0 km/h (0 Bft)
24.02.2023 03:08 1,2 C 0,0 C 91 % 1014,3 hPa 0,0 l/m 0,0 km/h (0 Bft) N 0 0 min 0,0 UV-I 0 W/m -0,1 C 1,2 C 0,0 km/h (0 Bft)
24.02.2023 03:09 1,2 C 0,0 C 92 % 1014,4 hPa 0,0 l/m 0,0 km/h (0 Bft) N 0 0 min 0,0 UV-I 0 W/m 0,0 C 1,2 C 0,0 km/h (0 Bft)
24.02.2023 03:10 1,2 C 0,0 C 92 % 1014,4 hPa 0,0 l/m 0,0 km/h (0 Bft) N 0 0 min 0,0 UV-I 0 W/m 0,0 C 1,2 C 0,0 km/h (0 Bft)
24.02.2023 03:11 1,3 C 0,0 C 91 % 1014,4 hPa 0,0 l/m 0,0 km/h (0 Bft) N 0 0 min 0,0 UV-I 0 W/m -0,0 C 1,3 C 0,0 km/h (0 Bft)
24.02.2023 03:12 1,3 C 0,0 C 91 % 1014,4 hPa 0,0 l/m 0,0 km/h (0 Bft) N 0 0 min 0,0 UV-I 0 W/m -0,0 C 1,3 C 0,0 km/h (0 Bft)
24.02.2023 03:13 1,3 C 0,0 C 92 % 1014,4 hPa 0,0 l/m 0,0 km/h (0 Bft) N 0 0 min 0,0 UV-I 0 W/m 0,1 C 1,3 C 0,0 km/h (0 Bft)
24.02.2023 03:14 1,3 C 0,0 C 92 % 1014,3 hPa 0,0 l/m 0,0 km/h (0 Bft) N 0 0 min 0,0 UV-I 0 W/m 0,1 C 1,3 C 0,0 km/h (0 Bft)
24.02.2023 03:15 1,3 C 0,0 C 92 % 1014,4 hPa 0,0 l/m 0,0 km/h (0 Bft) N 0 0 min 0,0 UV-I 0 W/m 0,1 C 1,3 C 0,0 km/h (0 Bft)
24.02.2023 03:16 1,3 C 0,0 C 92 % 1014,4 hPa 0,0 l/m 0,0 km/h (0 Bft) N 0 0 min 0,0 UV-I 0 W/m 0,1 C 1,3 C 0,0 km/h (0 Bft)
24.02.2023 03:17 1,3 C 0,0 C 92 % 1014,4 hPa 0,0 l/m 0,0 km/h (0 Bft) N 0 0 min 0,0 UV-I 0 W/m 0,1 C 1,3 C 0,0 km/h (0 Bft)
24.02.2023 03:18 1,3 C 0,0 C 92 % 1014,4 hPa 0,0 l/m 0,0 km/h (0 Bft) N 0 0 min 0,0 UV-I 0 W/m 0,1 C 1,3 C 0,0 km/h (0 Bft)
24.02.2023 03:19 1,3 C 0,6 C 92 % 1014,4 hPa 0,0 l/m 0,0 km/h (0 Bft) N 0 0 min 0,0 UV-I 0 W/m 0,1 C 1,3 C 0,0 km/h (0 Bft)
24.02.2023 03:20 1,3 C 0,6 C 92 % 1014,3 hPa 0,0 l/m 0,0 km/h (0 Bft) N 0 0 min 0,0 UV-I 0 W/m 0,1 C 1,3 C 0,0 km/h (0 Bft)
24.02.2023 03:21 1,3 C 0,6 C 92 % 1014,2 hPa 0,0 l/m 0,0 km/h (0 Bft) N 0 0 min 0,0 UV-I 0 W/m 0,1 C 1,3 C 0,0 km/h (0 Bft)
24.02.2023 03:22 1,3 C 0,6 C 91 % 1014,3 hPa 0,0 l/m 0,0 km/h (0 Bft) N 0 0 min 0,0 UV-I 0 W/m -0,0 C 1,3 C 0,0 km/h (0 Bft)
24.02.2023 03:23 1,3 C 0,6 C 92 % 1014,3 hPa 0,0 l/m 0,0 km/h (0 Bft) N 0 0 min 0,0 UV-I 0 W/m 0,1 C 1,3 C 0,0 km/h (0 Bft)
24.02.2023 03:24 1,2 C 0,6 C 92 % 1014,3 hPa 0,0 l/m 0,0 km/h (0 Bft) N 0 0 min 0,0 UV-I 0 W/m 0,0 C 1,2 C 0,0 km/h (0 Bft)
24.02.2023 03:25 1,2 C 0,6 C 92 % 1014,4 hPa 0,0 l/m 0,0 km/h (0 Bft) N 0 0 min 0,0 UV-I 0 W/m 0,0 C 1,2 C 0,0 km/h (0 Bft)
24.02.2023 03:26 1,2 C 0,6 C 92 % 1014,3 hPa 0,0 l/m 0,0 km/h (0 Bft) N 0 0 min 0,0 UV-I 0 W/m 0,0 C 1,2 C 0,0 km/h (0 Bft)
24.02.2023 03:27 1,2 C 0,6 C 92 % 1014,3 hPa 0,0 l/m 0,0 km/h (0 Bft) N 0 0 min 0,0 UV-I 0 W/m 0,0 C 1,2 C 0,0 km/h (0 Bft)
24.02.2023 03:28 1,2 C 0,6 C 92 % 1014,2 hPa 0,0 l/m 0,0 km/h (0 Bft) N 0 0 min 0,0 UV-I 0 W/m 0,0 C 1,2 C 0,0 km/h (0 Bft)
24.02.2023 03:29 1,2 C 0,6 C 92 % 1014,3 hPa 0,0 l/m 0,0 km/h (0 Bft) N 0 0 min 0,0 UV-I 0 W/m 0,0 C 1,2 C 0,0 km/h (0 Bft)
24.02.2023 03:30 1,2 C 0,6 C 92 % 1014,3 hPa 0,0 l/m 0,0 km/h (0 Bft) N 0 0 min 0,0 UV-I 0 W/m 0,0 C 1,2 C 0,0 km/h (0 Bft)
24.02.2023 03:31 1,2 C 0,6 C 92 % 1014,3 hPa 0,0 l/m 0,0 km/h (0 Bft) N 0 0 min 0,0 UV-I 0 W/m 0,0 C 1,2 C 0,0 km/h (0 Bft)
24.02.2023 03:32 1,2 C 0,6 C 92 % 1014,3 hPa 0,0 l/m 0,0 km/h (0 Bft) N 0 0 min 0,0 UV-I 0 W/m 0,0 C 1,2 C 0,0 km/h (0 Bft)
24.02.2023 03:33 1,2 C 0,6 C 92 % 1014,2 hPa 0,0 l/m 0,0 km/h (0 Bft) N 0 0 min 0,0 UV-I 0 W/m 0,0 C 1,2 C 0,0 km/h (0 Bft)
24.02.2023 03:34 1,2 C 0,6 C 92 % 1014,2 hPa 0,0 l/m 0,0 km/h (0 Bft) N 0 0 min 0,0 UV-I 0 W/m 0,0 C 1,2 C 0,0 km/h (0 Bft)
24.02.2023 03:35 1,2 C 0,6 C 92 % 1014,2 hPa 0,0 l/m 0,0 km/h (0 Bft) N 0 0 min 0,0 UV-I 0 W/m 0,0 C 1,2 C 0,0 km/h (0 Bft)
24.02.2023 03:36 1,2 C 0,6 C 92 % 1014,3 hPa 0,0 l/m 0,0 km/h (0 Bft) N 0 0 min 0,0 UV-I 0 W/m 0,0 C 1,2 C 0,0 km/h (0 Bft)
24.02.2023 03:37 1,2 C 0,6 C 92 % 1014,2 hPa 0,0 l/m 0,0 km/h (0 Bft) N 0 0 min 0,0 UV-I 0 W/m 0,0 C 1,2 C 0,0 km/h (0 Bft)
24.02.2023 03:38 1,2 C 0,6 C 92 % 1014,2 hPa 0,0 l/m 0,0 km/h (0 Bft) N 0 0 min 0,0 UV-I 0 W/m 0,0 C 1,2 C 0,0 km/h (0 Bft)
24.02.2023 03:39 1,3 C 0,6 C 92 % 1014,3 hPa 0,0 l/m 0,0 km/h (0 Bft) N 0 0 min 0,0 UV-I 0 W/m 0,1 C 1,3 C 0,0 km/h (0 Bft)
24.02.2023 03:40 1,3 C 0,6 C 92 % 1014,2 hPa 0,0 l/m 0,0 km/h (0 Bft) N 0 0 min 0,0 UV-I 0 W/m 0,1 C 1,3 C 0,0 km/h (0 Bft)
24.02.2023 03:41 1,3 C 0,6 C 92 % 1014,1 hPa 0,0 l/m 0,0 km/h (0 Bft) N 0 0 min 0,0 UV-I 0 W/m 0,1 C 1,3 C 0,0 km/h (0 Bft)
24.02.2023 03:42 1,3 C 1,1 C 92 % 1014,2 hPa 0,0 l/m 0,0 km/h (0 Bft) N 0 0 min 0,0 UV-I 0 W/m 0,1 C 1,3 C 0,0 km/h (0 Bft)
24.02.2023 03:43 1,3 C 1,1 C 92 % 1014,2 hPa 0,0 l/m 0,0 km/h (0 Bft) N 0 0 min 0,0 UV-I 0 W/m 0,1 C 1,3 C 0,0 km/h (0 Bft)
24.02.2023 03:44 1,3 C 1,1 C 92 % 1014,2 hPa 0,0 l/m 0,0 km/h (0 Bft) N 0 0 min 0,0 UV-I 0 W/m 0,1 C 1,3 C 0,0 km/h (0 Bft)
24.02.2023 03:45 1,3 C 0,6 C 92 % 1014,2 hPa 0,0 l/m 0,0 km/h (0 Bft) N 0 0 min 0,0 UV-I 0 W/m 0,1 C 1,3 C 0,0 km/h (0 Bft)
24.02.2023 03:46 1,3 C 0,6 C 92 % 1014,1 hPa 0,0 l/m 0,0 km/h (0 Bft) N 0 0 min 0,0 UV-I 0 W/m 0,1 C 1,3 C 0,0 km/h (0 Bft)
24.02.2023 03:47 1,3 C 0,6 C 92 % 1014,2 hPa 0,0 l/m 0,0 km/h (0 Bft) N 0 0 min 0,0 UV-I 0 W/m 0,1 C 1,3 C 0,0 km/h (0 Bft)
24.02.2023 03:48 1,4 C 0,6 C 92 % 1014,1 hPa 0,0 l/m 0,0 km/h (0 Bft) N 0 0 min 0,0 UV-I 0 W/m 0,2 C 1,4 C 0,0 km/h (0 Bft)
24.02.2023 03:49 1,4 C 1,1 C 92 % 1014,2 hPa 0,0 l/m 0,0 km/h (0 Bft) N 0 0 min 0,0 UV-I 0 W/m 0,2 C 1,4 C 0,0 km/h (0 Bft)
24.02.2023 03:50 1,4 C 1,1 C 92 % 1014,0 hPa 0,0 l/m 0,0 km/h (0 Bft) N 0 0 min 0,0 UV-I 0 W/m 0,2 C 1,4 C 0,0 km/h (0 Bft)
24.02.2023 03:51 1,5 C 1,1 C 92 % 1014,1 hPa 0,0 l/m 0,0 km/h (0 Bft) N 0 0 min 0,0 UV-I 0 W/m 0,3 C 1,5 C 0,0 km/h (0 Bft)
24.02.2023 03:52 1,5 C 1,1 C 92 % 1014,1 hPa 0,0 l/m 0,0 km/h (0 Bft) N 0 0 min 0,0 UV-I 0 W/m 0,3 C 1,5 C 0,0 km/h (0 Bft)
24.02.2023 03:53 1,5 C 1,1 C 92 % 1014,0 hPa 0,0 l/m 0,0 km/h (0 Bft) N 0 0 min 0,0 UV-I 0 W/m 0,3 C 1,5 C 0,0 km/h (0 Bft)
24.02.2023 03:54 1,6 C 1,1 C 92 % 1014,1 hPa 0,0 l/m 0,0 km/h (0 Bft) N 0 0 min 0,0 UV-I 0 W/m 0,4 C 1,6 C 0,0 km/h (0 Bft)
24.02.2023 03:55 1,6 C 1,1 C 92 % 1014,1 hPa 0,0 l/m 0,0 km/h (0 Bft) N 0 0 min 0,0 UV-I 0 W/m 0,4 C 1,6 C 0,0 km/h (0 Bft)
24.02.2023 03:56 1,6 C 1,1 C 92 % 1014,0 hPa 0,0 l/m 0,0 km/h (0 Bft) N 0 0 min 0,0 UV-I 0 W/m 0,4 C 1,6 C 0,0 km/h (0 Bft)
24.02.2023 03:57 1,6 C 1,1 C 92 % 1014,0 hPa 0,0 l/m 0,0 km/h (0 Bft) N 0 0 min 0,0 UV-I 0 W/m 0,4 C 1,6 C 0,0 km/h (0 Bft)
24.02.2023 03:58 1,6 C 1,1 C 92 % 1014,0 hPa 0,0 l/m 0,0 km/h (0 Bft) N 0 0 min 0,0 UV-I 0 W/m 0,4 C 1,6 C 0,0 km/h (0 Bft)
24.02.2023 03:59 1,6 C 1,1 C 92 % 1013,9 hPa 0,0 l/m 0,0 km/h (0 Bft) N 0 0 min 0,0 UV-I 0 W/m 0,4 C 1,6 C 0,0 km/h (0 Bft)
24.02.2023 04:00 1,7 C 1,1 C 92 % 1014,0 hPa 0,0 l/m 0,0 km/h (0 Bft) N 0 0 min 0,0 UV-I 0 W/m 0,5 C 1,7 C 0,0 km/h (0 Bft)
24.02.2023 04:01 1,7 C 1,1 C 92 % 1013,9 hPa 0,0 l/m 0,0 km/h (0 Bft) N 0 0 min 0,0 UV-I 0 W/m 0,5 C 1,7 C 0,0 km/h (0 Bft)
24.02.2023 04:02 1,7 C 1,1 C 92 % 1013,9 hPa 0,0 l/m 0,0 km/h (0 Bft) N 0 0 min 0,0 UV-I 0 W/m 0,5 C 1,7 C 0,0 km/h (0 Bft)
24.02.2023 04:03 1,7 C 1,1 C 92 % 1014,0 hPa 0,0 l/m 0,0 km/h (0 Bft) N 0 0 min 0,0 UV-I 0 W/m 0,5 C 1,7 C 0,0 km/h (0 Bft)
24.02.2023 04:04 1,7 C 1,1 C 92 % 1013,9 hPa 0,0 l/m 0,0 km/h (0 Bft) N 0 0 min 0,0 UV-I 0 W/m 0,5 C 1,7 C 0,0 km/h (0 Bft)
24.02.2023 04:05 1,7 C 1,1 C 92 % 1013,9 hPa 0,0 l/m 0,0 km/h (0 Bft) N 0 0 min 0,0 UV-I 0 W/m 0,5 C 1,7 C 0,0 km/h (0 Bft)
24.02.2023 04:06 1,8 C 1,1 C 92 % 1013,9 hPa 0,0 l/m 0,0 km/h (0 Bft) N 0 0 min 0,0 UV-I 0 W/m 0,6 C 1,8 C 0,0 km/h (0 Bft)
24.02.2023 04:07 1,8 C 1,1 C 92 % 1013,8 hPa 0,0 l/m 0,0 km/h (0 Bft) N 0 0 min 0,0 UV-I 0 W/m 0,6 C 1,8 C 0,0 km/h (0 Bft)
24.02.2023 04:08 1,8 C 1,1 C 92 % 1013,9 hPa 0,0 l/m 0,0 km/h (0 Bft) N 0 0 min 0,0 UV-I 0 W/m 0,6 C 1,8 C 0,0 km/h (0 Bft)
24.02.2023 04:09 1,8 C 1,1 C 92 % 1013,9 hPa 0,0 l/m 0,0 km/h (0 Bft) N 0 0 min 0,0 UV-I 0 W/m 0,6 C 1,8 C 0,0 km/h (0 Bft)
24.02.2023 04:10 1,8 C 1,1 C 92 % 1013,8 hPa 0,0 l/m 0,0 km/h (0 Bft) N 0 0 min 0,0 UV-I 0 W/m 0,6 C 1,8 C 0,0 km/h (0 Bft)
24.02.2023 04:11 1,8 C 1,1 C 92 % 1013,7 hPa 0,0 l/m 0,0 km/h (0 Bft) N 0 0 min 0,0 UV-I 0 W/m 0,6 C 1,8 C 0,0 km/h (0 Bft)
24.02.2023 04:12 1,7 C 1,1 C 92 % 1013,8 hPa 0,0 l/m 0,0 km/h (0 Bft) N 0 0 min 0,0 UV-I 0 W/m 0,5 C 1,7 C 0,0 km/h (0 Bft)
24.02.2023 04:13 1,7 C 1,1 C 92 % 1013,8 hPa 0,0 l/m 0,0 km/h (0 Bft) N 0 0 min 0,0 UV-I 0 W/m 0,5 C 1,7 C 0,0 km/h (0 Bft)
24.02.2023 04:14 1,7 C 1,1 C 92 % 1013,9 hPa 0,0 l/m 0,0 km/h (0 Bft) N 0 0 min 0,0 UV-I 0 W/m 0,5 C 1,7 C 0,0 km/h (0 Bft)
24.02.2023 04:15 1,7 C 1,1 C 92 % 1013,8 hPa 0,0 l/m 0,0 km/h (0 Bft) N 0 0 min 0,0 UV-I 0 W/m 0,5 C 1,7 C 0,0 km/h (0 Bft)
24.02.2023 04:16 1,7 C 1,1 C 92 % 1013,7 hPa 0,0 l/m 0,0 km/h (0 Bft) N 0 0 min 0,0 UV-I 0 W/m 0,5 C 1,7 C 0,0 km/h (0 Bft)
24.02.2023 04:17 1,8 C 1,1 C 92 % 1013,8 hPa 0,0 l/m 0,0 km/h (0 Bft) N 0 0 min 0,0 UV-I 0 W/m 0,6 C 1,8 C 0,0 km/h (0 Bft)
24.02.2023 04:18 1,7 C 1,1 C 92 % 1013,8 hPa 0,0 l/m 0,0 km/h (0 Bft) N 0 0 min 0,0 UV-I 0 W/m 0,5 C 1,7 C 0,0 km/h (0 Bft)
24.02.2023 04:19 1,8 C 1,1 C 92 % 1013,8 hPa 0,0 l/m 0,0 km/h (0 Bft) N 0 0 min 0,0 UV-I 0 W/m 0,6 C 1,8 C 0,0 km/h (0 Bft)
24.02.2023 04:20 1,8 C 1,1 C 92 % 1013,8 hPa 0,0 l/m 0,0 km/h (0 Bft) N 0 0 min 0,0 UV-I 0 W/m 0,6 C 1,8 C 0,0 km/h (0 Bft)
24.02.2023 04:21 1,8 C 1,1 C 92 % 1013,7 hPa 0,0 l/m 0,0 km/h (0 Bft) N 0 0 min 0,0 UV-I 0 W/m 0,6 C 1,8 C 0,0 km/h (0 Bft)
24.02.2023 04:22 1,8 C 1,7 C 92 % 1013,7 hPa 0,0 l/m 0,0 km/h (0 Bft) N 0 0 min 0,0 UV-I 0 W/m 0,6 C 1,8 C 0,0 km/h (0 Bft)
24.02.2023 04:23 1,8 C 1,1 C 92 % 1013,7 hPa 0,0 l/m 0,0 km/h (0 Bft) N 0 0 min 0,0 UV-I 0 W/m 0,6 C 1,8 C 0,0 km/h (0 Bft)
24.02.2023 04:24 1,7 C 1,1 C 92 % 1013,7 hPa 0,0 l/m 0,0 km/h (0 Bft) N 0 0 min 0,0 UV-I 0 W/m 0,5 C 1,7 C 0,0 km/h (0 Bft)
24.02.2023 04:25 1,7 C 1,1 C 92 % 1013,6 hPa 0,0 l/m 0,0 km/h (0 Bft) N 0 0 min 0,0 UV-I 0 W/m 0,5 C 1,7 C 0,0 km/h (0 Bft)
24.02.2023 04:26 1,7 C 1,1 C 92 % 1013,7 hPa 0,0 l/m 0,0 km/h (0 Bft) N 0 0 min 0,0 UV-I 0 W/m 0,5 C 1,7 C 0,0 km/h (0 Bft)
24.02.2023 04:27 1,6 C 1,1 C 92 % 1013,6 hPa 0,0 l/m 0,0 km/h (0 Bft) N 0 0 min 0,0 UV-I 0 W/m 0,4 C 1,6 C 0,0 km/h (0 Bft)
24.02.2023 04:28 1,6 C 1,1 C 92 % 1013,5 hPa 0,0 l/m 0,0 km/h (0 Bft) N 0 0 min 0,0 UV-I 0 W/m 0,4 C 1,6 C 0,0 km/h (0 Bft)
24.02.2023 04:29 1,6 C 1,1 C 92 % 1013,5 hPa 0,0 l/m 0,0 km/h (0 Bft) N 0 0 min 0,0 UV-I 0 W/m 0,4 C 1,6 C 0,0 km/h (0 Bft)
24.02.2023 04:30 1,6 C 1,1 C 92 % 1013,5 hPa 0,0 l/m 0,0 km/h (0 Bft) N 0 0 min 0,0 UV-I 0 W/m 0,4 C 1,6 C 0,0 km/h (0 Bft)
24.02.2023 04:31 1,6 C 1,1 C 92 % 1013,4 hPa 0,0 l/m 0,0 km/h (0 Bft) N 0 0 min 0,0 UV-I 0 W/m 0,4 C 1,6 C 0,0 km/h (0 Bft)
24.02.2023 04:32 1,6 C 1,1 C 92 % 1013,5 hPa 0,0 l/m 0,0 km/h (0 Bft) N 0 0 min 0,0 UV-I 0 W/m 0,4 C 1,6 C 0,0 km/h (0 Bft)
24.02.2023 04:33 1,6 C 1,1 C 92 % 1013,4 hPa 0,0 l/m 0,0 km/h (0 Bft) N 0 0 min 0,0 UV-I 0 W/m 0,4 C 1,6 C 0,0 km/h (0 Bft)
24.02.2023 04:34 1,6 C 1,7 C 92 % 1013,4 hPa 0,0 l/m 0,0 km/h (0 Bft) NW 315 0 min 0,0 UV-I 0 W/m 0,4 C 1,6 C 1,6 km/h (1 Bft)
24.02.2023 04:35 1,7 C 1,1 C 92 % 1013,4 hPa 0,0 l/m 0,0 km/h (0 Bft) NW 315 0 min 0,0 UV-I 0 W/m 0,5 C 1,7 C 3,2 km/h (1 Bft)
24.02.2023 04:36 1,7 C 1,1 C 92 % 1013,4 hPa 0,0 l/m 0,0 km/h (0 Bft) NW 315 0 min 0,0 UV-I 0 W/m 0,5 C 1,7 C 1,6 km/h (1 Bft)
24.02.2023 04:37 1,7 C 1,1 C 92 % 1013,5 hPa 0,0 l/m 0,0 km/h (0 Bft) N 0 0 min 0,0 UV-I 0 W/m 0,5 C 1,7 C 0,0 km/h (0 Bft)
24.02.2023 04:38 1,7 C 1,1 C 92 % 1013,4 hPa 0,0 l/m 0,0 km/h (0 Bft) N 0 0 min 0,0 UV-I 0 W/m 0,5 C 1,7 C 0,0 km/h (0 Bft)
24.02.2023 04:39 1,8 C 1,1 C 92 % 1013,5 hPa 0,0 l/m 0,0 km/h (0 Bft) N 0 0 min 0,0 UV-I 0 W/m 0,6 C 1,8 C 0,0 km/h (0 Bft)
24.02.2023 04:40 1,8 C 1,1 C 92 % 1013,4 hPa 0,0 l/m 0,0 km/h (0 Bft) N 0 0 min 0,0 UV-I 0 W/m 0,6 C 1,8 C 0,0 km/h (0 Bft)
24.02.2023 04:41 1,8 C 1,1 C 92 % 1013,4 hPa 0,0 l/m 0,0 km/h (0 Bft) N 0 0 min 0,0 UV-I 0 W/m 0,6 C 1,8 C 0,0 km/h (0 Bft)
24.02.2023 04:42 1,8 C 1,1 C 92 % 1013,4 hPa 0,0 l/m 0,0 km/h (0 Bft) N 0 0 min 0,0 UV-I 0 W/m 0,6 C 1,8 C 0,0 km/h (0 Bft)
24.02.2023 04:43 1,8 C 1,1 C 92 % 1013,4 hPa 0,0 l/m 0,0 km/h (0 Bft) N 0 0 min 0,0 UV-I 0 W/m 0,6 C 1,8 C 0,0 km/h (0 Bft)
24.02.2023 04:44 1,8 C 1,1 C 92 % 1013,4 hPa 0,0 l/m 0,0 km/h (0 Bft) N 0 0 min 0,0 UV-I 0 W/m 0,6 C 1,8 C 0,0 km/h (0 Bft)
24.02.2023 04:45 1,9 C 1,1 C 92 % 1013,3 hPa 0,0 l/m 0,0 km/h (0 Bft) N 0 0 min 0,0 UV-I 0 W/m 0,7 C 1,9 C 0,0 km/h (0 Bft)
24.02.2023 04:46 1,9 C 1,7 C 93 % 1013,4 hPa 0,0 l/m 0,0 km/h (0 Bft) NW 315 0 min 0,0 UV-I 0 W/m 0,9 C 1,9 C 1,6 km/h (1 Bft)
24.02.2023 04:47 1,9 C 1,7 C 93 % 1013,4 hPa 0,0 l/m 0,0 km/h (0 Bft) NW 315 0 min 0,0 UV-I 0 W/m 0,9 C 1,9 C 1,6 km/h (1 Bft)
24.02.2023 04:48 1,9 C 1,7 C 93 % 1013,4 hPa 0,0 l/m 0,0 km/h (0 Bft) NW 315 0 min 0,0 UV-I 0 W/m 0,9 C 1,9 C 1,6 km/h (1 Bft)
24.02.2023 04:49 2,0 C 1,7 C 93 % 1013,4 hPa 0,0 l/m 0,0 km/h (0 Bft) N 0 0 min 0,0 UV-I 0 W/m 1,0 C 2,0 C 0,0 km/h (0 Bft)
24.02.2023 04:50 1,9 C 1,7 C 93 % 1013,3 hPa 0,0 l/m 0,0 km/h (0 Bft) N 0 0 min 0,0 UV-I 0 W/m 0,9 C 1,9 C 0,0 km/h (0 Bft)
24.02.2023 04:51 2,0 C 1,7 C 93 % 1013,3 hPa 0,0 l/m 0,0 km/h (0 Bft) N 0 0 min 0,0 UV-I 0 W/m 1,0 C 2,0 C 0,0 km/h (0 Bft)
24.02.2023 04:52 1,9 C 1,7 C 93 % 1013,3 hPa 0,0 l/m 0,0 km/h (0 Bft) N 0 0 min 0,0 UV-I 0 W/m 0,9 C 1,9 C 0,0 km/h (0 Bft)
24.02.2023 04:53 1,9 C 1,7 C 93 % 1013,3 hPa 0,0 l/m 0,0 km/h (0 Bft) N 0 0 min 0,0 UV-I 0 W/m 0,9 C 1,9 C 0,0 km/h (0 Bft)
24.02.2023 04:54 1,9 C 1,7 C 93 % 1013,3 hPa 0,0 l/m 0,0 km/h (0 Bft) N 0 0 min 0,0 UV-I 0 W/m 0,9 C 1,9 C 0,0 km/h (0 Bft)
24.02.2023 04:55 2,0 C 1,7 C 93 % 1013,2 hPa 0,0 l/m 0,0 km/h (0 Bft) N 0 0 min 0,0 UV-I 0 W/m 1,0 C 2,0 C 0,0 km/h (0 Bft)
24.02.2023 04:56 2,0 C 1,7 C 93 % 1013,3 hPa 0,0 l/m 0,0 km/h (0 Bft) N 0 0 min 0,0 UV-I 0 W/m 1,0 C 2,0 C 0,0 km/h (0 Bft)
24.02.2023 04:57 2,1 C 1,7 C 93 % 1013,2 hPa 0,0 l/m 0,0 km/h (0 Bft) N 0 0 min 0,0 UV-I 0 W/m 1,1 C 2,1 C 0,0 km/h (0 Bft)
24.02.2023 04:58 2,1 C 1,7 C 93 % 1013,2 hPa 0,0 l/m 0,0 km/h (0 Bft) N 0 0 min 0,0 UV-I 0 W/m 1,1 C 2,1 C 0,0 km/h (0 Bft)
24.02.2023 04:59 2,1 C 1,7 C 93 % 1013,2 hPa 0,0 l/m 0,0 km/h (0 Bft) N 0 0 min 0,0 UV-I 0 W/m 1,1 C 2,1 C 0,0 km/h (0 Bft)
24.02.2023 05:00 2,1 C 1,7 C 93 % 1013,2 hPa 0,0 l/m 0,0 km/h (0 Bft) N 0 0 min 0,0 UV-I 0 W/m 1,1 C 2,1 C 0,0 km/h (0 Bft)
24.02.2023 05:01 2,1 C 1,7 C 92 % 1013,2 hPa 0,0 l/m 0,0 km/h (0 Bft) N 0 0 min 0,0 UV-I 0 W/m 0,9 C 2,1 C 0,0 km/h (0 Bft)
24.02.2023 05:02 2,1 C 1,7 C 92 % 1013,2 hPa 0,0 l/m 0,0 km/h (0 Bft) N 0 0 min 0,0 UV-I 0 W/m 0,9 C 2,1 C 0,0 km/h (0 Bft)
24.02.2023 05:03 2,1 C 1,7 C 92 % 1013,2 hPa 0,0 l/m 0,0 km/h (0 Bft) N 0 0 min 0,0 UV-I 0 W/m 0,9 C 2,1 C 0,0 km/h (0 Bft)
24.02.2023 05:04 2,1 C 1,7 C 92 % 1013,1 hPa 0,0 l/m 0,0 km/h (0 Bft) N 0 0 min 0,0 UV-I 0 W/m 0,9 C 2,1 C 0,0 km/h (0 Bft)
24.02.2023 05:05 2,1 C 1,7 C 93 % 1013,2 hPa 0,0 l/m 0,0 km/h (0 Bft) N 0 0 min 0,0 UV-I 0 W/m 1,1 C 2,1 C 0,0 km/h (0 Bft)
24.02.2023 05:06 2,1 C 1,7 C 92 % 1013,2 hPa 0,0 l/m 0,0 km/h (0 Bft) N 0 0 min 0,0 UV-I 0 W/m 0,9 C 2,1 C 0,0 km/h (0 Bft)
24.02.2023 05:07 2,1 C 1,7 C 92 % 1013,2 hPa 0,0 l/m 0,0 km/h (0 Bft) N 0 0 min 0,0 UV-I 0 W/m 0,9 C 2,1 C 0,0 km/h (0 Bft)
24.02.2023 05:08 2,1 C 1,7 C 92 % 1013,2 hPa 0,0 l/m 0,0 km/h (0 Bft) N 0 0 min 0,0 UV-I 0 W/m 0,9 C 2,1 C 0,0 km/h (0 Bft)
24.02.2023 05:09 2,1 C 1,7 C 92 % 1013,1 hPa 0,0 l/m 0,0 km/h (0 Bft) N 0 0 min 0,0 UV-I 0 W/m 0,9 C 2,1 C 0,0 km/h (0 Bft)
24.02.2023 05:10 2,1 C 1,7 C 92 % 1013,2 hPa 0,0 l/m 0,0 km/h (0 Bft) N 0 0 min 0,0 UV-I 0 W/m 0,9 C 2,1 C 0,0 km/h (0 Bft)
24.02.2023 05:11 2,1 C 1,7 C 92 % 1013,3 hPa 0,0 l/m 0,0 km/h (0 Bft) N 0 0 min 0,0 UV-I 0 W/m 0,9 C 2,1 C 0,0 km/h (0 Bft)
24.02.2023 05:12 2,1 C 1,7 C 92 % 1013,2 hPa 0,0 l/m 0,0 km/h (0 Bft) N 0 0 min 0,0 UV-I 0 W/m 0,9 C 2,1 C 0,0 km/h (0 Bft)
24.02.2023 05:13 2,1 C 1,7 C 92 % 1013,2 hPa 0,0 l/m 0,0 km/h (0 Bft) N 0 0 min 0,0 UV-I 0 W/m 0,9 C 2,1 C 0,0 km/h (0 Bft)
24.02.2023 05:14 2,1 C 1,7 C 92 % 1013,2 hPa 0,0 l/m 0,0 km/h (0 Bft) N 0 0 min 0,0 UV-I 0 W/m 0,9 C 2,1 C 0,0 km/h (0 Bft)
24.02.2023 05:15 2,1 C 1,7 C 92 % 1013,3 hPa 0,0 l/m 0,0 km/h (0 Bft) N 0 0 min 0,0 UV-I 0 W/m 0,9 C 2,1 C 0,0 km/h (0 Bft)
24.02.2023 05:16 2,1 C 1,7 C 92 % 1013,2 hPa 0,0 l/m 0,0 km/h (0 Bft) NW 315 0 min 0,0 UV-I 0 W/m 0,9 C 2,1 C 1,6 km/h (1 Bft)
24.02.2023 05:17 2,2 C 1,7 C 93 % 1013,2 hPa 0,0 l/m 1,6 km/h (1 Bft) NW 315 0 min 0,0 UV-I 0 W/m 1,2 C 2,2 C 4,8 km/h (1 Bft)
24.02.2023 05:18 2,2 C 1,7 C 93 % 1013,2 hPa 0,0 l/m 3,2 km/h (1 Bft) NW 315 0 min 0,0 UV-I 0 W/m 1,2 C 2,2 C 3,2 km/h (1 Bft)
24.02.2023 05:19 2,3 C 1,7 C 93 % 1013,2 hPa 0,0 l/m 3,2 km/h (1 Bft) NW 315 0 min 0,0 UV-I 0 W/m 1,3 C 2,3 C 6,4 km/h (2 Bft)
24.02.2023 05:20 2,3 C 1,7 C 93 % 1013,3 hPa 0,0 l/m 4,8 km/h (1 Bft) NW 315 0 min 0,0 UV-I 0 W/m 1,3 C 2,3 C 8,0 km/h (2 Bft)
24.02.2023 05:21 2,4 C 2,2 C 93 % 1013,2 hPa 0,0 l/m 0,0 km/h (0 Bft) NW 315 0 min 0,0 UV-I 0 W/m 1,4 C 2,4 C 3,2 km/h (1 Bft)
24.02.2023 05:22 2,4 C 2,2 C 93 % 1013,3 hPa 0,0 l/m 0,0 km/h (0 Bft) N 0 0 min 0,0 UV-I 0 W/m 1,4 C 2,4 C 0,0 km/h (0 Bft)
24.02.2023 05:23 2,4 C 2,2 C 93 % 1013,3 hPa 0,0 l/m 0,0 km/h (0 Bft) N 0 0 min 0,0 UV-I 0 W/m 1,4 C 2,4 C 0,0 km/h (0 Bft)
24.02.2023 05:24 2,4 C 2,2 C 93 % 1013,3 hPa 0,0 l/m 1,6 km/h (1 Bft) NW 315 0 min 0,0 UV-I 0 W/m 1,4 C 2,4 C 4,8 km/h (1 Bft)
24.02.2023 05:25 2,5 C 2,2 C 93 % 1013,3 hPa 0,0 l/m 1,6 km/h (1 Bft) NW 315 0 min 0,0 UV-I 0 W/m 1,5 C 2,5 C 4,8 km/h (1 Bft)
24.02.2023 05:26 2,5 C 2,2 C 93 % 1013,2 hPa 0,0 l/m 1,6 km/h (1 Bft) NW 315 0 min 0,0 UV-I 0 W/m 1,5 C 2,5 C 3,2 km/h (1 Bft)
24.02.2023 05:27 2,5 C 2,2 C 93 % 1013,2 hPa 0,0 l/m 0,0 km/h (0 Bft) NW 315 0 min 0,0 UV-I 0 W/m 1,5 C 2,5 C 1,6 km/h (1 Bft)
24.02.2023 05:28 2,5 C 2,2 C 93 % 1013,2 hPa 0,0 l/m 3,2 km/h (1 Bft) NW 315 0 min 0,0 UV-I 0 W/m 1,5 C 2,5 C 4,8 km/h (1 Bft)
24.02.2023 05:29 2,4 C 1,7 C 92 % 1013,2 hPa 0,0 l/m 3,2 km/h (1 Bft) NW 315 0 min 0,0 UV-I 0 W/m 1,2 C 2,4 C 4,8 km/h (1 Bft)
24.02.2023 05:30 2,4 C 1,7 C 92 % 1013,2 hPa 0,0 l/m 1,6 km/h (1 Bft) NW 315 0 min 0,0 UV-I 0 W/m 1,2 C 2,4 C 3,2 km/h (1 Bft)
24.02.2023 05:31 2,4 C 1,7 C 92 % 1013,2 hPa 0,0 l/m 1,6 km/h (1 Bft) NW 315 0 min 0,0 UV-I 0 W/m 1,2 C 2,4 C 3,2 km/h (1 Bft)
24.02.2023 05:32 2,4 C 1,7 C 92 % 1013,2 hPa 0,0 l/m 1,6 km/h (1 Bft) NW 315 0 min 0,0 UV-I 0 W/m 1,2 C 2,4 C 1,6 km/h (1 Bft)
24.02.2023 05:33 2,4 C 1,7 C 93 % 1013,2 hPa 0,0 l/m 1,6 km/h (1 Bft) NW 315 0 min 0,0 UV-I 0 W/m 1,4 C 2,4 C 3,2 km/h (1 Bft)
24.02.2023 05:34 2,4 C 1,7 C 93 % 1013,1 hPa 0,0 l/m 0,0 km/h (0 Bft) NW 315 0 min 0,0 UV-I 0 W/m 1,4 C 2,4 C 3,2 km/h (1 Bft)
24.02.2023 05:35 2,4 C 1,7 C 93 % 1013,1 hPa 0,0 l/m 3,2 km/h (1 Bft) NW 315 0 min 0,0 UV-I 0 W/m 1,4 C 2,4 C 4,8 km/h (1 Bft)
24.02.2023 05:36 2,4 C 1,7 C 93 % 1013,1 hPa 0,0 l/m 1,6 km/h (1 Bft) NW 315 0 min 0,0 UV-I 0 W/m 1,4 C 2,4 C 3,2 km/h (1 Bft)
24.02.2023 05:37 2,4 C 1,7 C 93 % 1013,1 hPa 0,0 l/m 1,6 km/h (1 Bft) NW 315 0 min 0,0 UV-I 0 W/m 1,4 C 2,4 C 1,6 km/h (1 Bft)
24.02.2023 05:38 2,4 C 1,7 C 92 % 1013,1 hPa 0,0 l/m 0,0 km/h (0 Bft) NW 315 0 min 0,0 UV-I 0 W/m 1,2 C 2,4 C 3,2 km/h (1 Bft)
24.02.2023 05:39 2,4 C 1,7 C 92 % 1013,1 hPa 0,0 l/m 0,0 km/h (0 Bft) NW 315 0 min 0,0 UV-I 0 W/m 1,2 C 2,4 C 1,6 km/h (1 Bft)
24.02.2023 05:40 2,4 C 1,7 C 92 % 1013,0 hPa 0,0 l/m 0,0 km/h (0 Bft) N 0 0 min 0,0 UV-I 0 W/m 1,2 C 2,4 C 0,0 km/h (0 Bft)
24.02.2023 05:41 2,3 C 1,7 C 92 % 1013,1 hPa 0,0 l/m 1,6 km/h (1 Bft) NW 315 0 min 0,0 UV-I 0 W/m 1,1 C 2,3 C 3,2 km/h (1 Bft)
24.02.2023 05:42 2,3 C 1,7 C 92 % 1012,9 hPa 0,0 l/m 4,8 km/h (1 Bft) NW 315 0 min 0,0 UV-I 0 W/m 1,1 C 2,3 C 6,4 km/h (2 Bft)
24.02.2023 05:43 2,3 C 1,1 C 92 % 1013,0 hPa 0,0 l/m 3,2 km/h (1 Bft) W-NW 292 0 min 0,0 UV-I 0 W/m 1,1 C 2,3 C 4,8 km/h (1 Bft)
24.02.2023 05:44 2,3 C 1,1 C 92 % 1012,9 hPa 0,0 l/m 4,8 km/h (1 Bft) W-NW 292 0 min 0,0 UV-I 0 W/m 1,1 C 2,3 C 6,4 km/h (2 Bft)
24.02.2023 05:45 2,2 C 1,1 C 92 % 1012,9 hPa 0,0 l/m 3,2 km/h (1 Bft) W-NW 292 0 min 0,0 UV-I 0 W/m 1,0 C 2,2 C 4,8 km/h (1 Bft)
24.02.2023 05:46 2,2 C 1,1 C 92 % 1012,9 hPa 0,0 l/m 4,8 km/h (1 Bft) W-NW 292 0 min 0,0 UV-I 0 W/m 1,0 C 2,2 C 4,8 km/h (1 Bft)
24.02.2023 05:47 2,2 C 1,1 C 92 % 1012,9 hPa 0,0 l/m 3,2 km/h (1 Bft) W-NW 292 0 min 0,0 UV-I 0 W/m 1,0 C 2,2 C 4,8 km/h (1 Bft)
24.02.2023 05:48 2,2 C 1,1 C 92 % 1013,0 hPa 0,0 l/m 1,6 km/h (1 Bft) W-NW 292 0 min 0,0 UV-I 0 W/m 1,0 C 2,2 C 3,2 km/h (1 Bft)
24.02.2023 05:49 2,2 C 1,1 C 92 % 1012,9 hPa 0,0 l/m 1,6 km/h (1 Bft) W-NW 292 0 min 0,0 UV-I 0 W/m 1,0 C 2,2 C 3,2 km/h (1 Bft)
24.02.2023 05:50 2,2 C 1,1 C 92 % 1012,8 hPa 0,0 l/m 1,6 km/h (1 Bft) W-NW 292 0 min 0,0 UV-I 0 W/m 1,0 C 2,2 C 1,6 km/h (1 Bft)
24.02.2023 05:51 2,1 C 1,1 C 92 % 1012,8 hPa 0,0 l/m 0,0 km/h (0 Bft) W-NW 292 0 min 0,0 UV-I 0 W/m 0,9 C 2,1 C 1,6 km/h (1 Bft)
24.02.2023 05:52 2,1 C 1,1 C 92 % 1012,9 hPa 0,0 l/m 0,0 km/h (0 Bft) N 0 0 min 0,0 UV-I 0 W/m 0,9 C 2,1 C 0,0 km/h (0 Bft)
24.02.2023 05:53 2,1 C 1,1 C 92 % 1012,8 hPa 0,0 l/m 0,0 km/h (0 Bft) N 0 0 min 0,0 UV-I 0 W/m 0,9 C 2,1 C 0,0 km/h (0 Bft)
24.02.2023 05:54 2,2 C 1,1 C 92 % 1012,8 hPa 0,0 l/m 0,0 km/h (0 Bft) N 0 0 min 0,0 UV-I 0 W/m 1,0 C 2,2 C 0,0 km/h (0 Bft)
24.02.2023 05:55 2,1 C 1,1 C 92 % 1012,9 hPa 0,0 l/m 0,0 km/h (0 Bft) N 0 0 min 0,0 UV-I 0 W/m 0,9 C 2,1 C 0,0 km/h (0 Bft)
24.02.2023 05:56 2,1 C 1,1 C 92 % 1012,8 hPa 0,0 l/m 0,0 km/h (0 Bft) N 0 0 min 0,0 UV-I 0 W/m 0,9 C 2,1 C 0,0 km/h (0 Bft)
24.02.2023 05:57 2,1 C 1,1 C 92 % 1012,9 hPa 0,0 l/m 0,0 km/h (0 Bft) W-NW 292 0 min 0,0 UV-I 0 W/m 0,9 C 2,1 C 1,6 km/h (1 Bft)
24.02.2023 05:58 2,2 C 1,1 C 92 % 1012,8 hPa 0,0 l/m 0,0 km/h (0 Bft) W-NW 292 0 min 0,0 UV-I 0 W/m 1,0 C 2,2 C 1,6 km/h (1 Bft)
24.02.2023 05:59 2,2 C 1,1 C 92 % 1012,8 hPa 0,0 l/m 0,0 km/h (0 Bft) W-NW 292 0 min 0,0 UV-I 0 W/m 1,0 C 2,2 C 1,6 km/h (1 Bft)
24.02.2023 06:00 2,2 C 1,1 C 93 % 1012,8 hPa 0,0 l/m 0,0 km/h (0 Bft) N 0 0 min 0,0 UV-I 0 W/m 1,2 C 2,2 C 0,0 km/h (0 Bft)
24.02.2023 06:01 2,2 C 1,1 C 93 % 1012,8 hPa 0,0 l/m 0,0 km/h (0 Bft) W-NW 292 0 min 0,0 UV-I 0 W/m 1,2 C 2,2 C 1,6 km/h (1 Bft)
24.02.2023 06:02 2,2 C 1,1 C 92 % 1012,9 hPa 0,0 l/m 0,0 km/h (0 Bft) N 0 0 min 0,0 UV-I 0 W/m 1,0 C 2,2 C 0,0 km/h (0 Bft)
24.02.2023 06:03 2,2 C 1,1 C 92 % 1012,9 hPa 0,0 l/m 0,0 km/h (0 Bft) W-NW 292 0 min 0,0 UV-I 0 W/m 1,0 C 2,2 C 1,6 km/h (1 Bft)
24.02.2023 06:04 2,2 C 1,1 C 93 % 1012,8 hPa 0,0 l/m 0,0 km/h (0 Bft) N 0 0 min 0,0 UV-I 0 W/m 1,2 C 2,2 C 0,0 km/h (0 Bft)
24.02.2023 06:05 2,2 C 1,1 C 93 % 1012,8 hPa 0,0 l/m 0,0 km/h (0 Bft) N 0 0 min 0,0 UV-I 0 W/m 1,2 C 2,2 C 0,0 km/h (0 Bft)
24.02.2023 06:06 2,3 C 1,1 C 93 % 1012,8 hPa 0,0 l/m 0,0 km/h (0 Bft) N 0 0 min 0,0 UV-I 0 W/m 1,3 C 2,3 C 0,0 km/h (0 Bft)
24.02.2023 06:07 2,3 C 1,1 C 93 % 1012,7 hPa 0,0 l/m 0,0 km/h (0 Bft) N 0 0 min 0,0 UV-I 0 W/m 1,3 C 2,3 C 0,0 km/h (0 Bft)
24.02.2023 06:08 2,3 C 1,1 C 93 % 1012,7 hPa 0,0 l/m 0,0 km/h (0 Bft) N 0 0 min 0,0 UV-I 0 W/m 1,3 C 2,3 C 0,0 km/h (0 Bft)
24.02.2023 06:09 2,3 C 1,1 C 93 % 1012,7 hPa 0,0 l/m 0,0 km/h (0 Bft) N 0 0 min 0,0 UV-I 0 W/m 1,3 C 2,3 C 0,0 km/h (0 Bft)
24.02.2023 06:10 2,3 C 1,1 C 93 % 1012,8 hPa 0,0 l/m 0,0 km/h (0 Bft) N 0 0 min 0,0 UV-I 0 W/m 1,3 C 2,3 C 0,0 km/h (0 Bft)
24.02.2023 06:11 2,3 C 1,1 C 93 % 1012,8 hPa 0,0 l/m 0,0 km/h (0 Bft) N 0 0 min 0,0 UV-I 0 W/m 1,3 C 2,3 C 0,0 km/h (0 Bft)
24.02.2023 06:12 2,3 C 1,1 C 93 % 1012,7 hPa 0,0 l/m 0,0 km/h (0 Bft) N 0 0 min 0,0 UV-I 0 W/m 1,3 C 2,3 C 0,0 km/h (0 Bft)
24.02.2023 06:13 2,2 C 1,1 C 93 % 1012,8 hPa 0,0 l/m 0,0 km/h (0 Bft) N 0 0 min 0,0 UV-I 0 W/m 1,2 C 2,2 C 0,0 km/h (0 Bft)
24.02.2023 06:14 2,2 C 1,1 C 93 % 1012,7 hPa 0,0 l/m 0,0 km/h (0 Bft) N 0 0 min 0,0 UV-I 0 W/m 1,2 C 2,2 C 0,0 km/h (0 Bft)
24.02.2023 06:15 2,2 C 1,1 C 92 % 1012,7 hPa 0,0 l/m 0,0 km/h (0 Bft) N 0 0 min 0,0 UV-I 0 W/m 1,0 C 2,2 C 0,0 km/h (0 Bft)
24.02.2023 06:16 2,2 C 1,1 C 92 % 1012,6 hPa 0,0 l/m 0,0 km/h (0 Bft) N 0 0 min 0,0 UV-I 0 W/m 1,0 C 2,2 C 0,0 km/h (0 Bft)
24.02.2023 06:17 2,2 C 1,1 C 92 % 1012,7 hPa 0,0 l/m 0,0 km/h (0 Bft) N 0 0 min 0,0 UV-I 0 W/m 1,0 C 2,2 C 0,0 km/h (0 Bft)
24.02.2023 06:18 2,2 C 1,1 C 92 % 1012,6 hPa 0,0 l/m 0,0 km/h (0 Bft) N 0 0 min 0,0 UV-I 0 W/m 1,0 C 2,2 C 0,0 km/h (0 Bft)
24.02.2023 06:19 2,2 C 1,1 C 92 % 1012,6 hPa 0,0 l/m 0,0 km/h (0 Bft) N 0 0 min 0,0 UV-I 0 W/m 1,0 C 2,2 C 0,0 km/h (0 Bft)
24.02.2023 06:20 2,2 C 1,1 C 92 % 1012,6 hPa 0,0 l/m 0,0 km/h (0 Bft) N 0 0 min 0,0 UV-I 0 W/m 1,0 C 2,2 C 0,0 km/h (0 Bft)
24.02.2023 06:21 2,2 C 1,1 C 92 % 1012,7 hPa 0,0 l/m 0,0 km/h (0 Bft) N 0 0 min 0,0 UV-I 0 W/m 1,0 C 2,2 C 0,0 km/h (0 Bft)
24.02.2023 06:22 2,2 C 1,1 C 92 % 1012,6 hPa 0,0 l/m 0,0 km/h (0 Bft) N 0 0 min 0,0 UV-I 0 W/m 1,0 C 2,2 C 0,0 km/h (0 Bft)
24.02.2023 06:23 2,1 C 1,1 C 92 % 1012,7 hPa 0,0 l/m 0,0 km/h (0 Bft) N 0 0 min 0,0 UV-I 0 W/m 0,9 C 2,1 C 0,0 km/h (0 Bft)
24.02.2023 06:24 2,1 C 1,1 C 92 % 1012,7 hPa 0,0 l/m 0,0 km/h (0 Bft) N 0 0 min 0,0 UV-I 0 W/m 0,9 C 2,1 C 0,0 km/h (0 Bft)
24.02.2023 06:25 2,1 C 1,1 C 92 % 1012,7 hPa 0,0 l/m 0,0 km/h (0 Bft) W-NW 292 0 min 0,0 UV-I 0 W/m 0,9 C 2,1 C 1,6 km/h (1 Bft)
24.02.2023 06:26 2,0 C 1,1 C 92 % 1012,7 hPa 0,0 l/m 0,0 km/h (0 Bft) W-NW 292 0 min 0,0 UV-I 0 W/m 0,8 C 2,0 C 1,6 km/h (1 Bft)
24.02.2023 06:27 2,0 C 1,1 C 92 % 1012,6 hPa 0,0 l/m 0,0 km/h (0 Bft) N 0 0 min 0,0 UV-I 0 W/m 0,8 C 2,0 C 0,0 km/h (0 Bft)
24.02.2023 06:28 1,9 C 1,1 C 92 % 1012,6 hPa 0,0 l/m 0,0 km/h (0 Bft) N 0 0 min 0,0 UV-I 0 W/m 0,7 C 1,9 C 0,0 km/h (0 Bft)
24.02.2023 06:29 1,9 C 1,1 C 93 % 1012,7 hPa 0,0 l/m 0,0 km/h (0 Bft) N 0 0 min 0,0 UV-I 0 W/m 0,9 C 1,9 C 0,0 km/h (0 Bft)
24.02.2023 06:30 1,9 C 1,1 C 93 % 1012,7 hPa 0,0 l/m 0,0 km/h (0 Bft) W-NW 292 0 min 0,0 UV-I 0 W/m 0,9 C 1,9 C 1,6 km/h (1 Bft)
24.02.2023 06:31 1,9 C 1,1 C 93 % 1012,7 hPa 0,0 l/m 0,0 km/h (0 Bft) N 0 0 min 0,0 UV-I 0 W/m 0,9 C 1,9 C 0,0 km/h (0 Bft)
24.02.2023 06:32 2,0 C 1,1 C 93 % 1012,7 hPa 0,0 l/m 0,0 km/h (0 Bft) W-NW 292 0 min 0,0 UV-I 0 W/m 1,0 C 2,0 C 1,6 km/h (1 Bft)
24.02.2023 06:33 2,0 C 1,7 C 93 % 1012,7 hPa 0,0 l/m 0,0 km/h (0 Bft) N 0 0 min 0,0 UV-I 0 W/m 1,0 C 2,0 C 0,0 km/h (0 Bft)
24.02.2023 06:34 2,1 C 1,7 C 93 % 1012,7 hPa 0,0 l/m 0,0 km/h (0 Bft) N 0 0 min 0,0 UV-I 0 W/m 1,1 C 2,1 C 0,0 km/h (0 Bft)
24.02.2023 06:35 2,1 C 1,7 C 93 % 1012,7 hPa 0,0 l/m 0,0 km/h (0 Bft) N 0 0 min 0,0 UV-I 0 W/m 1,1 C 2,1 C 0,0 km/h (0 Bft)
24.02.2023 06:36 2,1 C 1,7 C 93 % 1012,6 hPa 0,0 l/m 0,0 km/h (0 Bft) N 0 0 min 0,0 UV-I 0 W/m 1,1 C 2,1 C 0,0 km/h (0 Bft)
24.02.2023 06:37 2,1 C 1,7 C 93 % 1012,6 hPa 0,0 l/m 0,0 km/h (0 Bft) N 0 0 min 0,0 UV-I 0 W/m 1,1 C 2,1 C 0,0 km/h (0 Bft)
24.02.2023 06:38 2,1 C 1,7 C 93 % 1012,7 hPa 0,0 l/m 0,0 km/h (0 Bft) N 0 0 min 0,0 UV-I 0 W/m 1,1 C 2,1 C 0,0 km/h (0 Bft)
24.02.2023 06:39 2,2 C 1,7 C 93 % 1012,6 hPa 0,0 l/m 0,0 km/h (0 Bft) N 0 0 min 0,0 UV-I 0 W/m 1,2 C 2,2 C 0,0 km/h (0 Bft)
24.02.2023 06:40 2,2 C 1,7 C 93 % 1012,6 hPa 0,0 l/m 0,0 km/h (0 Bft) N 0 0 min 0,0 UV-I 0 W/m 1,2 C 2,2 C 0,0 km/h (0 Bft)
24.02.2023 06:41 2,1 C 1,7 C 93 % 1012,6 hPa 0,0 l/m 0,0 km/h (0 Bft) N 0 0 min 0,0 UV-I 0 W/m 1,1 C 2,1 C 0,0 km/h (0 Bft)
24.02.2023 06:42 2,2 C 1,7 C 93 % 1012,6 hPa 0,0 l/m 0,0 km/h (0 Bft) N 0 0 min 0,0 UV-I 0 W/m 1,2 C 2,2 C 0,0 km/h (0 Bft)
24.02.2023 06:43 2,2 C 1,7 C 93 % 1012,5 hPa 0,0 l/m 0,0 km/h (0 Bft) N 0 0 min 0,0 UV-I 0 W/m 1,2 C 2,2 C 0,0 km/h (0 Bft)
24.02.2023 06:44 2,2 C 1,7 C 93 % 1012,5 hPa 0,0 l/m 0,0 km/h (0 Bft) N 0 0 min 0,0 UV-I 0 W/m 1,2 C 2,2 C 0,0 km/h (0 Bft)
24.02.2023 06:45 2,2 C 1,7 C 93 % 1012,5 hPa 0,0 l/m 0,0 km/h (0 Bft) N 0 0 min 0,0 UV-I 0 W/m 1,2 C 2,2 C 0,0 km/h (0 Bft)
24.02.2023 06:46 2,2 C 1,7 C 93 % 1012,5 hPa 0,0 l/m 0,0 km/h (0 Bft) N 0 0 min 0,0 UV-I 0 W/m 1,2 C 2,2 C 0,0 km/h (0 Bft)
24.02.2023 06:47 2,2 C 1,7 C 93 % 1012,4 hPa 0,0 l/m 0,0 km/h (0 Bft) N 0 0 min 0,0 UV-I 0 W/m 1,2 C 2,2 C 0,0 km/h (0 Bft)
24.02.2023 06:48 2,3 C 1,7 C 93 % 1012,5 hPa 0,0 l/m 0,0 km/h (0 Bft) N 0 0 min 0,0 UV-I 0 W/m 1,3 C 2,3 C 0,0 km/h (0 Bft)
24.02.2023 06:49 2,2 C 1,7 C 93 % 1012,5 hPa 0,0 l/m 0,0 km/h (0 Bft) N 0 0 min 0,0 UV-I 0 W/m 1,2 C 2,2 C 0,0 km/h (0 Bft)
24.02.2023 06:50 2,2 C 1,7 C 93 % 1012,5 hPa 0,0 l/m 0,0 km/h (0 Bft) N 0 0 min 0,0 UV-I 0 W/m 1,2 C 2,2 C 0,0 km/h (0 Bft)
24.02.2023 06:51 2,3 C 1,7 C 93 % 1012,4 hPa 0,0 l/m 0,0 km/h (0 Bft) W-NW 292 0 min 0,0 UV-I 0 W/m 1,3 C 2,3 C 4,8 km/h (1 Bft)
24.02.2023 06:52 2,3 C 1,7 C 93 % 1012,5 hPa 0,0 l/m 1,6 km/h (1 Bft) W-NW 292 0 min 0,0 UV-I 0 W/m 1,3 C 2,3 C 4,8 km/h (1 Bft)
24.02.2023 06:53 2,3 C 1,7 C 93 % 1012,5 hPa 0,0 l/m 0,0 km/h (0 Bft) N 0 0 min 0,0 UV-I 0 W/m 1,3 C 2,3 C 0,0 km/h (0 Bft)
24.02.2023 06:54 2,3 C 1,7 C 93 % 1012,5 hPa 0,0 l/m 0,0 km/h (0 Bft) N 0 0 min 0,0 UV-I 0 W/m 1,3 C 2,3 C 0,0 km/h (0 Bft)
24.02.2023 06:55 2,3 C 1,7 C 93 % 1012,4 hPa 0,0 l/m 0,0 km/h (0 Bft) W-NW 292 0 min 0,0 UV-I 0 W/m 1,3 C 2,3 C 1,6 km/h (1 Bft)
24.02.2023 06:56 2,3 C 1,7 C 93 % 1012,4 hPa 0,0 l/m 0,0 km/h (0 Bft) N 0 0 min 0,0 UV-I 0 W/m 1,3 C 2,3 C 0,0 km/h (0 Bft)
24.02.2023 06:57 2,3 C 1,7 C 93 % 1012,4 hPa 0,0 l/m 0,0 km/h (0 Bft) N 0 0 min 0,0 UV-I 0 W/m 1,3 C 2,3 C 0,0 km/h (0 Bft)
24.02.2023 06:58 2,3 C 1,7 C 93 % 1012,4 hPa 0,0 l/m 0,0 km/h (0 Bft) N 0 0 min 0,0 UV-I 0 W/m 1,3 C 2,3 C 0,0 km/h (0 Bft)
24.02.2023 06:59 2,3 C 1,7 C 93 % 1012,4 hPa 0,0 l/m 0,0 km/h (0 Bft) N 0 0 min 0,0 UV-I 0 W/m 1,3 C 2,3 C 0,0 km/h (0 Bft)
24.02.2023 07:00 2,3 C 1,7 C 93 % 1012,4 hPa 0,0 l/m 0,0 km/h (0 Bft) W-NW 292 0 min 0,0 UV-I 0 W/m 1,3 C 2,3 C 1,6 km/h (1 Bft)
24.02.2023 07:01 2,3 C 1,7 C 93 % 1012,4 hPa 0,0 l/m 0,0 km/h (0 Bft) N 0 0 min 0,0 UV-I 0 W/m 1,3 C 2,3 C 0,0 km/h (0 Bft)
24.02.2023 07:02 2,2 C 1,7 C 93 % 1012,4 hPa 0,0 l/m 0,0 km/h (0 Bft) N 0 0 min 0,0 UV-I 0 W/m 1,2 C 2,2 C 0,0 km/h (0 Bft)
24.02.2023 07:03 2,2 C 1,7 C 93 % 1012,4 hPa 0,0 l/m 0,0 km/h (0 Bft) N 0 0 min 0,0 UV-I 0 W/m 1,2 C 2,2 C 0,0 km/h (0 Bft)
24.02.2023 07:04 2,2 C 1,7 C 93 % 1012,4 hPa 0,0 l/m 0,0 km/h (0 Bft) N 0 0 min 0,0 UV-I 0 W/m 1,2 C 2,2 C 0,0 km/h (0 Bft)
24.02.2023 07:05 2,2 C 1,7 C 93 % 1012,3 hPa 0,0 l/m 0,0 km/h (0 Bft) N 0 0 min 0,0 UV-I 0 W/m 1,2 C 2,2 C 0,0 km/h (0 Bft)
24.02.2023 07:06 2,2 C 1,7 C 93 % 1012,4 hPa 0,0 l/m 0,0 km/h (0 Bft) N 0 0 min 0,0 UV-I 0 W/m 1,2 C 2,2 C 0,0 km/h (0 Bft)
24.02.2023 07:07 2,2 C 1,7 C 93 % 1012,4 hPa 0,0 l/m 0,0 km/h (0 Bft) N 0 0 min 0,0 UV-I 0 W/m 1,2 C 2,2 C 0,0 km/h (0 Bft)
24.02.2023 07:08 2,2 C 1,7 C 93 % 1012,4 hPa 0,0 l/m 0,0 km/h (0 Bft) N 0 0 min 0,0 UV-I 0 W/m 1,2 C 2,2 C 0,0 km/h (0 Bft)
24.02.2023 07:09 2,2 C 1,7 C 93 % 1012,4 hPa 0,0 l/m 0,0 km/h (0 Bft) N 0 0 min 0,0 UV-I 0 W/m 1,2 C 2,2 C 0,0 km/h (0 Bft)
24.02.2023 07:10 2,2 C 1,7 C 93 % 1012,3 hPa 0,0 l/m 0,0 km/h (0 Bft) N 0 0 min 0,0 UV-I 0 W/m 1,2 C 2,2 C 0,0 km/h (0 Bft)
24.02.2023 07:11 2,2 C 1,7 C 93 % 1012,4 hPa 0,0 l/m 0,0 km/h (0 Bft) N 0 0 min 0,0 UV-I 0 W/m 1,2 C 2,2 C 0,0 km/h (0 Bft)
24.02.2023 07:12 2,2 C 1,7 C 93 % 1012,4 hPa 0,0 l/m 0,0 km/h (0 Bft) N 0 0 min 0,0 UV-I 0 W/m 1,2 C 2,2 C 0,0 km/h (0 Bft)
24.02.2023 07:13 2,2 C 1,7 C 93 % 1012,4 hPa 0,0 l/m 0,0 km/h (0 Bft) N 0 0 min 0,0 UV-I 0 W/m 1,2 C 2,2 C 0,0 km/h (0 Bft)
24.02.2023 07:14 2,2 C 1,7 C 93 % 1012,4 hPa 0,0 l/m 0,0 km/h (0 Bft) N 0 0 min 0,0 UV-I 0 W/m 1,2 C 2,2 C 0,0 km/h (0 Bft)
24.02.2023 07:15 2,2 C 1,7 C 93 % 1012,4 hPa 0,0 l/m 0,0 km/h (0 Bft) N 0 0 min 0,0 UV-I 0 W/m 1,2 C 2,2 C 0,0 km/h (0 Bft)
24.02.2023 07:16 2,2 C 1,7 C 93 % 1012,4 hPa 0,0 l/m 0,0 km/h (0 Bft) N 0 0 min 0,0 UV-I 0 W/m 1,2 C 2,2 C 0,0 km/h (0 Bft)
24.02.2023 07:17 2,3 C 1,7 C 93 % 1012,4 hPa 0,0 l/m 0,0 km/h (0 Bft) N 0 0 min 0,0 UV-I 0 W/m 1,3 C 2,3 C 0,0 km/h (0 Bft)
24.02.2023 07:18 2,3 C 1,7 C 93 % 1012,4 hPa 0,0 l/m 0,0 km/h (0 Bft) N 0 0 min 0,0 UV-I 0 W/m 1,3 C 2,3 C 0,0 km/h (0 Bft)
24.02.2023 07:19 2,3 C 1,7 C 93 % 1012,4 hPa 0,0 l/m 0,0 km/h (0 Bft) N 0 0 min 0,0 UV-I 0 W/m 1,3 C 2,3 C 0,0 km/h (0 Bft)
24.02.2023 07:20 2,3 C 1,7 C 93 % 1012,3 hPa 0,0 l/m 1,6 km/h (1 Bft) W-NW 292 0 min 0,0 UV-I 0 W/m 1,3 C 2,3 C 3,2 km/h (1 Bft)
24.02.2023 07:21 2,4 C 1,7 C 93 % 1012,4 hPa 0,0 l/m 4,8 km/h (1 Bft) W-NW 292 0 min 0,0 UV-I 0 W/m 1,4 C 2,4 C 4,8 km/h (1 Bft)
24.02.2023 07:22 2,4 C 1,7 C 93 % 1012,3 hPa 0,0 l/m 4,8 km/h (1 Bft) W-NW 292 0 min 0,0 UV-I 0 W/m 1,4 C 2,4 C 6,4 km/h (2 Bft)
24.02.2023 07:23 2,4 C 1,7 C 93 % 1012,4 hPa 0,0 l/m 4,8 km/h (1 Bft) W-NW 292 0 min 0,0 UV-I 0 W/m 1,4 C 2,4 C 6,4 km/h (2 Bft)
24.02.2023 07:24 2,5 C 2,2 C 93 % 1012,3 hPa 0,0 l/m 4,8 km/h (1 Bft) W-NW 292 0 min 0,0 UV-I 0 W/m 1,5 C 2,5 C 8,0 km/h (2 Bft)
24.02.2023 07:25 2,6 C 2,2 C 93 % 1012,3 hPa 0,0 l/m 3,2 km/h (1 Bft) W-NW 292 0 min 0,0 UV-I 0 W/m 1,6 C 2,6 C 4,8 km/h (1 Bft)
24.02.2023 07:26 2,6 C 2,2 C 93 % 1012,4 hPa 0,0 l/m 4,8 km/h (1 Bft) W-NW 292 0 min 0,0 UV-I 0 W/m 1,6 C 2,6 C 6,4 km/h (2 Bft)
24.02.2023 07:27 2,6 C 2,2 C 93 % 1012,3 hPa 0,0 l/m 0,0 km/h (0 Bft) W-NW 292 0 min 0,0 UV-I 0 W/m 1,6 C 2,6 C 1,6 km/h (1 Bft)
24.02.2023 07:28 2,7 C 2,2 C 93 % 1012,4 hPa 0,0 l/m 0,0 km/h (0 Bft) W-NW 292 0 min 0,0 UV-I 0 W/m 1,7 C 2,7 C 1,6 km/h (1 Bft)
24.02.2023 07:29 2,7 C 2,2 C 93 % 1012,4 hPa 0,0 l/m 1,6 km/h (1 Bft) W-NW 292 0 min 0,0 UV-I 0 W/m 1,7 C 2,7 C 3,2 km/h (1 Bft)
24.02.2023 07:30 2,7 C 2,2 C 93 % 1012,4 hPa 0,0 l/m 3,2 km/h (1 Bft) W-NW 292 0 min 0,0 UV-I 0 W/m 1,7 C 2,7 C 4,8 km/h (1 Bft)
24.02.2023 07:31 2,7 C 2,2 C 93 % 1012,4 hPa 0,0 l/m 1,6 km/h (1 Bft) W-NW 292 0 min 0,0 UV-I 0 W/m 1,7 C 2,7 C 4,8 km/h (1 Bft)
24.02.2023 07:32 2,7 C 2,2 C 93 % 1012,4 hPa 0,0 l/m 3,2 km/h (1 Bft) W-NW 292 0 min 0,0 UV-I 0 W/m 1,7 C 2,7 C 4,8 km/h (1 Bft)
24.02.2023 07:33 2,7 C 2,2 C 93 % 1012,4 hPa 0,0 l/m 3,2 km/h (1 Bft) W-NW 292 0 min 0,0 UV-I 0 W/m 1,7 C 2,7 C 6,4 km/h (2 Bft)
24.02.2023 07:34 2,7 C 2,2 C 93 % 1012,4 hPa 0,0 l/m 1,6 km/h (1 Bft) W-NW 292 0 min 0,0 UV-I 0 W/m 1,7 C 2,7 C 3,2 km/h (1 Bft)
24.02.2023 07:35 2,8 C 2,2 C 93 % 1012,4 hPa 0,0 l/m 1,6 km/h (1 Bft) W-NW 292 0 min 0,0 UV-I 0 W/m 1,8 C 2,8 C 3,2 km/h (1 Bft)
24.02.2023 07:36 2,7 C 2,2 C 93 % 1012,4 hPa 0,0 l/m 0,0 km/h (0 Bft) W-NW 292 0 min 0,0 UV-I 0 W/m 1,7 C 2,7 C 3,2 km/h (1 Bft)
24.02.2023 07:37 2,8 C 2,2 C 93 % 1012,4 hPa 0,0 l/m 0,0 km/h (0 Bft) W-NW 292 0 min 0,0 UV-I 0 W/m 1,8 C 2,8 C 1,6 km/h (1 Bft)
24.02.2023 07:38 2,8 C 2,2 C 93 % 1012,4 hPa 0,0 l/m 0,0 km/h (0 Bft) W-NW 292 0 min 0,0 UV-I 0 W/m 1,8 C 2,8 C 1,6 km/h (1 Bft)
24.02.2023 07:39 2,8 C 2,2 C 93 % 1012,3 hPa 0,0 l/m 0,0 km/h (0 Bft) W-NW 292 0 min 0,0 UV-I 0 W/m 1,8 C 2,8 C 1,6 km/h (1 Bft)
24.02.2023 07:40 2,8 C 2,2 C 93 % 1012,4 hPa 0,0 l/m 0,0 km/h (0 Bft) N 0 0 min 0,0 UV-I 0 W/m 1,8 C 2,8 C 0,0 km/h (0 Bft)
24.02.2023 07:41 2,7 C 2,2 C 93 % 1012,3 hPa 0,0 l/m 0,0 km/h (0 Bft) W-NW 292 0 min 0,0 UV-I 0 W/m 1,7 C 2,7 C 1,6 km/h (1 Bft)
24.02.2023 07:42 2,8 C 2,2 C 93 % 1012,3 hPa 0,0 l/m 0,0 km/h (0 Bft) N 0 0 min 0,0 UV-I 0 W/m 1,8 C 2,8 C 0,0 km/h (0 Bft)
24.02.2023 07:43 2,8 C 2,2 C 93 % 1012,3 hPa 0,0 l/m 0,0 km/h (0 Bft) N 0 0 min 0,0 UV-I 0 W/m 1,8 C 2,8 C 0,0 km/h (0 Bft)
24.02.2023 07:44 2,8 C 2,2 C 93 % 1012,3 hPa 0,0 l/m 0,0 km/h (0 Bft) W-NW 292 0 min 0,0 UV-I 0 W/m 1,8 C 2,8 C 1,6 km/h (1 Bft)
24.02.2023 07:45 2,8 C 2,2 C 93 % 1012,3 hPa 0,0 l/m 0,0 km/h (0 Bft) N 0 0 min 0,0 UV-I 0 W/m 1,8 C 2,8 C 0,0 km/h (0 Bft)
24.02.2023 07:46 2,8 C 2,2 C 93 % 1012,3 hPa 0,0 l/m 0,0 km/h (0 Bft) N 0 0 min 0,0 UV-I 0 W/m 1,8 C 2,8 C 0,0 km/h (0 Bft)
24.02.2023 07:47 2,8 C 2,2 C 93 % 1012,3 hPa 0,0 l/m 0,0 km/h (0 Bft) N 0 0 min 0,0 UV-I 5 W/m 1,8 C 2,8 C 0,0 km/h (0 Bft)
24.02.2023 07:48 2,8 C 2,2 C 93 % 1012,3 hPa 0,0 l/m 0,0 km/h (0 Bft) W-NW 292 0 min 0,0 UV-I 5 W/m 1,8 C 2,8 C 1,6 km/h (1 Bft)
24.02.2023 07:49 2,8 C 2,2 C 93 % 1012,3 hPa 0,0 l/m 0,0 km/h (0 Bft) W-NW 292 0 min 0,0 UV-I 5 W/m 1,8 C 2,8 C 1,6 km/h (1 Bft)
24.02.2023 07:50 2,8 C 2,2 C 93 % 1012,3 hPa 0,0 l/m 3,2 km/h (1 Bft) W-NW 292 0 min 0,0 UV-I 5 W/m 1,8 C 2,8 C 4,8 km/h (1 Bft)
24.02.2023 07:51 2,8 C 2,2 C 93 % 1012,4 hPa 0,0 l/m 4,8 km/h (1 Bft) W-NW 292 0 min 0,0 UV-I 5 W/m 1,8 C 2,8 C 6,4 km/h (2 Bft)
24.02.2023 07:52 2,8 C 2,2 C 93 % 1012,3 hPa 0,0 l/m 4,8 km/h (1 Bft) W-NW 292 0 min 0,0 UV-I 5 W/m 1,8 C 2,8 C 4,8 km/h (1 Bft)
24.02.2023 07:53 2,8 C 2,2 C 93 % 1012,3 hPa 0,0 l/m 1,6 km/h (1 Bft) W-NW 292 0 min 0,0 UV-I 5 W/m 1,8 C 2,8 C 3,2 km/h (1 Bft)
24.02.2023 07:54 2,8 C 2,8 C 93 % 1012,3 hPa 0,0 l/m 1,6 km/h (1 Bft) W-NW 292 0 min 0,0 UV-I 7 W/m 1,8 C 2,8 C 3,2 km/h (1 Bft)
24.02.2023 07:55 2,8 C 2,8 C 93 % 1012,3 hPa 0,0 l/m 3,2 km/h (1 Bft) W-NW 292 0 min 0,0 UV-I 7 W/m 1,8 C 2,8 C 4,8 km/h (1 Bft)
24.02.2023 07:56 2,8 C 2,8 C 93 % 1012,3 hPa 0,0 l/m 3,2 km/h (1 Bft) W-NW 292 0 min 0,0 UV-I 7 W/m 1,8 C 2,8 C 4,8 km/h (1 Bft)
24.02.2023 07:57 2,8 C 2,8 C 93 % 1012,3 hPa 0,0 l/m 4,8 km/h (1 Bft) W 270 0 min 0,0 UV-I 9 W/m 1,8 C 2,8 C 9,7 km/h (2 Bft)
24.02.2023 07:58 2,8 C 2,8 C 93 % 1012,3 hPa 0,0 l/m 4,8 km/h (1 Bft) W 270 0 min 0,0 UV-I 10 W/m 1,8 C 2,8 C 4,8 km/h (1 Bft)
24.02.2023 07:59 2,9 C 2,8 C 93 % 1012,3 hPa 0,0 l/m 4,8 km/h (1 Bft) W 270 0 min 0,0 UV-I 11 W/m 1,9 C 2,9 C 6,4 km/h (2 Bft)
24.02.2023 08:00 2,9 C 2,8 C 93 % 1012,3 hPa 0,0 l/m 3,2 km/h (1 Bft) W 270 0 min 0,0 UV-I 11 W/m 1,9 C 2,9 C 4,8 km/h (1 Bft)
24.02.2023 08:01 2,9 C 2,8 C 93 % 1012,3 hPa 0,0 l/m 1,6 km/h (1 Bft) W 270 0 min 0,0 UV-I 12 W/m 1,9 C 2,9 C 4,8 km/h (1 Bft)
24.02.2023 08:02 2,9 C 2,8 C 93 % 1012,3 hPa 0,0 l/m 0,0 km/h (0 Bft) W 270 0 min 0,0 UV-I 14 W/m 1,9 C 2,9 C 1,6 km/h (1 Bft)
24.02.2023 08:03 2,9 C 2,8 C 93 % 1012,3 hPa 0,0 l/m 0,0 km/h (0 Bft) W 270 0 min 0,0 UV-I 14 W/m 1,9 C 2,9 C 3,2 km/h (1 Bft)
24.02.2023 08:04 2,9 C 2,8 C 93 % 1012,3 hPa 0,0 l/m 0,0 km/h (0 Bft) W 270 0 min 0,0 UV-I 17 W/m 1,9 C 2,9 C 1,6 km/h (1 Bft)
24.02.2023 08:05 2,9 C 2,8 C 93 % 1012,3 hPa 0,0 l/m 0,0 km/h (0 Bft) N 0 0 min 0,0 UV-I 19 W/m 1,9 C 2,9 C 0,0 km/h (0 Bft)
24.02.2023 08:06 2,9 C 2,8 C 93 % 1012,3 hPa 0,0 l/m 0,0 km/h (0 Bft) W 270 0 min 0,0 UV-I 21 W/m 1,9 C 2,9 C 1,6 km/h (1 Bft)
24.02.2023 08:07 2,9 C 2,8 C 93 % 1012,2 hPa 0,0 l/m 3,2 km/h (1 Bft) W 270 0 min 0,0 UV-I 21 W/m 1,9 C 2,9 C 4,8 km/h (1 Bft)
24.02.2023 08:08 2,9 C 2,8 C 93 % 1012,3 hPa 0,0 l/m 3,2 km/h (1 Bft) W 270 0 min 0,0 UV-I 21 W/m 1,9 C 2,9 C 6,4 km/h (2 Bft)
24.02.2023 08:09 2,9 C 2,8 C 92 % 1012,2 hPa 0,0 l/m 1,6 km/h (1 Bft) W 270 0 min 0,0 UV-I 23 W/m 1,7 C 2,9 C 3,2 km/h (1 Bft)
24.02.2023 08:10 2,9 C 2,8 C 92 % 1012,3 hPa 0,0 l/m 1,6 km/h (1 Bft) W 270 0 min 0,0 UV-I 26 W/m 1,7 C 2,9 C 3,2 km/h (1 Bft)
24.02.2023 08:11 2,9 C 2,8 C 92 % 1012,2 hPa 0,0 l/m 0,0 km/h (0 Bft) W 270 0 min 0,0 UV-I 28 W/m 1,7 C 2,9 C 3,2 km/h (1 Bft)
24.02.2023 08:12 2,9 C 2,8 C 92 % 1012,2 hPa 0,0 l/m 1,6 km/h (1 Bft) W 270 0 min 0,0 UV-I 28 W/m 1,7 C 2,9 C 3,2 km/h (1 Bft)
24.02.2023 08:13 2,9 C 2,8 C 92 % 1012,2 hPa 0,0 l/m 4,8 km/h (1 Bft) W 270 0 min 0,0 UV-I 30 W/m 1,7 C 2,9 C 4,8 km/h (1 Bft)
24.02.2023 08:14 2,9 C 2,8 C 92 % 1012,2 hPa 0,0 l/m 4,8 km/h (1 Bft) W 270 0 min 0,0 UV-I 30 W/m 1,7 C 2,9 C 6,4 km/h (2 Bft)
24.02.2023 08:15 3,0 C 2,8 C 92 % 1012,2 hPa 0,0 l/m 1,6 km/h (1 Bft) W 270 0 min 0,0 UV-I 27 W/m 1,8 C 3,0 C 3,2 km/h (1 Bft)
24.02.2023 08:16 2,9 C 2,8 C 92 % 1012,2 hPa 0,0 l/m 3,2 km/h (1 Bft) W 270 0 min 0,0 UV-I 26 W/m 1,7 C 2,9 C 9,7 km/h (2 Bft)
24.02.2023 08:17 2,9 C 2,8 C 92 % 1012,2 hPa 0,0 l/m 4,8 km/h (1 Bft) W 270 0 min 0,0 UV-I 30 W/m 1,7 C 2,9 C 9,7 km/h (2 Bft)
24.02.2023 08:18 2,9 C 2,8 C 92 % 1012,1 hPa 0,0 l/m 3,2 km/h (1 Bft) W 270 0 min 0,0 UV-I 33 W/m 1,7 C 2,9 C 4,8 km/h (1 Bft)
24.02.2023 08:19 3,0 C 2,8 C 92 % 1012,1 hPa 0,0 l/m 0,0 km/h (0 Bft) W 270 0 min 0,0 UV-I 37 W/m 1,8 C 3,0 C 3,2 km/h (1 Bft)
24.02.2023 08:20 3,0 C 2,8 C 92 % 1012,1 hPa 0,0 l/m 3,2 km/h (1 Bft) W 270 0 min 0,0 UV-I 39 W/m 1,8 C 3,0 C 4,8 km/h (1 Bft)
24.02.2023 08:21 3,0 C 2,8 C 92 % 1012,1 hPa 0,0 l/m 3,2 km/h (1 Bft) W 270 0 min 0,0 UV-I 41 W/m 1,8 C 3,0 C 3,2 km/h (1 Bft)
24.02.2023 08:24 3,1 C 3,3 C 92 % 1012,1 hPa 0,0 l/m 0,1 km/h (0 Bft) W 277 0 min 0,0 UV-I 47 W/m 1,9 C 3,1 C 1,6 km/h (1 Bft)
24.02.2023 08:27 3,1 C 3,3 C 92 % 1012,1 hPa 0,0 l/m 0,0 km/h (0 Bft) W 277 0 min 0,0 UV-I 57 W/m 1,9 C 3,1 C 1,6 km/h (1 Bft)
24.02.2023 08:30 3,1 C 3,3 C 92 % 1011,9 hPa 0,0 l/m 0,1 km/h (0 Bft) W 277 0 min 0,0 UV-I 58 W/m 1,9 C 3,1 C 1,6 km/h (1 Bft)
24.02.2023 08:33 3,1 C 2,8 C 91 % 1011,9 hPa 0,0 l/m 1,8 km/h (1 Bft) W 276 0 min 0,0 UV-I 63 W/m 1,8 C 3,1 C 6,4 km/h (2 Bft)
24.02.2023 08:36 3,1 C 2,8 C 91 % 1011,8 hPa 0,0 l/m 4,0 km/h (1 Bft) W 275 0 min 0,0 UV-I 72 W/m 1,8 C 3,1 C 4,8 km/h (1 Bft)
24.02.2023 08:39 3,1 C 3,3 C 91 % 1011,8 hPa 0,0 l/m 3,2 km/h (1 Bft) W 275 0 min 0,0 UV-I 85 W/m 1,8 C 3,1 C 4,8 km/h (1 Bft)
24.02.2023 08:42 3,1 C 3,3 C 91 % 1011,8 hPa 0,0 l/m 1,6 km/h (1 Bft) W 275 0 min 0,0 UV-I 120 W/m 1,8 C 3,1 C 3,2 km/h (1 Bft)
24.02.2023 08:45 3,3 C 5,0 C 91 % 1011,9 hPa 0,0 l/m 0,7 km/h (0 Bft) W 275 0 min 0,0 UV-I 154 W/m 2,0 C 3,3 C 3,2 km/h (1 Bft)
24.02.2023 08:48 3,4 C 5,0 C 91 % 1011,8 hPa 0,0 l/m 3,5 km/h (1 Bft) W 274 0 min 0,1 UV-I 130 W/m 2,1 C 3,4 C 9,7 km/h (2 Bft)
24.02.2023 08:51 3,7 C 5,6 C 91 % 1011,8 hPa 0,0 l/m 5,1 km/h (1 Bft) W 269 0 min 0,5 UV-I 145 W/m 2,4 C 3,7 C 9,7 km/h (2 Bft)
24.02.2023 08:54 3,7 C 5,6 C 90 % 1011,8 hPa 0,0 l/m 6,1 km/h (2 Bft) W 261 0 min 0,5 UV-I 167 W/m 2,2 C 3,7 C 11,3 km/h (2 Bft)
24.02.2023 08:57 4,0 C 7,2 C 90 % 1011,9 hPa 0,0 l/m 3,9 km/h (1 Bft) W 272 0 min 0,5 UV-I 217 W/m 2,5 C 4,0 C 9,7 km/h (2 Bft)
24.02.2023 09:00 4,1 C 6,7 C 89 % 1011,9 hPa 0,0 l/m 7,9 km/h (2 Bft) W-SW 258 0 min 0,5 UV-I 189 W/m 2,5 C 2,7 C 14,5 km/h (3 Bft)
24.02.2023 09:03 4,0 C 6,1 C 88 % 1011,9 hPa 0,0 l/m 7,4 km/h (2 Bft) W-SW 249 0 min 0,3 UV-I 160 W/m 2,2 C 3,1 C 12,9 km/h (3 Bft)
24.02.2023 09:06 4,1 C 5,6 C 88 % 1011,8 hPa 0,0 l/m 6,9 km/h (2 Bft) W 262 0 min 0,0 UV-I 139 W/m 2,3 C 3,7 C 17,7 km/h (3 Bft)
24.02.2023 09:09 3,8 C 4,4 C 87 % 1012,0 hPa 0,0 l/m 8,1 km/h (2 Bft) W 260 0 min 0,0 UV-I 108 W/m 1,8 C 2,3 C 14,5 km/h (3 Bft)
24.02.2023 09:12 3,6 C 4,4 C 87 % 1011,9 hPa 0,0 l/m 10,2 km/h (2 Bft) W 270 0 min 0,0 UV-I 93 W/m 1,6 C 0,4 C 16,1 km/h (3 Bft)
24.02.2023 09:15 3,4 C 3,9 C 87 % 1011,8 hPa 0,0 l/m 9,4 km/h (2 Bft) W-SW 243 0 min 0,0 UV-I 101 W/m 1,4 C 0,8 C 16,1 km/h (3 Bft)
24.02.2023 09:18 3,3 C 3,9 C 87 % 1011,8 hPa 0,0 l/m 12,0 km/h (2 Bft) W 261 0 min 0,0 UV-I 101 W/m 1,3 C -1,2 C 19,3 km/h (3 Bft)
24.02.2023 09:21 3,3 C 3,9 C 87 % 1011,8 hPa 0,0 l/m 10,9 km/h (2 Bft) W 261 0 min 0,0 UV-I 92 W/m 1,3 C -0,5 C 24,1 km/h (4 Bft)
24.02.2023 09:24 3,3 C 3,9 C 86 % 1011,7 hPa 0,0 l/m 10,8 km/h (2 Bft) W 264 0 min 0,0 UV-I 94 W/m 1,2 C -0,4 C 16,1 km/h (3 Bft)
24.02.2023 09:27 3,3 C 3,9 C 86 % 1011,8 hPa 0,0 l/m 8,0 km/h (2 Bft) W 265 0 min 0,0 UV-I 105 W/m 1,2 C 1,8 C 16,1 km/h (3 Bft)
24.02.2023 09:30 3,3 C 3,9 C 86 % 1011,6 hPa 0,0 l/m 9,2 km/h (2 Bft) W 267 0 min 0,0 UV-I 104 W/m 1,2 C 0,8 C 19,3 km/h (3 Bft)
24.02.2023 09:33 3,3 C 3,9 C 86 % 1011,6 hPa 0,0 l/m 9,8 km/h (2 Bft) W-SW 252 0 min 0,0 UV-I 96 W/m 1,2 C 0,3 C 16,1 km/h (3 Bft)
24.02.2023 09:36 3,3 C 3,9 C 86 % 1011,6 hPa 0,0 l/m 7,4 km/h (2 Bft) SW 227 0 min 0,0 UV-I 81 W/m 1,2 C 2,4 C 12,9 km/h (3 Bft)
24.02.2023 09:39 3,3 C 3,9 C 86 % 1011,6 hPa 0,0 l/m 8,2 km/h (2 Bft) W-SW 241 0 min 0,0 UV-I 73 W/m 1,2 C 1,6 C 16,1 km/h (3 Bft)
24.02.2023 09:42 3,2 C 3,9 C 85 % 1011,6 hPa 0,0 l/m 9,7 km/h (2 Bft) W-SW 246 0 min 0,1 UV-I 93 W/m 0,9 C 0,3 C 19,3 km/h (3 Bft)
24.02.2023 09:45 3,2 C 3,9 C 85 % 1011,5 hPa 0,0 l/m 5,8 km/h (2 Bft) SW 229 0 min 0,5 UV-I 120 W/m 0,9 C 3,2 C 11,3 km/h (2 Bft)
24.02.2023 09:48 3,3 C 3,9 C 85 % 1011,6 hPa 0,0 l/m 5,9 km/h (2 Bft) W-SW 239 0 min 0,1 UV-I 112 W/m 1,0 C 3,3 C 11,3 km/h (2 Bft)
24.02.2023 09:51 3,4 C 3,9 C 85 % 1011,5 hPa 0,0 l/m 9,9 km/h (2 Bft) W-SW 244 0 min 0,3 UV-I 125 W/m 1,1 C 0,4 C 16,1 km/h (3 Bft)
24.02.2023 09:54 3,4 C 3,9 C 85 % 1011,5 hPa 0,0 l/m 11,0 km/h (2 Bft) SW 227 0 min 0,0 UV-I 91 W/m 1,1 C -0,4 C 19,3 km/h (3 Bft)
24.02.2023 09:57 3,3 C 3,9 C 85 % 1011,4 hPa 0,0 l/m 11,0 km/h (2 Bft) W-SW 241 0 min 0,0 UV-I 80 W/m 1,0 C -0,5 C 19,3 km/h (3 Bft)
24.02.2023 10:00 3,2 C 3,9 C 86 % 1011,4 hPa 0,0 l/m 8,4 km/h (2 Bft) W-SW 257 0 min 0,1 UV-I 107 W/m 1,1 C 1,4 C 16,1 km/h (3 Bft)
24.02.2023 10:03 3,2 C 3,9 C 86 % 1011,4 hPa 0,0 l/m 14,1 km/h (3 Bft) W 272 0 min 0,6 UV-I 168 W/m 1,1 C -2,6 C 24,1 km/h (4 Bft)
24.02.2023 10:07 3,2 C 3,9 C 85 % 1011,4 hPa 0,0 l/m 12,3 km/h (3 Bft) W 271 0 min 0,7 UV-I 169 W/m 0,9 C -1,5 C 25,7 km/h (4 Bft)
24.02.2023 10:09 3,2 C 3,9 C 85 % 1011,4 hPa 0,0 l/m 12,4 km/h (3 Bft) SW 236 0 min 0,7 UV-I 157 W/m 0,9 C -1,6 C 20,9 km/h (4 Bft)
24.02.2023 10:12 3,2 C 3,9 C 85 % 1011,2 hPa 0,0 l/m 9,4 km/h (2 Bft) SW 221 0 min 0,7 UV-I 153 W/m 0,9 C 0,5 C 17,7 km/h (3 Bft)
24.02.2023 10:15 3,2 C 3,9 C 85 % 1011,3 hPa 0,0 l/m 11,7 km/h (2 Bft) SW 233 0 min 0,7 UV-I 169 W/m 0,9 C -1,1 C 20,9 km/h (4 Bft)
24.02.2023 10:18 3,2 C 4,4 C 85 % 1011,2 hPa 0,0 l/m 8,0 km/h (2 Bft) SW 235 0 min 0,6 UV-I 175 W/m 0,9 C 1,7 C 16,1 km/h (3 Bft)
24.02.2023 10:21 3,3 C 4,4 C 85 % 1011,1 hPa 0,0 l/m 8,8 km/h (2 Bft) S 182 0 min 0,6 UV-I 145 W/m 1,0 C 1,1 C 17,7 km/h (3 Bft)
24.02.2023 10:24 3,2 C 3,9 C 85 % 1011,1 hPa 0,0 l/m 11,2 km/h (2 Bft) S-SW 213 0 min 0,6 UV-I 133 W/m 0,9 C -0,8 C 22,5 km/h (4 Bft)
24.02.2023 10:27 3,2 C 3,9 C 85 % 1011,0 hPa 0,0 l/m 9,7 km/h (2 Bft) SW 220 0 min 0,6 UV-I 127 W/m 0,9 C 0,3 C 20,9 km/h (4 Bft)
24.02.2023 10:30 3,3 C 3,9 C 86 % 1011,1 hPa 0,0 l/m 6,1 km/h (2 Bft) SW 217 0 min 0,2 UV-I 102 W/m 1,2 C 3,3 C 17,7 km/h (3 Bft)
24.02.2023 10:33 3,2 C 3,9 C 86 % 1011,1 hPa 0,0 l/m 6,2 km/h (2 Bft) SW 215 0 min 0,5 UV-I 109 W/m 1,1 C 3,2 C 14,5 km/h (3 Bft)
24.02.2023 10:36 3,2 C 3,9 C 85 % 1011,0 hPa 0,0 l/m 10,7 km/h (2 Bft) SW 229 0 min 0,6 UV-I 136 W/m 0,9 C -0,4 C 20,9 km/h (4 Bft)
24.02.2023 10:39 3,3 C 3,9 C 86 % 1010,9 hPa 0,0 l/m 8,3 km/h (2 Bft) W-SW 250 0 min 0,8 UV-I 160 W/m 1,2 C 1,6 C 14,5 km/h (3 Bft)
24.02.2023 10:42 3,3 C 4,4 C 85 % 1010,9 hPa 0,0 l/m 9,2 km/h (2 Bft) S-SW 192 0 min 0,9 UV-I 186 W/m 1,0 C 0,8 C 17,7 km/h (3 Bft)
24.02.2023 10:45 3,4 C 5,0 C 85 % 1010,8 hPa 0,0 l/m 9,9 km/h (2 Bft) SW 216 0 min 0,9 UV-I 209 W/m 1,1 C 0,4 C 19,3 km/h (3 Bft)
24.02.2023 10:48 3,4 C 5,0 C 85 % 1010,8 hPa 0,0 l/m 12,4 km/h (3 Bft) W-SW 245 0 min 1,0 UV-I 225 W/m 1,1 C -1,3 C 20,9 km/h (4 Bft)
24.02.2023 10:52 3,4 C 5,0 C 85 % 1010,9 hPa 0,0 l/m 11,3 km/h (2 Bft) SW 229 0 min 1,0 UV-I 236 W/m 1,1 C -0,6 C 20,9 km/h (4 Bft)
24.02.2023 10:54 3,4 C 4,4 C 84 % 1010,7 hPa 0,0 l/m 14,2 km/h (3 Bft) W 262 0 min 1,0 UV-I 211 W/m 1,0 C -2,4 C 20,9 km/h (4 Bft)
24.02.2023 10:59 3,7 C 5,6 C 85 % 1010,7 hPa 0,0 l/m 9,4 km/h (2 Bft) S-SW 213 5 min 1,2 UV-I 255 W/m 1,4 C 1,1 C 20,9 km/h (4 Bft)
24.02.2023 11:00 3,7 C 5,6 C 85 % 1010,7 hPa 0,0 l/m 10,0 km/h (2 Bft) S-SW 193 1 min 1,2 UV-I 258 W/m 1,4 C 0,6 C 16,1 km/h (3 Bft)
24.02.2023 11:01 3,7 C 5,6 C 85 % 1010,7 hPa 0,0 l/m 10,9 km/h (2 Bft) W 275 0 min 1,1 UV-I 247 W/m 1,4 C -0,0 C 16,1 km/h (3 Bft)
24.02.2023 11:02 3,7 C 5,0 C 84 % 1010,7 hPa 0,0 l/m 8,0 km/h (2 Bft) SW 225 0 min 1,1 UV-I 236 W/m 1,3 C 2,2 C 11,3 km/h (2 Bft)
24.02.2023 11:03 3,7 C 5,0 C 85 % 1010,6 hPa 0,0 l/m 9,7 km/h (2 Bft) SW 225 0 min 1,1 UV-I 237 W/m 1,4 C 0,9 C 14,5 km/h (3 Bft)
24.02.2023 11:06 3,7 C 5,0 C 84 % 1010,6 hPa 0,0 l/m 11,2 km/h (2 Bft) SW 215 0 min 1,0 UV-I 228 W/m 1,3 C -0,2 C 17,7 km/h (3 Bft)
24.02.2023 11:09 3,6 C 5,0 C 85 % 1010,5 hPa 0,0 l/m 8,8 km/h (2 Bft) SW 221 0 min 0,9 UV-I 209 W/m 1,3 C 1,5 C 19,3 km/h (3 Bft)
24.02.2023 11:12 3,6 C 5,0 C 85 % 1010,6 hPa 0,0 l/m 12,3 km/h (3 Bft) SW 225 0 min 0,9 UV-I 193 W/m 1,3 C -1,0 C 22,5 km/h (4 Bft)
24.02.2023 11:15 3,6 C 4,4 C 85 % 1010,6 hPa 0,0 l/m 14,6 km/h (3 Bft) SW 222 0 min 1,0 UV-I 207 W/m 1,3 C -2,4 C 24,1 km/h (4 Bft)
24.02.2023 11:18 3,6 C 4,4 C 84 % 1010,6 hPa 0,0 l/m 15,6 km/h (3 Bft) W-SW 254 0 min 1,0 UV-I 198 W/m 1,2 C -2,9 C 27,4 km/h (4 Bft)
24.02.2023 11:21 3,5 C 4,4 C 84 % 1010,6 hPa 0,0 l/m 17,0 km/h (3 Bft) W-SW 253 0 min 0,8 UV-I 154 W/m 1,1 C -3,8 C 25,7 km/h (4 Bft)
24.02.2023 11:24 3,4 C 4,4 C 84 % 1010,5 hPa 0,0 l/m 10,0 km/h (2 Bft) W-SW 239 0 min 0,8 UV-I 136 W/m 1,0 C 0,3 C 19,3 km/h (3 Bft)
24.02.2023 11:27 3,4 C 4,4 C 85 % 1010,4 hPa 0,0 l/m 8,9 km/h (2 Bft) W-SW 242 0 min 0,9 UV-I 158 W/m 1,1 C 1,2 C 22,5 km/h (4 Bft)
24.02.2023 11:30 3,4 C 4,4 C 84 % 1010,5 hPa 0,0 l/m 12,7 km/h (3 Bft) SW 235 0 min 1,0 UV-I 172 W/m 1,0 C -1,5 C 22,5 km/h (4 Bft)
24.02.2023 11:33 3,4 C 4,4 C 84 % 1010,6 hPa 0,0 l/m 11,2 km/h (2 Bft) SW 221 0 min 1,0 UV-I 182 W/m 1,0 C -0,6 C 20,9 km/h (4 Bft)
24.02.2023 11:36 3,4 C 5,0 C 84 % 1010,6 hPa 0,0 l/m 12,7 km/h (3 Bft) W 261 0 min 1,1 UV-I 208 W/m 1,0 C -1,5 C 25,7 km/h (4 Bft)
24.02.2023 11:39 3,5 C 5,6 C 84 % 1010,4 hPa 0,0 l/m 12,0 km/h (2 Bft) S-SW 198 3 min 1,2 UV-I 295 W/m 1,1 C -1,0 C 19,3 km/h (3 Bft)
24.02.2023 11:42 3,8 C 6,1 C 85 % 1010,5 hPa 0,0 l/m 10,4 km/h (2 Bft) S-SW 200 3 min 1,3 UV-I 310 W/m 1,5 C 0,5 C 19,3 km/h (3 Bft)
24.02.2023 11:45 3,7 C 6,1 C 84 % 1010,5 hPa 0,0 l/m 11,7 km/h (2 Bft) W 266 3 min 1,1 UV-I 257 W/m 1,3 C -0,5 C 22,5 km/h (4 Bft)
24.02.2023 11:48 3,8 C 5,6 C 84 % 1010,5 hPa 0,0 l/m 12,2 km/h (2 Bft) SW 224 0 min 0,9 UV-I 213 W/m 1,4 C -0,8 C 22,5 km/h (4 Bft)
24.02.2023 11:51 3,8 C 6,7 C 83 % 1010,5 hPa 0,0 l/m 11,5 km/h (2 Bft) W-SW 252 0 min 1,0 UV-I 246 W/m 1,2 C -0,3 C 27,4 km/h (4 Bft)
24.02.2023 11:54 3,9 C 5,6 C 83 % 1010,4 hPa 0,0 l/m 14,2 km/h (3 Bft) W-SW 254 0 min 0,9 UV-I 182 W/m 1,3 C -1,8 C 24,1 km/h (4 Bft)
24.02.2023 11:57 3,8 C 5,0 C 83 % 1010,5 hPa 0,0 l/m 16,5 km/h (3 Bft) W 270 0 min 0,9 UV-I 165 W/m 1,2 C -3,1 C 24,1 km/h (4 Bft)
24.02.2023 12:00 3,7 C 5,0 C 83 % 1010,3 hPa 0,0 l/m 12,5 km/h (3 Bft) W-SW 251 0 min 1,0 UV-I 181 W/m 1,1 C -1,1 C 24,1 km/h (4 Bft)
24.02.2023 12:03 3,7 C 5,0 C 83 % 1010,3 hPa 0,0 l/m 11,4 km/h (2 Bft) W-SW 255 0 min 1,0 UV-I 190 W/m 1,1 C -0,3 C 22,5 km/h (4 Bft)
24.02.2023 12:06 3,7 C 5,0 C 83 % 1010,3 hPa 0,0 l/m 11,3 km/h (2 Bft) W-SW 249 0 min 1,1 UV-I 194 W/m 1,1 C -0,3 C 22,5 km/h (4 Bft)
24.02.2023 12:09 3,6 C 5,0 C 82 % 1010,3 hPa 0,0 l/m 12,5 km/h (3 Bft) W-SW 252 0 min 1,2 UV-I 201 W/m 0,8 C -1,2 C 20,9 km/h (4 Bft)
24.02.2023 12:12 3,6 C 5,0 C 82 % 1010,1 hPa 0,0 l/m 13,3 km/h (3 Bft) SW 227 0 min 1,2 UV-I 190 W/m 0,8 C -1,7 C 27,4 km/h (4 Bft)
24.02.2023 12:15 3,4 C 5,0 C 82 % 1010,2 hPa 0,0 l/m 14,5 km/h (3 Bft) W 267 0 min 1,3 UV-I 209 W/m 0,6 C -2,6 C 25,7 km/h (4 Bft)
24.02.2023 12:18 3,4 C 5,0 C 82 % 1010,1 hPa 0,0 l/m 16,4 km/h (3 Bft) SW 225 0 min 1,4 UV-I 235 W/m 0,6 C -3,6 C 24,1 km/h (4 Bft)
24.02.2023 12:21 3,6 C 5,6 C 82 % 1010,1 hPa 0,0 l/m 11,7 km/h (2 Bft) W-SW 241 3 min 1,4 UV-I 260 W/m 0,8 C -0,7 C 22,5 km/h (4 Bft)
24.02.2023 12:24 3,6 C 5,6 C 82 % 1010,2 hPa 0,0 l/m 15,5 km/h (3 Bft) W-SW 252 0 min 1,4 UV-I 248 W/m 0,8 C -2,9 C 27,4 km/h (4 Bft)
24.02.2023 12:27 3,6 C 6,7 C 81 % 1010,0 hPa 0,0 l/m 16,0 km/h (3 Bft) W 261 3 min 1,6 UV-I 323 W/m 0,7 C -3,1 C 27,4 km/h (4 Bft)
24.02.2023 12:30 3,7 C 6,7 C 81 % 1010,0 hPa 0,0 l/m 16,9 km/h (3 Bft) W-SW 244 3 min 1,5 UV-I 311 W/m 0,7 C -3,5 C 22,5 km/h (4 Bft)
24.02.2023 12:33 3,9 C 7,2 C 82 % 1009,9 hPa 0,0 l/m 12,8 km/h (3 Bft) SW 234 3 min 1,7 UV-I 362 W/m 1,1 C -1,0 C 25,7 km/h (4 Bft)
24.02.2023 12:36 4,2 C 7,8 C 82 % 1010,0 hPa 0,0 l/m 8,9 km/h (2 Bft) SW 226 3 min 1,6 UV-I 358 W/m 1,4 C 2,0 C 17,7 km/h (3 Bft)
24.02.2023 12:39 4,2 C 7,2 C 81 % 1009,9 hPa 0,0 l/m 12,6 km/h (3 Bft) W-SW 242 3 min 1,5 UV-I 349 W/m 1,2 C -0,5 C 24,1 km/h (4 Bft)
24.02.2023 12:42 4,3 C 8,9 C 81 % 1009,8 hPa 0,0 l/m 13,7 km/h (3 Bft) S-SW 211 3 min 1,8 UV-I 507 W/m 1,3 C -1,1 C 22,5 km/h (4 Bft)
24.02.2023 12:45 4,4 C 8,9 C 80 % 1009,8 hPa 0,0 l/m 14,0 km/h (3 Bft) SW 227 3 min 1,6 UV-I 422 W/m 1,3 C -1,1 C 29,0 km/h (5 Bft)
24.02.2023 12:48 4,2 C 6,7 C 80 % 1009,5 hPa 0,0 l/m 15,7 km/h (3 Bft) W-SW 244 3 min 1,4 UV-I 336 W/m 1,1 C -2,3 C 27,4 km/h (4 Bft)
24.02.2023 12:51 3,9 C 6,1 C 79 % 1009,5 hPa 0,0 l/m 19,1 km/h (3 Bft) SW 226 3 min 1,3 UV-I 275 W/m 0,6 C -4,2 C 29,0 km/h (5 Bft)
24.02.2023 12:54 3,9 C 6,1 C 79 % 1009,4 hPa 0,0 l/m 17,5 km/h (3 Bft) W-SW 246 3 min 1,3 UV-I 298 W/m 0,6 C -3,5 C 30,6 km/h (5 Bft)
24.02.2023 12:57 3,8 C 6,1 C 78 % 1009,4 hPa 0,0 l/m 19,6 km/h (3 Bft) W 269 3 min 1,3 UV-I 274 W/m 0,3 C -4,6 C 27,4 km/h (4 Bft)
24.02.2023 13:00 3,9 C 5,6 C 79 % 1009,4 hPa 0,0 l/m 13,0 km/h (3 Bft) W-SW 244 3 min 1,3 UV-I 262 W/m 0,6 C -1,1 C 20,9 km/h (4 Bft)
24.02.2023 13:03 3,9 C 5,6 C 79 % 1009,2 hPa 0,0 l/m 11,5 km/h (2 Bft) W-SW 250 0 min 1,2 UV-I 244 W/m 0,6 C -0,2 C 19,3 km/h (3 Bft)
24.02.2023 13:06 3,8 C 5,6 C 78 % 1009,2 hPa 0,0 l/m 14,3 km/h (3 Bft) S-SW 213 0 min 1,1 UV-I 226 W/m 0,3 C -2,0 C 25,7 km/h (4 Bft)
24.02.2023 13:09 3,6 C 5,0 C 78 % 1009,1 hPa 0,0 l/m 12,8 km/h (3 Bft) W 271 0 min 1,1 UV-I 212 W/m 0,1 C -1,4 C 24,1 km/h (4 Bft)
24.02.2023 13:12 3,6 C 5,0 C 78 % 1009,2 hPa 0,0 l/m 8,9 km/h (2 Bft) W-SW 248 0 min 1,0 UV-I 197 W/m 0,1 C 1,4 C 20,9 km/h (4 Bft)
24.02.2023 13:15 3,6 C 4,4 C 78 % 1009,0 hPa 0,0 l/m 11,6 km/h (2 Bft) W-SW 253 0 min 0,9 UV-I 189 W/m 0,1 C -0,6 C 17,7 km/h (3 Bft)
24.02.2023 13:18 3,6 C 4,4 C 79 % 1009,1 hPa 0,0 l/m 10,1 km/h (2 Bft) W-SW 244 0 min 0,9 UV-I 181 W/m 0,3 C 0,5 C 19,3 km/h (3 Bft)
24.02.2023 13:21 3,6 C 4,4 C 79 % 1009,0 hPa 0,0 l/m 11,2 km/h (2 Bft) W 263 0 min 0,9 UV-I 178 W/m 0,3 C -0,3 C 20,9 km/h (4 Bft)
24.02.2023 13:24 3,6 C 4,4 C 78 % 1009,0 hPa 0,0 l/m 8,2 km/h (2 Bft) W-SW 257 0 min 0,9 UV-I 178 W/m 0,1 C 2,0 C 17,7 km/h (3 Bft)
24.02.2023 13:27 3,6 C 4,4 C 78 % 1009,1 hPa 0,0 l/m 14,6 km/h (3 Bft) W-SW 238 0 min 0,9 UV-I 166 W/m 0,1 C -2,4 C 24,1 km/h (4 Bft)
24.02.2023 13:30 3,4 C 3,9 C 79 % 1009,0 hPa 0,0 l/m 15,3 km/h (3 Bft) W 272 0 min 0,8 UV-I 154 W/m 0,1 C -3,0 C 25,7 km/h (4 Bft)
24.02.2023 13:33 3,4 C 3,9 C 79 % 1008,9 hPa 0,0 l/m 14,4 km/h (3 Bft) W 263 0 min 0,8 UV-I 152 W/m 0,1 C -2,5 C 24,1 km/h (4 Bft)
24.02.2023 13:36 3,4 C 4,4 C 80 % 1009,0 hPa 0,0 l/m 11,3 km/h (2 Bft) W-SW 240 0 min 0,9 UV-I 162 W/m 0,3 C -0,6 C 22,5 km/h (4 Bft)
24.02.2023 13:39 3,4 C 4,4 C 81 % 1009,0 hPa 0,0 l/m 9,6 km/h (2 Bft) SW 236 0 min 1,0 UV-I 181 W/m 0,5 C 0,6 C 22,5 km/h (4 Bft)
24.02.2023 13:42 3,4 C 4,4 C 79 % 1009,0 hPa 0,0 l/m 13,4 km/h (3 Bft) W-SW 256 0 min 1,0 UV-I 181 W/m 0,1 C -2,0 C 24,1 km/h (4 Bft)
24.02.2023 13:45 3,4 C 4,4 C 80 % 1009,0 hPa 0,0 l/m 9,9 km/h (2 Bft) SW 236 0 min 1,0 UV-I 175 W/m 0,3 C 0,4 C 22,5 km/h (4 Bft)
24.02.2023 13:48 3,4 C 4,4 C 79 % 1008,8 hPa 0,0 l/m 14,2 km/h (3 Bft) SW 231 0 min 1,0 UV-I 181 W/m 0,1 C -2,4 C 24,1 km/h (4 Bft)
24.02.2023 13:51 3,4 C 4,4 C 79 % 1008,9 hPa 0,0 l/m 11,7 km/h (2 Bft) W-SW 247 0 min 1,0 UV-I 181 W/m 0,1 C -0,9 C 17,7 km/h (3 Bft)
24.02.2023 13:54 3,4 C 4,4 C 79 % 1008,7 hPa 0,0 l/m 11,5 km/h (2 Bft) SW 235 0 min 1,0 UV-I 173 W/m 0,1 C -0,8 C 24,1 km/h (4 Bft)
24.02.2023 13:57 3,4 C 4,4 C 78 % 1008,8 hPa 0,0 l/m 13,9 km/h (3 Bft) W-SW 249 0 min 0,9 UV-I 174 W/m -0,1 C -2,2 C 25,7 km/h (4 Bft)
24.02.2023 14:00 3,4 C 4,4 C 79 % 1008,7 hPa 0,0 l/m 11,8 km/h (2 Bft) W 276 0 min 0,9 UV-I 171 W/m 0,1 C -1,0 C 22,5 km/h (4 Bft)
24.02.2023 14:03 3,4 C 4,4 C 78 % 1008,7 hPa 0,0 l/m 14,8 km/h (3 Bft) S-SW 202 0 min 0,8 UV-I 163 W/m -0,1 C -2,8 C 22,5 km/h (4 Bft)
24.02.2023 14:06 3,4 C 4,4 C 78 % 1008,6 hPa 0,0 l/m 12,7 km/h (3 Bft) S-SW 211 0 min 0,8 UV-I 154 W/m -0,1 C -1,5 C 25,7 km/h (4 Bft)
24.02.2023 14:09 3,3 C 4,4 C 78 % 1008,5 hPa 0,0 l/m 12,1 km/h (2 Bft) SW 221 0 min 0,8 UV-I 145 W/m -0,2 C -1,3 C 27,4 km/h (4 Bft)
24.02.2023 14:12 3,3 C 3,9 C 78 % 1008,5 hPa 0,0 l/m 13,0 km/h (3 Bft) W-SW 251 0 min 0,7 UV-I 139 W/m -0,2 C -1,8 C 25,7 km/h (4 Bft)
24.02.2023 14:15 3,3 C 3,9 C 79 % 1008,5 hPa 0,0 l/m 11,9 km/h (2 Bft) W 260 0 min 0,7 UV-I 128 W/m 0,0 C -1,1 C 20,9 km/h (4 Bft)
24.02.2023 14:18 3,3 C 3,9 C 79 % 1008,4 hPa 0,0 l/m 9,7 km/h (2 Bft) W 277 0 min 0,6 UV-I 119 W/m 0,0 C 0,4 C 14,5 km/h (3 Bft)
24.02.2023 14:21 3,3 C 3,9 C 78 % 1008,4 hPa 0,0 l/m 10,1 km/h (2 Bft) S-SW 200 0 min 0,6 UV-I 110 W/m -0,2 C 0,1 C 17,7 km/h (3 Bft)
24.02.2023 14:24 3,3 C 3,9 C 78 % 1008,5 hPa 0,0 l/m 9,1 km/h (2 Bft) SW 225 0 min 0,6 UV-I 106 W/m -0,2 C 0,9 C 17,7 km/h (3 Bft)
24.02.2023 14:27 3,3 C 3,9 C 79 % 1008,4 hPa 0,0 l/m 8,7 km/h (2 Bft) SW 228 0 min 0,6 UV-I 109 W/m 0,0 C 1,2 C 14,5 km/h (3 Bft)
24.02.2023 14:30 3,2 C 3,9 C 79 % 1008,3 hPa 0,0 l/m 10,8 km/h (2 Bft) SW 217 0 min 0,6 UV-I 112 W/m -0,1 C -0,5 C 16,1 km/h (3 Bft)
24.02.2023 14:33 3,2 C 3,9 C 79 % 1008,3 hPa 0,0 l/m 9,0 km/h (2 Bft) S-SW 205 0 min 0,6 UV-I 114 W/m -0,1 C 0,9 C 16,1 km/h (3 Bft)
24.02.2023 14:36 3,3 C 3,9 C 79 % 1008,2 hPa 0,0 l/m 11,4 km/h (2 Bft) S-SW 211 0 min 0,6 UV-I 112 W/m 0,0 C -0,8 C 20,9 km/h (4 Bft)
24.02.2023 14:39 3,3 C 3,9 C 80 % 1008,2 hPa 0,0 l/m 7,6 km/h (2 Bft) SW 232 0 min 0,5 UV-I 107 W/m 0,2 C 2,2 C 14,5 km/h (3 Bft)
24.02.2023 14:42 3,3 C 3,9 C 80 % 1008,1 hPa 0,0 l/m 8,7 km/h (2 Bft) W 277 0 min 0,5 UV-I 105 W/m 0,2 C 1,2 C 16,1 km/h (3 Bft)
24.02.2023 14:45 3,3 C 3,9 C 78 % 1008,0 hPa 0,0 l/m 11,9 km/h (2 Bft) SW 221 0 min 0,5 UV-I 104 W/m -0,2 C -1,1 C 19,3 km/h (3 Bft)
24.02.2023 14:48 3,3 C 3,9 C 78 % 1008,1 hPa 0,0 l/m 14,8 km/h (3 Bft) SW 227 0 min 0,5 UV-I 103 W/m -0,2 C -2,9 C 25,7 km/h (4 Bft)
24.02.2023 14:51 3,2 C 3,3 C 78 % 1008,0 hPa 0,0 l/m 15,6 km/h (3 Bft) W-SW 251 0 min 0,5 UV-I 100 W/m -0,3 C -3,4 C 24,1 km/h (4 Bft)
24.02.2023 14:54 3,2 C 3,3 C 78 % 1008,0 hPa 0,0 l/m 15,0 km/h (3 Bft) W-SW 255 0 min 0,5 UV-I 103 W/m -0,3 C -3,1 C 24,1 km/h (4 Bft)
24.02.2023 14:57 3,3 C 3,9 C 79 % 1008,0 hPa 0,0 l/m 10,5 km/h (2 Bft) W 267 0 min 0,5 UV-I 101 W/m 0,0 C -0,2 C 24,1 km/h (4 Bft)
24.02.2023 15:00 3,3 C 3,9 C 80 % 1007,9 hPa 0,0 l/m 8,5 km/h (2 Bft) S-SW 201 0 min 0,5 UV-I 97 W/m 0,2 C 1,4 C 17,7 km/h (3 Bft)
24.02.2023 15:03 3,3 C 3,3 C 79 % 1008,0 hPa 0,0 l/m 12,1 km/h (2 Bft) SW 215 0 min 0,4 UV-I 93 W/m 0,0 C -1,3 C 19,3 km/h (3 Bft)
24.02.2023 15:06 3,2 C 3,3 C 79 % 1008,0 hPa 0,0 l/m 10,0 km/h (2 Bft) W-SW 257 0 min 0,0 UV-I 82 W/m -0,1 C 0,1 C 17,7 km/h (3 Bft)
24.02.2023 15:09 3,2 C 3,3 C 79 % 1008,1 hPa 0,0 l/m 11,3 km/h (2 Bft) W-SW 245 0 min 0,0 UV-I 75 W/m -0,1 C -0,8 C 19,3 km/h (3 Bft)
24.02.2023 15:12 3,2 C 3,3 C 79 % 1008,0 hPa 0,0 l/m 11,1 km/h (2 Bft) S-SW 208 0 min 0,0 UV-I 71 W/m -0,1 C -0,7 C 22,5 km/h (4 Bft)
24.02.2023 15:15 3,2 C 3,3 C 79 % 1007,9 hPa 0,0 l/m 12,0 km/h (2 Bft) SW 219 0 min 0,0 UV-I 72 W/m -0,1 C -1,3 C 20,9 km/h (4 Bft)
24.02.2023 15:18 3,2 C 3,3 C 79 % 1007,9 hPa 0,0 l/m 9,7 km/h (2 Bft) S-SW 204 0 min 0,0 UV-I 74 W/m -0,1 C 0,3 C 19,3 km/h (3 Bft)
24.02.2023 15:21 3,2 C 3,3 C 79 % 1007,9 hPa 0,0 l/m 10,0 km/h (2 Bft) SW 231 0 min 0,0 UV-I 72 W/m -0,1 C 0,1 C 20,9 km/h (4 Bft)
24.02.2023 15:24 3,2 C 3,3 C 79 % 1007,8 hPa 0,0 l/m 12,0 km/h (2 Bft) W-SW 244 0 min 0,0 UV-I 72 W/m -0,1 C -1,3 C 19,3 km/h (3 Bft)
24.02.2023 15:27 3,1 C 3,3 C 79 % 1007,8 hPa 0,0 l/m 13,6 km/h (3 Bft) W 261 0 min 0,0 UV-I 69 W/m -0,2 C -2,4 C 24,1 km/h (4 Bft)
24.02.2023 15:30 3,0 C 2,8 C 79 % 1007,7 hPa 0,0 l/m 16,8 km/h (3 Bft) SW 228 0 min 0,0 UV-I 67 W/m -0,3 C -4,3 C 25,7 km/h (4 Bft)
24.02.2023 15:33 2,9 C 2,8 C 80 % 1007,7 hPa 0,0 l/m 10,9 km/h (2 Bft) SW 221 0 min 0,0 UV-I 63 W/m -0,2 C -0,9 C 19,3 km/h (3 Bft)
24.02.2023 15:36 2,9 C 2,8 C 81 % 1007,6 hPa 0,0 l/m 12,4 km/h (3 Bft) W-SW 258 0 min 0,0 UV-I 58 W/m -0,0 C -1,9 C 20,9 km/h (4 Bft)
24.02.2023 15:39 2,9 C 2,8 C 81 % 1007,6 hPa 0,0 l/m 10,7 km/h (2 Bft) S-SO 155 0 min 0,0 UV-I 56 W/m -0,0 C -0,8 C 17,7 km/h (3 Bft)
24.02.2023 15:42 2,9 C 2,8 C 81 % 1007,6 hPa 0,0 l/m 12,6 km/h (3 Bft) W-SW 252 0 min 0,0 UV-I 60 W/m -0,0 C -2,1 C 22,5 km/h (4 Bft)
24.02.2023 15:45 2,9 C 2,8 C 82 % 1007,6 hPa 0,0 l/m 9,6 km/h (2 Bft) W-SW 252 0 min 0,0 UV-I 64 W/m 0,1 C 0,1 C 20,9 km/h (4 Bft)
24.02.2023 15:48 2,8 C 2,8 C 82 % 1007,7 hPa 0,0 l/m 13,2 km/h (3 Bft) SW 219 0 min 0,0 UV-I 63 W/m 0,0 C -2,5 C 24,1 km/h (4 Bft)
24.02.2023 15:51 2,8 C 2,8 C 83 % 1007,7 hPa 0,0 l/m 13,6 km/h (3 Bft) W-SW 258 0 min 0,0 UV-I 62 W/m 0,2 C -2,8 C 19,3 km/h (3 Bft)
24.02.2023 15:54 2,8 C 2,8 C 83 % 1007,6 hPa 0,0 l/m 12,2 km/h (2 Bft) S-SW 197 0 min 0,0 UV-I 62 W/m 0,2 C -1,9 C 22,5 km/h (4 Bft)
24.02.2023 15:57 2,8 C 2,8 C 83 % 1007,6 hPa 0,0 l/m 11,5 km/h (2 Bft) W-SW 240 0 min 0,0 UV-I 53 W/m 0,2 C -1,4 C 19,3 km/h (3 Bft)
24.02.2023 16:00 2,7 C 2,8 C 83 % 1007,7 hPa 0,0 l/m 12,7 km/h (3 Bft) W-SW 247 0 min 0,0 UV-I 55 W/m 0,1 C -2,3 C 22,5 km/h (4 Bft)
24.02.2023 16:03 2,7 C 2,8 C 84 % 1007,6 hPa 0,0 l/m 10,7 km/h (2 Bft) SW 235 0 min 0,0 UV-I 51 W/m 0,3 C -1,0 C 19,3 km/h (3 Bft)
24.02.2023 16:06 2,7 C 2,8 C 84 % 1007,5 hPa 0,0 l/m 11,8 km/h (2 Bft) SW 225 0 min 0,0 UV-I 49 W/m 0,3 C -1,8 C 29,0 km/h (5 Bft)
24.02.2023 16:09 2,6 C 2,2 C 84 % 1007,4 hPa 0,0 l/m 14,4 km/h (3 Bft) W-SW 257 0 min 0,0 UV-I 55 W/m 0,2 C -3,5 C 29,0 km/h (5 Bft)
24.02.2023 16:12 2,6 C 2,2 C 85 % 1007,3 hPa 0,0 l/m 11,2 km/h (2 Bft) SW 222 0 min 0,0 UV-I 56 W/m 0,3 C -1,5 C 24,1 km/h (4 Bft)
24.02.2023 16:15 2,5 C 2,2 C 85 % 1007,3 hPa 0,0 l/m 13,1 km/h (3 Bft) W 265 0 min 0,0 UV-I 54 W/m 0,2 C -2,8 C 20,9 km/h (4 Bft)
24.02.2023 16:18 2,4 C 2,2 C 85 % 1007,3 hPa 0,0 l/m 13,0 km/h (3 Bft) SW 227 0 min 0,0 UV-I 56 W/m 0,1 C -2,9 C 25,7 km/h (4 Bft)
24.02.2023 16:21 2,4 C 2,2 C 85 % 1007,4 hPa 0,0 l/m 12,6 km/h (3 Bft) W-SW 248 0 min 0,0 UV-I 49 W/m 0,1 C -2,6 C 22,5 km/h (4 Bft)
24.02.2023 16:24 2,4 C 2,2 C 86 % 1007,5 hPa 0,0 l/m 12,5 km/h (3 Bft) SW 218 0 min 0,0 UV-I 37 W/m 0,3 C -2,6 C 20,9 km/h (4 Bft)
24.02.2023 16:27 2,4 C 2,2 C 86 % 1007,4 hPa 0,0 l/m 10,4 km/h (2 Bft) SW 227 0 min 0,0 UV-I 36 W/m 0,3 C -1,1 C 19,3 km/h (3 Bft)
24.02.2023 16:30 2,3 C 2,2 C 86 % 1007,3 hPa 0,0 l/m 8,9 km/h (2 Bft) SW 227 0 min 0,0 UV-I 33 W/m 0,2 C -0,0 C 22,5 km/h (4 Bft)
24.02.2023 16:33 2,3 C 2,2 C 86 % 1007,3 hPa 0,0 l/m 13,4 km/h (3 Bft) W-SW 250 0 min 0,0 UV-I 31 W/m 0,2 C -3,3 C 24,1 km/h (4 Bft)
24.02.2023 16:36 2,3 C 2,2 C 86 % 1007,3 hPa 0,0 l/m 10,4 km/h (2 Bft) W-SW 240 0 min 0,0 UV-I 28 W/m 0,2 C -1,2 C 19,3 km/h (3 Bft)
24.02.2023 16:39 2,3 C 2,2 C 87 % 1007,4 hPa 0,0 l/m 7,5 km/h (2 Bft) SW 230 0 min 0,0 UV-I 27 W/m 0,4 C 1,2 C 14,5 km/h (3 Bft)
24.02.2023 16:42 2,3 C 2,2 C 87 % 1007,3 hPa 0,0 l/m 6,7 km/h (2 Bft) SW 219 0 min 0,0 UV-I 27 W/m 0,4 C 2,0 C 14,5 km/h (3 Bft)
24.02.2023 16:45 2,3 C 2,2 C 87 % 1007,3 hPa 0,0 l/m 5,5 km/h (1 Bft) W 259 0 min 0,0 UV-I 31 W/m 0,4 C 2,3 C 9,7 km/h (2 Bft)
24.02.2023 16:48 2,3 C 2,2 C 87 % 1007,3 hPa 0,0 l/m 8,5 km/h (2 Bft) SW 231 0 min 0,0 UV-I 30 W/m 0,4 C 0,3 C 19,3 km/h (3 Bft)
24.02.2023 16:51 2,3 C 2,2 C 87 % 1007,4 hPa 0,0 l/m 8,6 km/h (2 Bft) SW 232 0 min 0,0 UV-I 27 W/m 0,4 C 0,2 C 17,7 km/h (3 Bft)
24.02.2023 16:54 2,3 C 2,2 C 88 % 1007,4 hPa 0,0 l/m 5,5 km/h (1 Bft) W-SW 243 0 min 0,0 UV-I 25 W/m 0,5 C 2,3 C 12,9 km/h (3 Bft)
24.02.2023 16:57 2,3 C 2,2 C 88 % 1007,4 hPa 0,0 l/m 7,3 km/h (2 Bft) SW 236 0 min 0,0 UV-I 24 W/m 0,5 C 1,4 C 12,9 km/h (3 Bft)
24.02.2023 17:00 2,3 C 2,2 C 88 % 1007,3 hPa 0,0 l/m 6,7 km/h (2 Bft) W-SW 238 0 min 0,0 UV-I 23 W/m 0,5 C 2,0 C 16,1 km/h (3 Bft)
24.02.2023 17:03 2,2 C 1,7 C 88 % 1007,3 hPa 0,0 l/m 8,7 km/h (2 Bft) SW 236 0 min 0,0 UV-I 22 W/m 0,4 C 0,0 C 14,5 km/h (3 Bft)
24.02.2023 17:06 2,2 C 1,7 C 88 % 1007,3 hPa 0,0 l/m 7,1 km/h (2 Bft) S-SW 203 0 min 0,0 UV-I 20 W/m 0,4 C 1,5 C 12,9 km/h (3 Bft)
24.02.2023 17:09 2,2 C 1,7 C 89 % 1007,3 hPa 0,2 l/m 5,1 km/h (1 Bft) W-SW 254 0 min 0,0 UV-I 17 W/m 0,6 C 2,2 C 11,3 km/h (2 Bft)
24.02.2023 17:12 2,2 C 1,7 C 89 % 1007,3 hPa 0,0 l/m 4,2 km/h (1 Bft) SW 234 0 min 0,0 UV-I 18 W/m 0,6 C 2,2 C 8,0 km/h (2 Bft)
24.02.2023 17:15 2,1 C 1,7 C 89 % 1007,3 hPa 0,0 l/m 4,1 km/h (1 Bft) SW 219 0 min 0,0 UV-I 18 W/m 0,5 C 2,1 C 9,7 km/h (2 Bft)
24.02.2023 17:18 2,1 C 1,7 C 89 % 1007,3 hPa 0,0 l/m 4,5 km/h (1 Bft) W-SW 242 0 min 0,0 UV-I 19 W/m 0,5 C 2,1 C 9,7 km/h (2 Bft)
24.02.2023 17:21 2,1 C 1,7 C 89 % 1007,4 hPa 0,0 l/m 5,3 km/h (1 Bft) S-SW 196 0 min 0,0 UV-I 14 W/m 0,5 C 2,1 C 14,5 km/h (3 Bft)
24.02.2023 17:24 2,1 C 1,7 C 89 % 1007,3 hPa 0,0 l/m 8,7 km/h (2 Bft) W-SW 240 0 min 0,0 UV-I 12 W/m 0,5 C -0,1 C 20,9 km/h (4 Bft)
24.02.2023 17:27 2,0 C 1,7 C 89 % 1007,3 hPa 0,0 l/m 7,5 km/h (2 Bft) W-SW 240 0 min 0,0 UV-I 12 W/m 0,4 C 0,9 C 14,5 km/h (3 Bft)
24.02.2023 17:30 2,0 C 1,7 C 90 % 1007,2 hPa 0,0 l/m 6,7 km/h (2 Bft) W-SW 255 0 min 0,0 UV-I 12 W/m 0,5 C 1,7 C 14,5 km/h (3 Bft)
24.02.2023 17:33 2,0 C 1,7 C 90 % 1007,2 hPa 0,0 l/m 6,7 km/h (2 Bft) W-SW 241 0 min 0,0 UV-I 12 W/m 0,5 C 1,7 C 16,1 km/h (3 Bft)
24.02.2023 17:36 2,0 C 1,7 C 90 % 1007,2 hPa 0,0 l/m 3,8 km/h (1 Bft) W 267 0 min 0,0 UV-I 9 W/m 0,5 C 2,0 C 6,4 km/h (2 Bft)
24.02.2023 17:39 1,9 C 1,7 C 90 % 1007,2 hPa 0,0 l/m 9,5 km/h (2 Bft) W-SW 245 0 min 0,0 UV-I 9 W/m 0,4 C -1,0 C 19,3 km/h (3 Bft)
24.02.2023 17:42 1,9 C 1,7 C 90 % 1007,2 hPa 0,0 l/m 7,2 km/h (2 Bft) W-SW 247 0 min 0,0 UV-I 8 W/m 0,4 C 1,1 C 17,7 km/h (3 Bft)
24.02.2023 17:45 1,9 C 1,7 C 90 % 1007,2 hPa 0,0 l/m 6,3 km/h (2 Bft) W-NW 286 0 min 0,0 UV-I 7 W/m 0,4 C 1,9 C 16,1 km/h (3 Bft)
24.02.2023 17:48 1,9 C 1,7 C 90 % 1007,2 hPa 0,0 l/m 7,5 km/h (2 Bft) S 191 0 min 0,0 UV-I 7 W/m 0,4 C 0,8 C 12,9 km/h (3 Bft)
24.02.2023 17:51 1,9 C 1,7 C 90 % 1007,1 hPa 0,0 l/m 11,9 km/h (2 Bft) SW 236 0 min 0,0 UV-I 6 W/m 0,4 C -2,7 C 22,5 km/h (4 Bft)
24.02.2023 17:54 1,9 C 1,7 C 90 % 1007,2 hPa 0,0 l/m 8,3 km/h (2 Bft) W 275 0 min 0,0 UV-I 1 W/m 0,4 C 0,1 C 19,3 km/h (3 Bft)
24.02.2023 17:57 1,9 C 1,7 C 90 % 1007,3 hPa 0,0 l/m 8,8 km/h (2 Bft) S-SW 213 0 min 0,0 UV-I 0 W/m 0,4 C -0,4 C 16,1 km/h (3 Bft)
24.02.2023 18:00 1,9 C 1,7 C 90 % 1007,2 hPa 0,0 l/m 8,6 km/h (2 Bft) W 266 0 min 0,0 UV-I 0 W/m 0,4 C -0,2 C 22,5 km/h (4 Bft)
24.02.2023 18:03 1,9 C 1,1 C 90 % 1007,1 hPa 0,0 l/m 7,7 km/h (2 Bft) SW 232 0 min 0,0 UV-I 0 W/m 0,4 C 0,6 C 14,5 km/h (3 Bft)
24.02.2023 18:06 1,8 C 1,1 C 90 % 1007,2 hPa 0,0 l/m 9,8 km/h (2 Bft) SW 235 0 min 0,0 UV-I 0 W/m 0,3 C -1,3 C 20,9 km/h (4 Bft)
24.02.2023 18:09 1,8 C 1,1 C 90 % 1007,0 hPa 0,0 l/m 8,1 km/h (2 Bft) W 260 0 min 0,0 UV-I 0 W/m 0,3 C 0,2 C 16,1 km/h (3 Bft)
24.02.2023 18:12 1,8 C 1,1 C 90 % 1007,1 hPa 0,0 l/m 5,1 km/h (1 Bft) W 260 0 min 0,0 UV-I 0 W/m 0,3 C 1,8 C 12,9 km/h (3 Bft)
24.02.2023 18:15 1,8 C 1,1 C 90 % 1007,0 hPa 0,0 l/m 5,8 km/h (2 Bft) W 272 0 min 0,0 UV-I 0 W/m 0,3 C 1,8 C 14,5 km/h (3 Bft)
24.02.2023 18:18 1,7 C 1,1 C 90 % 1007,2 hPa 0,0 l/m 4,6 km/h (1 Bft) SW 236 0 min 0,0 UV-I 0 W/m 0,2 C 1,7 C 11,3 km/h (2 Bft)
24.02.2023 18:21 1,8 C 1,1 C 90 % 1007,1 hPa 0,0 l/m 6,9 km/h (2 Bft) S-SW 200 0 min 0,0 UV-I 0 W/m 0,3 C 1,3 C 12,9 km/h (3 Bft)
24.02.2023 18:24 1,8 C 1,1 C 90 % 1007,2 hPa 0,0 l/m 3,9 km/h (1 Bft) W-SW 242 0 min 0,0 UV-I 0 W/m 0,3 C 1,8 C 8,0 km/h (2 Bft)
24.02.2023 18:27 1,8 C 1,1 C 90 % 1007,1 hPa 0,0 l/m 9,3 km/h (2 Bft) SW 233 0 min 0,0 UV-I 0 W/m 0,3 C -0,9 C 17,7 km/h (3 Bft)
24.02.2023 18:30 1,8 C 1,1 C 90 % 1007,1 hPa 0,0 l/m 8,2 km/h (2 Bft) W 267 0 min 0,0 UV-I 0 W/m 0,3 C 0,1 C 14,5 km/h (3 Bft)
24.02.2023 18:33 1,8 C 1,1 C 90 % 1007,2 hPa 0,0 l/m 8,3 km/h (2 Bft) W-SW 242 0 min 0,0 UV-I 0 W/m 0,3 C -0,0 C 17,7 km/h (3 Bft)
24.02.2023 18:36 1,8 C 1,1 C 90 % 1007,2 hPa 0,0 l/m 11,9 km/h (2 Bft) W-SW 240 0 min 0,0 UV-I 0 W/m 0,3 C -2,9 C 24,1 km/h (4 Bft)
24.02.2023 18:39 1,8 C 1,1 C 90 % 1007,2 hPa 0,0 l/m 9,6 km/h (2 Bft) S-SW 213 0 min 0,0 UV-I 0 W/m 0,3 C -1,1 C 20,9 km/h (4 Bft)
24.02.2023 18:42 1,8 C 1,1 C 91 % 1007,1 hPa 0,0 l/m 4,6 km/h (1 Bft) W-SW 254 0 min 0,0 UV-I 0 W/m 0,5 C 1,8 C 12,9 km/h (3 Bft)
24.02.2023 18:45 1,8 C 1,1 C 91 % 1007,0 hPa 0,0 l/m 8,7 km/h (2 Bft) W-SW 240 0 min 0,0 UV-I 0 W/m 0,5 C -0,4 C 17,7 km/h (3 Bft)
24.02.2023 18:48 1,8 C 1,7 C 91 % 1007,1 hPa 0,0 l/m 10,5 km/h (2 Bft) SW 222 0 min 0,0 UV-I 0 W/m 0,5 C -1,8 C 17,7 km/h (3 Bft)
24.02.2023 18:51 1,8 C 1,7 C 91 % 1007,1 hPa 0,0 l/m 8,4 km/h (2 Bft) W-SW 251 0 min 0,0 UV-I 0 W/m 0,5 C -0,1 C 16,1 km/h (3 Bft)
24.02.2023 18:54 1,8 C 1,7 C 91 % 1007,2 hPa 0,0 l/m 7,6 km/h (2 Bft) SW 234 0 min 0,0 UV-I 0 W/m 0,5 C 0,6 C 14,5 km/h (3 Bft)
24.02.2023 18:57 1,9 C 1,7 C 91 % 1007,1 hPa 0,0 l/m 6,9 km/h (2 Bft) W-SW 254 0 min 0,0 UV-I 0 W/m 0,6 C 1,4 C 12,9 km/h (3 Bft)
24.02.2023 19:00 1,8 C 1,7 C 91 % 1007,1 hPa 0,0 l/m 6,5 km/h (2 Bft) W-SW 257 0 min 0,0 UV-I 0 W/m 0,5 C 1,7 C 16,1 km/h (3 Bft)
24.02.2023 19:03 1,9 C 1,7 C 91 % 1007,1 hPa 0,0 l/m 6,2 km/h (2 Bft) SW 215 0 min 0,0 UV-I 0 W/m 0,6 C 1,9 C 19,3 km/h (3 Bft)
24.02.2023 19:06 1,9 C 1,7 C 91 % 1007,2 hPa 0,0 l/m 10,1 km/h (2 Bft) SW 234 0 min 0,0 UV-I 0 W/m 0,6 C -1,4 C 19,3 km/h (3 Bft)
24.02.2023 19:09 1,9 C 1,7 C 91 % 1007,3 hPa 0,0 l/m 12,3 km/h (3 Bft) SW 223 0 min 0,0 UV-I 0 W/m 0,6 C -3,0 C 22,5 km/h (4 Bft)
24.02.2023 19:12 1,9 C 1,7 C 91 % 1007,2 hPa 0,0 l/m 9,9 km/h (2 Bft) W-SW 250 0 min 0,0 UV-I 0 W/m 0,6 C -1,3 C 17,7 km/h (3 Bft)
24.02.2023 19:15 1,9 C 1,7 C 91 % 1007,2 hPa 0,0 l/m 10,2 km/h (2 Bft) W-SW 242 0 min 0,0 UV-I 0 W/m 0,6 C -1,5 C 19,3 km/h (3 Bft)
24.02.2023 19:18 2,0 C 1,7 C 91 % 1007,3 hPa 0,0 l/m 10,5 km/h (2 Bft) W-SW 237 0 min 0,0 UV-I 0 W/m 0,7 C -1,6 C 16,1 km/h (3 Bft)
24.02.2023 19:21 2,0 C 1,7 C 91 % 1007,3 hPa 0,0 l/m 8,4 km/h (2 Bft) W-SW 254 0 min 0,0 UV-I 0 W/m 0,7 C 0,1 C 17,7 km/h (3 Bft)
24.02.2023 19:24 2,1 C 1,7 C 91 % 1007,3 hPa 0,0 l/m 5,9 km/h (2 Bft) SW 235 0 min 0,0 UV-I 0 W/m 0,8 C 2,1 C 11,3 km/h (2 Bft)
24.02.2023 19:27 2,1 C 1,7 C 91 % 1007,4 hPa 0,0 l/m 4,2 km/h (1 Bft) W 266 0 min 0,0 UV-I 0 W/m 0,8 C 2,1 C 9,7 km/h (2 Bft)
24.02.2023 19:30 2,1 C 1,7 C 91 % 1007,5 hPa 0,0 l/m 8,4 km/h (2 Bft) W-SW 252 0 min 0,0 UV-I 0 W/m 0,8 C 0,2 C 20,9 km/h (4 Bft)
24.02.2023 19:33 2,2 C 1,7 C 91 % 1007,5 hPa 0,0 l/m 12,9 km/h (3 Bft) W-NW 300 0 min 0,0 UV-I 0 W/m 0,9 C -3,1 C 24,1 km/h (4 Bft)
24.02.2023 19:36 2,2 C 1,7 C 91 % 1007,4 hPa 0,0 l/m 5,4 km/h (1 Bft) W-SW 244 0 min 0,0 UV-I 0 W/m 0,9 C 2,2 C 11,3 km/h (2 Bft)
24.02.2023 19:39 2,3 C 1,7 C 90 % 1007,5 hPa 0,0 l/m 8,8 km/h (2 Bft) SW 235 0 min 0,0 UV-I 0 W/m 0,8 C 0,1 C 19,3 km/h (3 Bft)
24.02.2023 19:42 2,3 C 1,7 C 90 % 1007,5 hPa 0,0 l/m 8,6 km/h (2 Bft) W 262 0 min 0,0 UV-I 0 W/m 0,8 C 0,2 C 16,1 km/h (3 Bft)
24.02.2023 19:45 2,3 C 1,7 C 90 % 1007,5 hPa 0,0 l/m 8,9 km/h (2 Bft) W-SW 255 0 min 0,0 UV-I 0 W/m 0,8 C -0,0 C 17,7 km/h (3 Bft)
24.02.2023 19:48 2,3 C 1,7 C 90 % 1007,5 hPa 0,0 l/m 6,7 km/h (2 Bft) W-SW 245 0 min 0,0 UV-I 0 W/m 0,8 C 2,0 C 12,9 km/h (3 Bft)
24.02.2023 19:51 2,4 C 1,7 C 90 % 1007,5 hPa 0,0 l/m 7,4 km/h (2 Bft) W-SW 245 0 min 0,0 UV-I 0 W/m 0,9 C 1,4 C 17,7 km/h (3 Bft)
24.02.2023 19:54 2,4 C 1,7 C 90 % 1007,5 hPa 0,0 l/m 7,3 km/h (2 Bft) W-SW 253 0 min 0,0 UV-I 0 W/m 0,9 C 1,5 C 12,9 km/h (3 Bft)
24.02.2023 19:57 2,4 C 1,7 C 90 % 1007,3 hPa 0,0 l/m 7,0 km/h (2 Bft) SW 220 0 min 0,0 UV-I 0 W/m 0,9 C 1,8 C 12,9 km/h (3 Bft)
24.02.2023 20:00 2,5 C 1,7 C 90 % 1007,5 hPa 0,0 l/m 7,1 km/h (2 Bft) W-SW 257 0 min 0,0 UV-I 0 W/m 1,0 C 1,8 C 17,7 km/h (3 Bft)
24.02.2023 20:03 2,5 C 1,7 C 89 % 1007,5 hPa 0,0 l/m 9,1 km/h (2 Bft) W-SW 253 0 min 0,0 UV-I 0 W/m 0,9 C 0,0 C 17,7 km/h (3 Bft)
24.02.2023 20:06 2,5 C 1,7 C 89 % 1007,4 hPa 0,0 l/m 5,7 km/h (1 Bft) W-SW 254 0 min 0,0 UV-I 0 W/m 0,9 C 2,5 C 12,9 km/h (3 Bft)
24.02.2023 20:09 2,5 C 1,7 C 89 % 1007,5 hPa 0,0 l/m 4,6 km/h (1 Bft) W-SW 242 0 min 0,0 UV-I 0 W/m 0,9 C 2,5 C 11,3 km/h (2 Bft)
24.02.2023 20:12 2,6 C 1,7 C 89 % 1007,5 hPa 0,0 l/m 7,1 km/h (2 Bft) W 259 0 min 0,0 UV-I 0 W/m 1,0 C 1,9 C 17,7 km/h (3 Bft)
24.02.2023 20:15 2,5 C 1,7 C 89 % 1007,3 hPa 0,2 l/m 9,5 km/h (2 Bft) W 277 0 min 0,0 UV-I 0 W/m 0,9 C -0,3 C 17,7 km/h (3 Bft)
24.02.2023 20:18 2,3 C 1,7 C 89 % 1007,3 hPa 0,0 l/m 8,4 km/h (2 Bft) W-NW 296 0 min 0,0 UV-I 0 W/m 0,7 C 0,4 C 16,1 km/h (3 Bft)
24.02.2023 20:21 2,3 C 1,1 C 89 % 1007,4 hPa 0,0 l/m 5,0 km/h (1 Bft) W-SW 244 0 min 0,0 UV-I 0 W/m 0,7 C 2,3 C 11,3 km/h (2 Bft)
24.02.2023 20:24 2,2 C 1,1 C 89 % 1007,5 hPa 0,0 l/m 5,8 km/h (2 Bft) W 260 0 min 0,0 UV-I 0 W/m 0,6 C 2,2 C 12,9 km/h (3 Bft)
24.02.2023 20:27 2,2 C 1,7 C 89 % 1007,6 hPa 0,0 l/m 7,0 km/h (2 Bft) W-SW 257 0 min 0,0 UV-I 0 W/m 0,6 C 1,6 C 19,3 km/h (3 Bft)
24.02.2023 20:30 2,3 C 1,7 C 89 % 1007,5 hPa 0,0 l/m 3,5 km/h (1 Bft) W-SW 257 0 min 0,0 UV-I 0 W/m 0,7 C 2,3 C 9,7 km/h (2 Bft)
24.02.2023 20:33 2,3 C 1,7 C 89 % 1007,5 hPa 0,0 l/m 5,5 km/h (1 Bft) S-SW 211 0 min 0,0 UV-I 0 W/m 0,7 C 2,3 C 12,9 km/h (3 Bft)
24.02.2023 20:36 2,3 C 1,7 C 89 % 1007,5 hPa 0,0 l/m 4,9 km/h (1 Bft) SW 229 0 min 0,0 UV-I 0 W/m 0,7 C 2,3 C 16,1 km/h (3 Bft)
24.02.2023 20:39 2,3 C 1,7 C 89 % 1007,6 hPa 0,2 l/m 4,8 km/h (1 Bft) W 275 0 min 0,0 UV-I 0 W/m 0,7 C 2,3 C 11,3 km/h (2 Bft)
24.02.2023 20:42 2,3 C 1,7 C 89 % 1007,6 hPa 0,0 l/m 3,5 km/h (1 Bft) W 263 0 min 0,0 UV-I 0 W/m 0,7 C 2,3 C 8,0 km/h (2 Bft)
24.02.2023 20:45 2,3 C 1,7 C 89 % 1007,7 hPa 0,0 l/m 3,2 km/h (1 Bft) W 261 0 min 0,0 UV-I 0 W/m 0,7 C 2,3 C 11,3 km/h (2 Bft)
24.02.2023 20:48 2,4 C 1,7 C 89 % 1007,6 hPa 0,0 l/m 4,0 km/h (1 Bft) W-SW 247 0 min 0,0 UV-I 0 W/m 0,8 C 2,4 C 9,7 km/h (2 Bft)
24.02.2023 20:51 2,4 C 1,7 C 89 % 1007,6 hPa 0,0 l/m 4,8 km/h (1 Bft) W-NW 284 0 min 0,0 UV-I 0 W/m 0,8 C 2,4 C 14,5 km/h (3 Bft)
24.02.2023 20:54 2,4 C 1,7 C 89 % 1007,4 hPa 0,0 l/m 4,9 km/h (1 Bft) W-SW 256 0 min 0,0 UV-I 0 W/m 0,8 C 2,4 C 12,9 km/h (3 Bft)
24.02.2023 20:57 2,4 C 1,7 C 89 % 1007,5 hPa 0,0 l/m 6,0 km/h (2 Bft) W-SW 254 0 min 0,0 UV-I 0 W/m 0,8 C 2,4 C 17,7 km/h (3 Bft)
24.02.2023 21:00 2,4 C 1,7 C 89 % 1007,5 hPa 0,0 l/m 2,8 km/h (1 Bft) W-NW 288 0 min 0,0 UV-I 0 W/m 0,8 C 2,4 C 6,4 km/h (2 Bft)
24.02.2023 21:03 2,4 C 1,7 C 89 % 1007,5 hPa 0,0 l/m 5,4 km/h (1 Bft) W 261 0 min 0,0 UV-I 0 W/m 0,8 C 2,4 C 14,5 km/h (3 Bft)
24.02.2023 21:06 2,4 C 1,7 C 89 % 1007,6 hPa 0,0 l/m 2,4 km/h (1 Bft) W 269 0 min 0,0 UV-I 0 W/m 0,8 C 2,4 C 6,4 km/h (2 Bft)
24.02.2023 21:09 2,4 C 1,7 C 89 % 1007,6 hPa 0,0 l/m 3,8 km/h (1 Bft) W-SW 253 0 min 0,0 UV-I 0 W/m 0,8 C 2,4 C 14,5 km/h (3 Bft)
24.02.2023 21:12 2,3 C 1,7 C 89 % 1007,7 hPa 0,0 l/m 3,4 km/h (1 Bft) NW 317 0 min 0,0 UV-I 0 W/m 0,7 C 2,3 C 9,7 km/h (2 Bft)
24.02.2023 21:15 2,3 C 1,7 C 89 % 1007,7 hPa 0,0 l/m 2,8 km/h (1 Bft) SW 229 0 min 0,0 UV-I 0 W/m 0,7 C 2,3 C 9,7 km/h (2 Bft)
24.02.2023 21:18 2,3 C 1,7 C 89 % 1007,7 hPa 0,0 l/m 4,7 km/h (1 Bft) SW 228 0 min 0,0 UV-I 0 W/m 0,7 C 2,3 C 16,1 km/h (3 Bft)
24.02.2023 21:21 2,3 C 1,7 C 89 % 1007,7 hPa 0,0 l/m 5,4 km/h (1 Bft) W 275 0 min 0,0 UV-I 0 W/m 0,7 C 2,3 C 14,5 km/h (3 Bft)
24.02.2023 21:24 2,3 C 1,7 C 89 % 1007,7 hPa 0,0 l/m 7,8 km/h (2 Bft) W-SW 249 0 min 0,0 UV-I 0 W/m 0,7 C 1,0 C 17,7 km/h (3 Bft)
24.02.2023 21:27 2,3 C 1,7 C 88 % 1007,8 hPa 0,0 l/m 6,2 km/h (2 Bft) W-SW 242 0 min 0,0 UV-I 0 W/m 0,5 C 2,3 C 16,1 km/h (3 Bft)
24.02.2023 21:30 2,3 C 1,7 C 88 % 1007,7 hPa 0,0 l/m 6,2 km/h (2 Bft) W 268 0 min 0,0 UV-I 0 W/m 0,5 C 2,3 C 12,9 km/h (3 Bft)
24.02.2023 21:33 2,3 C 1,7 C 88 % 1007,6 hPa 0,2 l/m 3,8 km/h (1 Bft) W 276 0 min 0,0 UV-I 0 W/m 0,5 C 2,3 C 14,5 km/h (3 Bft)
24.02.2023 21:36 2,2 C 1,7 C 88 % 1007,8 hPa 0,0 l/m 2,2 km/h (1 Bft) SW 230 0 min 0,0 UV-I 0 W/m 0,4 C 2,2 C 9,7 km/h (2 Bft)
24.02.2023 21:39 2,3 C 1,7 C 88 % 1007,7 hPa 0,0 l/m 3,7 km/h (1 Bft) W-SW 242 0 min 0,0 UV-I 0 W/m 0,5 C 2,3 C 11,3 km/h (2 Bft)
24.02.2023 21:42 2,2 C 1,7 C 88 % 1007,7 hPa 0,0 l/m 5,4 km/h (1 Bft) NW 324 0 min 0,0 UV-I 0 W/m 0,4 C 2,2 C 9,7 km/h (2 Bft)
24.02.2023 21:45 2,2 C 1,1 C 88 % 1007,6 hPa 0,0 l/m 7,1 km/h (2 Bft) W 262 0 min 0,0 UV-I 0 W/m 0,4 C 1,5 C 12,9 km/h (3 Bft)
24.02.2023 21:48 2,1 C 1,1 C 88 % 1007,7 hPa 0,0 l/m 7,0 km/h (2 Bft) W 261 0 min 0,0 UV-I 0 W/m 0,3 C 1,5 C 16,1 km/h (3 Bft)
24.02.2023 21:51 2,1 C 1,1 C 88 % 1007,8 hPa 0,0 l/m 5,4 km/h (1 Bft) W 279 0 min 0,0 UV-I 0 W/m 0,3 C 2,1 C 14,5 km/h (3 Bft)
24.02.2023 21:54 2,1 C 1,1 C 88 % 1007,8 hPa 0,0 l/m 2,5 km/h (1 Bft) N-NW 336 0 min 0,0 UV-I 0 W/m 0,3 C 2,1 C 12,9 km/h (3 Bft)
24.02.2023 21:57 2,1 C 1,1 C 88 % 1007,6 hPa 0,0 l/m 4,4 km/h (1 Bft) W 279 0 min 0,0 UV-I 0 W/m 0,3 C 2,1 C 16,1 km/h (3 Bft)
24.02.2023 22:00 2,1 C 1,7 C 88 % 1007,8 hPa 0,0 l/m 6,9 km/h (2 Bft) NW 310 0 min 0,0 UV-I 0 W/m 0,3 C 1,6 C 17,7 km/h (3 Bft)
24.02.2023 22:03 2,1 C 1,7 C 88 % 1007,9 hPa 0,0 l/m 8,7 km/h (2 Bft) W 263 0 min 0,0 UV-I 0 W/m 0,3 C -0,1 C 22,5 km/h (4 Bft)
24.02.2023 22:06 2,1 C 1,7 C 88 % 1007,6 hPa 0,0 l/m 7,1 km/h (2 Bft) NW 309 0 min 0,0 UV-I 0 W/m 0,3 C 1,4 C 16,1 km/h (3 Bft)
24.02.2023 22:09 1,9 C 1,1 C 88 % 1007,9 hPa 0,0 l/m 8,2 km/h (2 Bft) N-NW 346 0 min 0,0 UV-I 0 W/m 0,1 C 0,2 C 20,9 km/h (4 Bft)
24.02.2023 22:12 1,7 C 1,1 C 88 % 1007,8 hPa 0,0 l/m 4,0 km/h (1 Bft) NW 306 0 min 0,0 UV-I 0 W/m -0,1 C 1,7 C 12,9 km/h (3 Bft)
24.02.2023 22:15 1,6 C 0,6 C 88 % 1007,9 hPa 0,0 l/m 3,8 km/h (1 Bft) N-NO 13 0 min 0,0 UV-I 0 W/m -0,2 C 1,6 C 9,7 km/h (2 Bft)
24.02.2023 22:18 1,5 C 1,1 C 89 % 1007,9 hPa 0,0 l/m 7,7 km/h (2 Bft) W-NW 301 0 min 0,0 UV-I 0 W/m -0,1 C 0,2 C 19,3 km/h (3 Bft)
24.02.2023 22:21 1,5 C 1,1 C 89 % 1007,9 hPa 0,0 l/m 11,1 km/h (2 Bft) W 269 0 min 0,0 UV-I 0 W/m -0,1 C -2,6 C 30,6 km/h (5 Bft)
24.02.2023 22:24 1,4 C 1,1 C 89 % 1007,8 hPa 0,0 l/m 6,1 km/h (2 Bft) W 276 0 min 0,0 UV-I 0 W/m -0,2 C 1,4 C 16,1 km/h (3 Bft)
24.02.2023 22:27 1,4 C 1,1 C 89 % 1007,9 hPa 0,0 l/m 3,1 km/h (1 Bft) NW 305 0 min 0,0 UV-I 0 W/m -0,2 C 1,4 C 12,9 km/h (3 Bft)
24.02.2023 22:30 1,4 C 0,6 C 89 % 1007,9 hPa 0,0 l/m 3,6 km/h (1 Bft) N 9 0 min 0,0 UV-I 0 W/m -0,2 C 1,4 C 11,3 km/h (2 Bft)
24.02.2023 22:33 1,4 C 1,1 C 89 % 1007,9 hPa 0,0 l/m 5,0 km/h (1 Bft) W-SW 241 0 min 0,0 UV-I 0 W/m -0,2 C 1,4 C 19,3 km/h (3 Bft)
24.02.2023 22:36 1,5 C 1,1 C 89 % 1008,0 hPa 0,0 l/m 2,5 km/h (1 Bft) NW 311 0 min 0,0 UV-I 0 W/m -0,1 C 1,5 C 6,4 km/h (2 Bft)
24.02.2023 22:39 1,4 C 0,6 C 89 % 1008,0 hPa 0,2 l/m 2,0 km/h (1 Bft) NW 304 0 min 0,0 UV-I 0 W/m -0,2 C 1,4 C 6,4 km/h (2 Bft)
24.02.2023 22:42 1,4 C 0,6 C 89 % 1008,0 hPa 0,0 l/m 3,6 km/h (1 Bft) W-NW 289 0 min 0,0 UV-I 0 W/m -0,2 C 1,4 C 17,7 km/h (3 Bft)
24.02.2023 22:45 1,4 C 1,1 C 90 % 1008,0 hPa 0,0 l/m 6,7 km/h (2 Bft) W-NW 289 0 min 0,0 UV-I 0 W/m -0,1 C 1,1 C 14,5 km/h (3 Bft)
24.02.2023 22:48 1,5 C 1,1 C 90 % 1008,1 hPa 0,0 l/m 5,5 km/h (1 Bft) W 279 0 min 0,0 UV-I 0 W/m 0,0 C 1,5 C 16,1 km/h (3 Bft)
24.02.2023 22:51 1,5 C 1,1 C 90 % 1008,2 hPa 0,0 l/m 1,9 km/h (1 Bft) W-NW 297 0 min 0,0 UV-I 0 W/m 0,0 C 1,5 C 6,4 km/h (2 Bft)
24.02.2023 22:54 1,6 C 1,1 C 90 % 1008,2 hPa 0,0 l/m 3,7 km/h (1 Bft) W-SW 247 0 min 0,0 UV-I 0 W/m 0,1 C 1,6 C 14,5 km/h (3 Bft)
24.02.2023 22:57 1,6 C 1,1 C 89 % 1008,3 hPa 0,0 l/m 4,1 km/h (1 Bft) W 265 0 min 0,0 UV-I 0 W/m -0,0 C 1,6 C 11,3 km/h (2 Bft)
24.02.2023 23:00 1,6 C 1,1 C 89 % 1008,4 hPa 0,0 l/m 8,1 km/h (2 Bft) W 273 0 min 0,0 UV-I 0 W/m -0,0 C -0,1 C 20,9 km/h (4 Bft)
24.02.2023 23:03 1,6 C 1,1 C 89 % 1008,5 hPa 0,0 l/m 8,5 km/h (2 Bft) W-NW 300 0 min 0,0 UV-I 0 W/m -0,0 C -0,4 C 17,7 km/h (3 Bft)
24.02.2023 23:07 1,6 C 1,1 C 89 % 1008,4 hPa 0,0 l/m 6,5 km/h (2 Bft) W-NW 302 0 min 0,0 UV-I 0 W/m -0,0 C 1,5 C 14,5 km/h (3 Bft)
24.02.2023 23:09 1,6 C 1,1 C 89 % 1008,3 hPa 0,0 l/m 11,5 km/h (2 Bft) W-NW 284 0 min 0,0 UV-I 0 W/m -0,0 C -2,8 C 20,9 km/h (4 Bft)
24.02.2023 23:12 1,6 C 1,1 C 89 % 1008,2 hPa 0,0 l/m 4,8 km/h (1 Bft) W 261 0 min 0,0 UV-I 0 W/m -0,0 C 1,6 C 16,1 km/h (3 Bft)
24.02.2023 23:15 1,6 C 1,1 C 89 % 1008,2 hPa 0,0 l/m 2,4 km/h (1 Bft) NW 306 0 min 0,0 UV-I 0 W/m -0,0 C 1,6 C 8,0 km/h (2 Bft)
24.02.2023 23:18 1,6 C 0,6 C 88 % 1008,2 hPa 0,0 l/m 8,1 km/h (2 Bft) W-SW 253 0 min 0,0 UV-I 0 W/m -0,2 C -0,1 C 17,7 km/h (3 Bft)
24.02.2023 23:21 1,4 C 0,6 C 88 % 1008,1 hPa 0,0 l/m 6,6 km/h (2 Bft) NW 309 0 min 0,0 UV-I 0 W/m -0,4 C 1,2 C 22,5 km/h (4 Bft)
24.02.2023 23:24 1,5 C 0,6 C 88 % 1008,4 hPa 0,0 l/m 8,3 km/h (2 Bft) NW 324 0 min 0,0 UV-I 0 W/m -0,3 C -0,3 C 19,3 km/h (3 Bft)
24.02.2023 23:27 1,4 C 0,6 C 87 % 1008,3 hPa 0,0 l/m 2,8 km/h (1 Bft) W-NW 287 0 min 0,0 UV-I 0 W/m -0,5 C 1,4 C 12,9 km/h (3 Bft)
24.02.2023 23:30 1,5 C 0,6 C 87 % 1008,3 hPa 0,0 l/m 7,2 km/h (2 Bft) W 277 0 min 0,0 UV-I 0 W/m -0,4 C 0,7 C 17,7 km/h (3 Bft)
24.02.2023 23:33 1,5 C 0,6 C 87 % 1008,6 hPa 0,0 l/m 1,2 km/h (1 Bft) W 273 0 min 0,0 UV-I 0 W/m -0,4 C 1,5 C 3,2 km/h (1 Bft)
24.02.2023 23:36 1,5 C 0,6 C 87 % 1008,5 hPa 0,0 l/m 3,0 km/h (1 Bft) W-NW 295 0 min 0,0 UV-I 0 W/m -0,4 C 1,5 C 8,0 km/h (2 Bft)
24.02.2023 23:39 1,5 C 0,6 C 87 % 1008,5 hPa 0,0 l/m 2,2 km/h (1 Bft) W 280 0 min 0,0 UV-I 0 W/m -0,4 C 1,5 C 4,8 km/h (1 Bft)
24.02.2023 23:42 1,4 C 0,6 C 87 % 1008,5 hPa 0,0 l/m 2,7 km/h (1 Bft) N-NW 328 0 min 0,0 UV-I 0 W/m -0,5 C 1,4 C 8,0 km/h (2 Bft)
24.02.2023 23:45 1,4 C 0,6 C 87 % 1008,5 hPa 0,0 l/m 3,1 km/h (1 Bft) N-NW 329 0 min 0,0 UV-I 0 W/m -0,5 C 1,4 C 6,4 km/h (2 Bft)
24.02.2023 23:48 1,4 C 0,6 C 86 % 1008,5 hPa 0,0 l/m 3,7 km/h (1 Bft) W-SW 255 0 min 0,0 UV-I 0 W/m -0,7 C 1,4 C 11,3 km/h (2 Bft)
24.02.2023 23:51 1,4 C 0,6 C 87 % 1008,4 hPa 0,0 l/m 5,8 km/h (2 Bft) W-NW 300 0 min 0,0 UV-I 0 W/m -0,5 C 1,4 C 16,1 km/h (3 Bft)
24.02.2023 23:54 1,4 C 0,6 C 87 % 1008,4 hPa 0,0 l/m 2,4 km/h (1 Bft) SW 236 0 min 0,0 UV-I 0 W/m -0,5 C 1,4 C 9,7 km/h (2 Bft)
24.02.2023 23:57 1,4 C 0,6 C 86 % 1008,5 hPa 0,0 l/m 2,5 km/h (1 Bft) W 275 0 min 0,0 UV-I 0 W/m -0,7 C 1,4 C 6,4 km/h (2 Bft)
24.02.2023 23:58 1,4 C 0,6 C 86 % 1008,5 hPa 0,0 l/m 4,8 km/h (1 Bft) W 270 0 min 0,0 UV-I 0 W/m -0,7 C 1,4 C 9,7 km/h (2 Bft)
24.02.2023 23:59 1,3 C 0,6 C 86 % 1008,6 hPa 0,0 l/m 3,2 km/h (1 Bft) W 270 0 min 0,0 UV-I 0 W/m -0,8 C 1,3 C 6,4 km/h (2 Bft)
_ Min-Zeit 02:48 02:34 12:57 18:09 - 00:38 - - - - - 23:59 12:57 00:41
Minimum _ 1,2 C -0,6 C 78 % 1007,0 hPa - 0,0 km/h (0 Bft) - - - - - -0,8 C -4,6 C 0,0 km/h (0 Bft)
_ Max-Zeit 12:45 12:42 04:46 00:00 17:09 12:57 - - 10:59 12:42 12:42 00:00 00:04 12:54
Maximum _ 4,4 C 8,9 C 93 % 1016,2 hPa 0,2 l/m 19,6 km/h
W (3 Bft)
- - 5 min 1,8 UV-I 507 W/m 2,8 C 4,1 C 30,6 km/h
W (5 Bft)
Durchschnitt _ 2,6 C 2,5 C 88 % 1010,5 hPa #1,0 l/m 6,0 km/h (2 Bft) W-SW - #54 min. 0,9 UV-I 126 W/m 0,8 C 1,1 C 12,0 km/h (2 Bft)